﻿<?xml version="1.0" encoding="utf-8"?><gpx creator="Garmin Desktop App" version="1.1" xsi:schemaLocation="http://www.topografix.com/GPX/1/1 http://www.topografix.com/GPX/1/1/gpx.xsd http://www.garmin.com/xmlschemas/WaypointExtension/v1 http://www8.garmin.com/xmlschemas/WaypointExtensionv1.xsd http://www.garmin.com/xmlschemas/TrackPointExtension/v1 http://www.garmin.com/xmlschemas/TrackPointExtensionv1.xsd http://www.garmin.com/xmlschemas/GpxExtensions/v3 http://www8.garmin.com/xmlschemas/GpxExtensionsv3.xsd http://www.garmin.com/xmlschemas/ActivityExtension/v1 http://www8.garmin.com/xmlschemas/ActivityExtensionv1.xsd http://www.garmin.com/xmlschemas/AdventuresExtensions/v1 http://www8.garmin.com/xmlschemas/AdventuresExtensionv1.xsd http://www.garmin.com/xmlschemas/PressureExtension/v1 http://www.garmin.com/xmlschemas/PressureExtensionv1.xsd http://www.garmin.com/xmlschemas/TripExtensions/v1 http://www.garmin.com/xmlschemas/TripExtensionsv1.xsd http://www.garmin.com/xmlschemas/TripMetaDataExtensions/v1 http://www.garmin.com/xmlschemas/TripMetaDataExtensionsv1.xsd http://www.garmin.com/xmlschemas/ViaPointTransportationModeExtensions/v1 http://www.garmin.com/xmlschemas/ViaPointTransportationModeExtensionsv1.xsd http://www.garmin.com/xmlschemas/CreationTimeExtension/v1 http://www.garmin.com/xmlschemas/CreationTimeExtensionsv1.xsd http://www.garmin.com/xmlschemas/AccelerationExtension/v1 http://www.garmin.com/xmlschemas/AccelerationExtensionv1.xsd http://www.garmin.com/xmlschemas/PowerExtension/v1 http://www.garmin.com/xmlschemas/PowerExtensionv1.xsd http://www.garmin.com/xmlschemas/VideoExtension/v1 http://www.garmin.com/xmlschemas/VideoExtensionv1.xsd" xmlns="http://www.topografix.com/GPX/1/1" xmlns:xsi="http://www.w3.org/2001/XMLSchema-instance" xmlns:wptx1="http://www.garmin.com/xmlschemas/WaypointExtension/v1" xmlns:gpxtrx="http://www.garmin.com/xmlschemas/GpxExtensions/v3" xmlns:gpxtpx="http://www.garmin.com/xmlschemas/TrackPointExtension/v1" xmlns:gpxx="http://www.garmin.com/xmlschemas/GpxExtensions/v3" xmlns:trp="http://www.garmin.com/xmlschemas/TripExtensions/v1" xmlns:adv="http://www.garmin.com/xmlschemas/AdventuresExtensions/v1" xmlns:prs="http://www.garmin.com/xmlschemas/PressureExtension/v1" xmlns:tmd="http://www.garmin.com/xmlschemas/TripMetaDataExtensions/v1" xmlns:vptm="http://www.garmin.com/xmlschemas/ViaPointTransportationModeExtensions/v1" xmlns:ctx="http://www.garmin.com/xmlschemas/CreationTimeExtension/v1" xmlns:gpxacc="http://www.garmin.com/xmlschemas/AccelerationExtension/v1" xmlns:gpxpx="http://www.garmin.com/xmlschemas/PowerExtension/v1" xmlns:vidx1="http://www.garmin.com/xmlschemas/VideoExtension/v1">

  <metadata>
    <link href="http://www.garmin.com">
      <text>Garmin International</text>
    </link>
    <time>2017-06-04T07:13:05Z</time>
    <bounds maxlat="46.128851417452097" maxlon="8.426880212500691" minlat="46.101368246600032" minlon="8.407059526070952" />
  </metadata>

  <trk>
    <name>pizzo-ragno2017-06-03</name>
    <extensions>
      <gpxx:TrackExtension>
        <gpxx:DisplayColor>Yellow</gpxx:DisplayColor>
      </gpxx:TrackExtension>
    </extensions>
    <trkseg>
      <trkpt lat="46.12882861867547" lon="8.420135295018554">
        <ele>885.02999999999997</ele>
        <time>2017-06-03T06:21:14Z</time>
      </trkpt>
      <trkpt lat="46.128832893446088" lon="8.420139569789171">
        <ele>885.02999999999997</ele>
        <time>2017-06-03T06:21:15Z</time>
      </trkpt>
      <trkpt lat="46.128835994750261" lon="8.420149795711041">
        <ele>758.13999999999999</ele>
        <time>2017-06-03T06:21:20Z</time>
      </trkpt>
      <trkpt lat="46.128833899274468" lon="8.420148706063628">
        <ele>758.13999999999999</ele>
        <time>2017-06-03T06:21:21Z</time>
      </trkpt>
      <trkpt lat="46.128842867910862" lon="8.420166559517384">
        <ele>759.10000000000002</ele>
        <time>2017-06-03T06:21:43Z</time>
      </trkpt>
      <trkpt lat="46.128851417452097" lon="8.420112328603864">
        <ele>758.62</ele>
        <time>2017-06-03T06:21:54Z</time>
      </trkpt>
      <trkpt lat="46.128840856254101" lon="8.420084333047271">
        <ele>759.58000000000004</ele>
        <time>2017-06-03T06:22:19Z</time>
      </trkpt>
      <trkpt lat="46.12880758009851" lon="8.420046279206872">
        <ele>760.53999999999996</ele>
        <time>2017-06-03T06:22:47Z</time>
      </trkpt>
      <trkpt lat="46.128829540684819" lon="8.420122219249606">
        <ele>761.5</ele>
        <time>2017-06-03T06:22:55Z</time>
      </trkpt>
      <trkpt lat="46.128828702494502" lon="8.420111406594515">
        <ele>761.98000000000002</ele>
        <time>2017-06-03T06:23:05Z</time>
      </trkpt>
      <trkpt lat="46.128823505714536" lon="8.420082405209541">
        <ele>761.98000000000002</ele>
        <time>2017-06-03T06:23:09Z</time>
      </trkpt>
      <trkpt lat="46.128755947574973" lon="8.420019960030913">
        <ele>762.94000000000005</ele>
        <time>2017-06-03T06:23:22Z</time>
      </trkpt>
      <trkpt lat="46.128713535144925" lon="8.420116184279323">
        <ele>763.89999999999998</ele>
        <time>2017-06-03T06:23:33Z</time>
      </trkpt>
      <trkpt lat="46.128697106614709" lon="8.420159434899688">
        <ele>763.89999999999998</ele>
        <time>2017-06-03T06:23:37Z</time>
      </trkpt>
      <trkpt lat="46.128646228462458" lon="8.420326402410865">
        <ele>764.38999999999999</ele>
        <time>2017-06-03T06:23:50Z</time>
      </trkpt>
      <trkpt lat="46.128645474091172" lon="8.420500326901674">
        <ele>765.35000000000002</ele>
        <time>2017-06-03T06:24:03Z</time>
      </trkpt>
      <trkpt lat="46.12862192094326" lon="8.420655392110348">
        <ele>765.35000000000002</ele>
        <time>2017-06-03T06:24:13Z</time>
      </trkpt>
      <trkpt lat="46.128594260662794" lon="8.420795202255249">
        <ele>765.83000000000004</ele>
        <time>2017-06-03T06:24:22Z</time>
      </trkpt>
      <trkpt lat="46.128576826304197" lon="8.420919254422188">
        <ele>766.30999999999995</ele>
        <time>2017-06-03T06:24:30Z</time>
      </trkpt>
      <trkpt lat="46.128499042242765" lon="8.421126957982779">
        <ele>767.26999999999998</ele>
        <time>2017-06-03T06:24:43Z</time>
      </trkpt>
      <trkpt lat="46.128429220989347" lon="8.421267857775092">
        <ele>767.26999999999998</ele>
        <time>2017-06-03T06:24:54Z</time>
      </trkpt>
      <trkpt lat="46.128387898206711" lon="8.421282442286611">
        <ele>767.26999999999998</ele>
        <time>2017-06-03T06:25:06Z</time>
      </trkpt>
      <trkpt lat="46.128417989239097" lon="8.421334242448211">
        <ele>768.23000000000002</ele>
        <time>2017-06-03T06:25:24Z</time>
      </trkpt>
      <trkpt lat="46.128342384472489" lon="8.421500371769071">
        <ele>768.71000000000004</ele>
        <time>2017-06-03T06:25:37Z</time>
      </trkpt>
      <trkpt lat="46.128299385309219" lon="8.421643283218145">
        <ele>770.14999999999998</ele>
        <time>2017-06-03T06:25:49Z</time>
      </trkpt>
      <trkpt lat="46.128253703936934" lon="8.421821817755699">
        <ele>770.63</ele>
        <time>2017-06-03T06:26:01Z</time>
      </trkpt>
      <trkpt lat="46.128210201859474" lon="8.42200898565352">
        <ele>772.08000000000004</ele>
        <time>2017-06-03T06:26:13Z</time>
      </trkpt>
      <trkpt lat="46.128195701166987" lon="8.422056175768375">
        <ele>772.08000000000004</ele>
        <time>2017-06-03T06:26:16Z</time>
      </trkpt>
      <trkpt lat="46.128144487738609" lon="8.422178886830807">
        <ele>773.51999999999998</ele>
        <time>2017-06-03T06:26:25Z</time>
      </trkpt>
      <trkpt lat="46.128099812194705" lon="8.42242824845016">
        <ele>774</ele>
        <time>2017-06-03T06:26:41Z</time>
      </trkpt>
      <trkpt lat="46.128052538260818" lon="8.422531010583043">
        <ele>774.96000000000004</ele>
        <time>2017-06-03T06:26:53Z</time>
      </trkpt>
      <trkpt lat="46.128032086417079" lon="8.422521119937301">
        <ele>775.44000000000005</ele>
        <time>2017-06-03T06:27:14Z</time>
      </trkpt>
      <trkpt lat="46.128011802211404" lon="8.422522461041808">
        <ele>775.91999999999996</ele>
        <time>2017-06-03T06:27:32Z</time>
      </trkpt>
      <trkpt lat="46.128045246005058" lon="8.42252204194665">
        <ele>776.88</ele>
        <time>2017-06-03T06:27:44Z</time>
      </trkpt>
      <trkpt lat="46.128054382279515" lon="8.422529501840472">
        <ele>777.36000000000001</ele>
        <time>2017-06-03T06:27:59Z</time>
      </trkpt>
      <trkpt lat="46.128052705898881" lon="8.422525227069855">
        <ele>777.84000000000003</ele>
        <time>2017-06-03T06:28:19Z</time>
      </trkpt>
      <trkpt lat="46.128062093630433" lon="8.422510894015431">
        <ele>778.32000000000005</ele>
        <time>2017-06-03T06:28:37Z</time>
      </trkpt>
      <trkpt lat="46.128071481361985" lon="8.422527993097901">
        <ele>779.28999999999996</ele>
        <time>2017-06-03T06:29:00Z</time>
      </trkpt>
      <trkpt lat="46.128043821081519" lon="8.422552300617099">
        <ele>779.76999999999998</ele>
        <time>2017-06-03T06:29:15Z</time>
      </trkpt>
      <trkpt lat="46.128005934879184" lon="8.422537632286549">
        <ele>780.25</ele>
        <time>2017-06-03T06:29:23Z</time>
      </trkpt>
      <trkpt lat="46.127886241301894" lon="8.422485664486885">
        <ele>781.21000000000004</ele>
        <time>2017-06-03T06:29:34Z</time>
      </trkpt>
      <trkpt lat="46.12779513001442" lon="8.422390278428793">
        <ele>782.64999999999998</ele>
        <time>2017-06-03T06:29:44Z</time>
      </trkpt>
      <trkpt lat="46.12771357409656" lon="8.4222811460495">
        <ele>784.09000000000003</ele>
        <time>2017-06-03T06:29:55Z</time>
      </trkpt>
      <trkpt lat="46.127703934907913" lon="8.422155249863863">
        <ele>785.52999999999997</ele>
        <time>2017-06-03T06:30:05Z</time>
      </trkpt>
      <trkpt lat="46.127693792805076" lon="8.422040669247508">
        <ele>786.98000000000002</ele>
        <time>2017-06-03T06:30:15Z</time>
      </trkpt>
      <trkpt lat="46.127651548013091" lon="8.421913012862206">
        <ele>787.46000000000004</ele>
        <time>2017-06-03T06:30:26Z</time>
      </trkpt>
      <trkpt lat="46.127607962116599" lon="8.42183263041079">
        <ele>788.89999999999998</ele>
        <time>2017-06-03T06:30:34Z</time>
      </trkpt>
      <trkpt lat="46.127644926309586" lon="8.421650910750032">
        <ele>789.38</ele>
        <time>2017-06-03T06:30:44Z</time>
      </trkpt>
      <trkpt lat="46.127646435052156" lon="8.421587124466896">
        <ele>788.89999999999998</ele>
        <time>2017-06-03T06:30:48Z</time>
      </trkpt>
      <trkpt lat="46.127700665965676" lon="8.421380342915654">
        <ele>786.98000000000002</ele>
        <time>2017-06-03T06:31:01Z</time>
      </trkpt>
      <trkpt lat="46.127702845260501" lon="8.421187726780772">
        <ele>785.52999999999997</ele>
        <time>2017-06-03T06:31:13Z</time>
      </trkpt>
      <trkpt lat="46.127717345952988" lon="8.420988908037543">
        <ele>785.52999999999997</ele>
        <time>2017-06-03T06:31:24Z</time>
      </trkpt>
      <trkpt lat="46.127739809453487" lon="8.420899556949735">
        <ele>786.01999999999998</ele>
        <time>2017-06-03T06:31:31Z</time>
      </trkpt>
      <trkpt lat="46.127735283225775" lon="8.420734265819192">
        <ele>786.5</ele>
        <time>2017-06-03T06:31:42Z</time>
      </trkpt>
      <trkpt lat="46.127682980149984" lon="8.420622032135725">
        <ele>787.94000000000005</ele>
        <time>2017-06-03T06:31:52Z</time>
      </trkpt>
      <trkpt lat="46.127645513042808" lon="8.420488508418202">
        <ele>788.89999999999998</ele>
        <time>2017-06-03T06:32:03Z</time>
      </trkpt>
      <trkpt lat="46.127617433667183" lon="8.420401336625218">
        <ele>789.86000000000001</ele>
        <time>2017-06-03T06:32:12Z</time>
      </trkpt>
      <trkpt lat="46.127639897167683" lon="8.420356744900346">
        <ele>790.82000000000005</ele>
        <time>2017-06-03T06:32:23Z</time>
      </trkpt>
      <trkpt lat="46.127643920481205" lon="8.420328833162785">
        <ele>791.29999999999995</ele>
        <time>2017-06-03T06:32:35Z</time>
      </trkpt>
      <trkpt lat="46.127646686509252" lon="8.420286504551768">
        <ele>791.29999999999995</ele>
        <time>2017-06-03T06:32:49Z</time>
      </trkpt>
      <trkpt lat="46.127667725086212" lon="8.420238392427564">
        <ele>792.25999999999999</ele>
        <time>2017-06-03T06:33:10Z</time>
      </trkpt>
      <trkpt lat="46.127603519707918" lon="8.420260353013873">
        <ele>793.22000000000003</ele>
        <time>2017-06-03T06:33:29Z</time>
      </trkpt>
      <trkpt lat="46.127554988488555" lon="8.420113334432244">
        <ele>795.14999999999998</ele>
        <time>2017-06-03T06:33:42Z</time>
      </trkpt>
      <trkpt lat="46.127555072307587" lon="8.420012416318059">
        <ele>796.11000000000001</ele>
        <time>2017-06-03T06:33:51Z</time>
      </trkpt>
      <trkpt lat="46.127568315714598" lon="8.419901775196195">
        <ele>797.54999999999995</ele>
        <time>2017-06-03T06:34:00Z</time>
      </trkpt>
      <trkpt lat="46.127548785880208" lon="8.419765736907721">
        <ele>799.95000000000005</ele>
        <time>2017-06-03T06:34:12Z</time>
      </trkpt>
      <trkpt lat="46.127521796151996" lon="8.419736986979842">
        <ele>799.95000000000005</ele>
        <time>2017-06-03T06:34:16Z</time>
      </trkpt>
      <trkpt lat="46.127444598823786" lon="8.419663310050964">
        <ele>802.36000000000001</ele>
        <time>2017-06-03T06:34:26Z</time>
      </trkpt>
      <trkpt lat="46.127422219142318" lon="8.419557027518749">
        <ele>804.27999999999997</ele>
        <time>2017-06-03T06:34:37Z</time>
      </trkpt>
      <trkpt lat="46.12740813754499" lon="8.419418726116419">
        <ele>805.72000000000003</ele>
        <time>2017-06-03T06:34:48Z</time>
      </trkpt>
      <trkpt lat="46.127396738156676" lon="8.419378828257322">
        <ele>806.20000000000005</ele>
        <time>2017-06-03T06:34:51Z</time>
      </trkpt>
      <trkpt lat="46.12738274037838" lon="8.419260643422604">
        <ele>807.63999999999999</ele>
        <time>2017-06-03T06:35:02Z</time>
      </trkpt>
      <trkpt lat="46.127383159473538" lon="8.419230971485376">
        <ele>808.13</ele>
        <time>2017-06-03T06:35:04Z</time>
      </trkpt>
      <trkpt lat="46.127386009320617" lon="8.419201299548149">
        <ele>808.13</ele>
        <time>2017-06-03T06:35:06Z</time>
      </trkpt>
      <trkpt lat="46.127389529719949" lon="8.419080767780542">
        <ele>808.13</ele>
        <time>2017-06-03T06:35:13Z</time>
      </trkpt>
      <trkpt lat="46.12742867320776" lon="8.418922433629632">
        <ele>810.04999999999995</ele>
        <time>2017-06-03T06:35:25Z</time>
      </trkpt>
      <trkpt lat="46.127427667379379" lon="8.41877767816186">
        <ele>811.00999999999999</ele>
        <time>2017-06-03T06:35:35Z</time>
      </trkpt>
      <trkpt lat="46.127423727884889" lon="8.41859201900661">
        <ele>811.97000000000003</ele>
        <time>2017-06-03T06:35:46Z</time>
      </trkpt>
      <trkpt lat="46.127381650730968" lon="8.418471487239003">
        <ele>812.92999999999995</ele>
        <time>2017-06-03T06:35:55Z</time>
      </trkpt>
      <trkpt lat="46.127313757315278" lon="8.418398732319474">
        <ele>813.88999999999999</ele>
        <time>2017-06-03T06:36:03Z</time>
      </trkpt>
      <trkpt lat="46.127226166427135" lon="8.418346848338842">
        <ele>815.82000000000005</ele>
        <time>2017-06-03T06:36:15Z</time>
      </trkpt>
      <trkpt lat="46.127175372093916" lon="8.418337544426322">
        <ele>817.74000000000001</ele>
        <time>2017-06-03T06:36:25Z</time>
      </trkpt>
      <trkpt lat="46.127132372930646" lon="8.418354978784919">
        <ele>818.70000000000005</ele>
        <time>2017-06-03T06:36:31Z</time>
      </trkpt>
      <trkpt lat="46.127067161723971" lon="8.418353470042348">
        <ele>820.62</ele>
        <time>2017-06-03T06:36:41Z</time>
      </trkpt>
      <trkpt lat="46.127008320763707" lon="8.41834818944335">
        <ele>822.54999999999995</ele>
        <time>2017-06-03T06:36:52Z</time>
      </trkpt>
      <trkpt lat="46.126959370449185" lon="8.418369982391596">
        <ele>823.99000000000001</ele>
        <time>2017-06-03T06:37:02Z</time>
      </trkpt>
      <trkpt lat="46.126908073201776" lon="8.418401749804616">
        <ele>825.90999999999997</ele>
        <time>2017-06-03T06:37:11Z</time>
      </trkpt>
      <trkpt lat="46.126839676871896" lon="8.418432930484414">
        <ele>827.35000000000002</ele>
        <time>2017-06-03T06:37:21Z</time>
      </trkpt>
      <trkpt lat="46.126762647181749" lon="8.418427901342511">
        <ele>829.26999999999998</ele>
        <time>2017-06-03T06:37:34Z</time>
      </trkpt>
      <trkpt lat="46.126705147325993" lon="8.418451035395265">
        <ele>831.20000000000005</ele>
        <time>2017-06-03T06:37:44Z</time>
      </trkpt>
      <trkpt lat="46.126668686047196" lon="8.418443910777569">
        <ele>831.67999999999995</ele>
        <time>2017-06-03T06:37:57Z</time>
      </trkpt>
      <trkpt lat="46.12663809210062" lon="8.418424632400274">
        <ele>832.15999999999997</ele>
        <time>2017-06-03T06:38:08Z</time>
      </trkpt>
      <trkpt lat="46.126538095995784" lon="8.418482886627317">
        <ele>835.03999999999996</ele>
        <time>2017-06-03T06:38:22Z</time>
      </trkpt>
      <trkpt lat="46.126535497605801" lon="8.418481964617968">
        <ele>835.51999999999998</ele>
        <time>2017-06-03T06:38:23Z</time>
      </trkpt>
      <trkpt lat="46.126502137631178" lon="8.418407952412963">
        <ele>835.03999999999996</ele>
        <time>2017-06-03T06:38:44Z</time>
      </trkpt>
      <trkpt lat="46.126550417393446" lon="8.418407030403614">
        <ele>834.55999999999995</ele>
        <time>2017-06-03T06:38:56Z</time>
      </trkpt>
      <trkpt lat="46.12658335827291" lon="8.418325306847692">
        <ele>833.12</ele>
        <time>2017-06-03T06:39:07Z</time>
      </trkpt>
      <trkpt lat="46.126521248370409" lon="8.418292785063386">
        <ele>833.60000000000002</ele>
        <time>2017-06-03T06:39:17Z</time>
      </trkpt>
      <trkpt lat="46.126439524814487" lon="8.418284067884088">
        <ele>834.08000000000004</ele>
        <time>2017-06-03T06:39:27Z</time>
      </trkpt>
      <trkpt lat="46.126418653875589" lon="8.418264118954539">
        <ele>835.03999999999996</ele>
        <time>2017-06-03T06:39:30Z</time>
      </trkpt>
      <trkpt lat="46.126402476802468" lon="8.418235033750534">
        <ele>834.08000000000004</ele>
        <time>2017-06-03T06:39:32Z</time>
      </trkpt>
      <trkpt lat="46.126387640833855" lon="8.418140904977918">
        <ele>834.08000000000004</ele>
        <time>2017-06-03T06:39:40Z</time>
      </trkpt>
      <trkpt lat="46.12646265886724" lon="8.418024647980928">
        <ele>834.55999999999995</ele>
        <time>2017-06-03T06:39:49Z</time>
      </trkpt>
      <trkpt lat="46.126500042155385" lon="8.417909564450383">
        <ele>836</ele>
        <time>2017-06-03T06:39:59Z</time>
      </trkpt>
      <trkpt lat="46.126515464857221" lon="8.417807891964912">
        <ele>837.92999999999995</ele>
        <time>2017-06-03T06:40:09Z</time>
      </trkpt>
      <trkpt lat="46.126464335247874" lon="8.417678810656071">
        <ele>839.85000000000002</ele>
        <time>2017-06-03T06:40:22Z</time>
      </trkpt>
      <trkpt lat="46.126428125426173" lon="8.417592644691467">
        <ele>841.76999999999998</ele>
        <time>2017-06-03T06:40:33Z</time>
      </trkpt>
      <trkpt lat="46.126386802643538" lon="8.417502287775278">
        <ele>843.21000000000004</ele>
        <time>2017-06-03T06:40:43Z</time>
      </trkpt>
      <trkpt lat="46.126378672197461" lon="8.4173733741045">
        <ele>844.65999999999997</ele>
        <time>2017-06-03T06:40:53Z</time>
      </trkpt>
      <trkpt lat="46.126353526487947" lon="8.417203389108181">
        <ele>845.62</ele>
        <time>2017-06-03T06:41:06Z</time>
      </trkpt>
      <trkpt lat="46.126353945583105" lon="8.41707531362772">
        <ele>845.13999999999999</ele>
        <time>2017-06-03T06:41:16Z</time>
      </trkpt>
      <trkpt lat="46.126350341364741" lon="8.41706357896328">
        <ele>845.13999999999999</ele>
        <time>2017-06-03T06:41:17Z</time>
      </trkpt>
      <trkpt lat="46.126341288909316" lon="8.416813295334578">
        <ele>845.13999999999999</ele>
        <time>2017-06-03T06:41:31Z</time>
      </trkpt>
      <trkpt lat="46.126337433233857" lon="8.416605005040765">
        <ele>844.17999999999995</ele>
        <time>2017-06-03T06:41:43Z</time>
      </trkpt>
      <trkpt lat="46.126298373565078" lon="8.416461003944278">
        <ele>843.69000000000005</ele>
        <time>2017-06-03T06:41:54Z</time>
      </trkpt>
      <trkpt lat="46.126260990276933" lon="8.416306860744953">
        <ele>844.17999999999995</ele>
        <time>2017-06-03T06:42:06Z</time>
      </trkpt>
      <trkpt lat="46.1262212600559" lon="8.416265370324254">
        <ele>844.65999999999997</ele>
        <time>2017-06-03T06:42:09Z</time>
      </trkpt>
      <trkpt lat="46.126181865110993" lon="8.416096977889538">
        <ele>845.13999999999999</ele>
        <time>2017-06-03T06:42:20Z</time>
      </trkpt>
      <trkpt lat="46.126141883432865" lon="8.416021037846804">
        <ele>846.10000000000002</ele>
        <time>2017-06-03T06:42:26Z</time>
      </trkpt>
      <trkpt lat="46.126109780743718" lon="8.415947109460831">
        <ele>846.10000000000002</ele>
        <time>2017-06-03T06:42:32Z</time>
      </trkpt>
      <trkpt lat="46.126099303364754" lon="8.41592020355165">
        <ele>846.58000000000004</ele>
        <time>2017-06-03T06:42:33Z</time>
      </trkpt>
      <trkpt lat="46.126095531508327" lon="8.415810652077198">
        <ele>846.10000000000002</ele>
        <time>2017-06-03T06:42:40Z</time>
      </trkpt>
      <trkpt lat="46.126054544001818" lon="8.415643097832799">
        <ele>845.62</ele>
        <time>2017-06-03T06:42:51Z</time>
      </trkpt>
      <trkpt lat="46.126046078279614" lon="8.415464228019118">
        <ele>844.65999999999997</ele>
        <time>2017-06-03T06:43:02Z</time>
      </trkpt>
      <trkpt lat="46.126051694154739" lon="8.415451906621456">
        <ele>844.65999999999997</ele>
        <time>2017-06-03T06:43:03Z</time>
      </trkpt>
      <trkpt lat="46.126217152923346" lon="8.41526054777205">
        <ele>844.65999999999997</ele>
        <time>2017-06-03T06:43:15Z</time>
      </trkpt>
      <trkpt lat="46.126227965578437" lon="8.415107997134328">
        <ele>845.13999999999999</ele>
        <time>2017-06-03T06:43:23Z</time>
      </trkpt>
      <trkpt lat="46.126262666657567" lon="8.414915883913636">
        <ele>844.65999999999997</ele>
        <time>2017-06-03T06:43:35Z</time>
      </trkpt>
      <trkpt lat="46.126343216747046" lon="8.414806416258216">
        <ele>844.65999999999997</ele>
        <time>2017-06-03T06:43:47Z</time>
      </trkpt>
      <trkpt lat="46.126368446275592" lon="8.414669204503298">
        <ele>845.62</ele>
        <time>2017-06-03T06:43:57Z</time>
      </trkpt>
      <trkpt lat="46.126378336921334" lon="8.414619835093617">
        <ele>845.62</ele>
        <time>2017-06-03T06:44:08Z</time>
      </trkpt>
      <trkpt lat="46.126358471810818" lon="8.414520006626844">
        <ele>847.05999999999995</ele>
        <time>2017-06-03T06:44:19Z</time>
      </trkpt>
      <trkpt lat="46.126332571730018" lon="8.414443144574761">
        <ele>849.46000000000004</ele>
        <time>2017-06-03T06:44:30Z</time>
      </trkpt>
      <trkpt lat="46.126307509839535" lon="8.414347004145384">
        <ele>851.38</ele>
        <time>2017-06-03T06:44:42Z</time>
      </trkpt>
      <trkpt lat="46.126273814588785" lon="8.414270309731364">
        <ele>853.30999999999995</ele>
        <time>2017-06-03T06:44:53Z</time>
      </trkpt>
      <trkpt lat="46.126234838739038" lon="8.4142114687711">
        <ele>854.75</ele>
        <time>2017-06-03T06:45:04Z</time>
      </trkpt>
      <trkpt lat="46.126217823475599" lon="8.414134187623859">
        <ele>857.14999999999998</ele>
        <time>2017-06-03T06:45:14Z</time>
      </trkpt>
      <trkpt lat="46.126203155145049" lon="8.414028491824865">
        <ele>858.11000000000001</ele>
        <time>2017-06-03T06:45:25Z</time>
      </trkpt>
      <trkpt lat="46.126186894252896" lon="8.413948947563767">
        <ele>860.51999999999998</ele>
        <time>2017-06-03T06:45:35Z</time>
      </trkpt>
      <trkpt lat="46.12615336664021" lon="8.413861775770783">
        <ele>861.96000000000004</ele>
        <time>2017-06-03T06:45:46Z</time>
      </trkpt>
      <trkpt lat="46.126134591177106" lon="8.413788517937064">
        <ele>863.39999999999998</ele>
        <time>2017-06-03T06:45:56Z</time>
      </trkpt>
      <trkpt lat="46.126123107969761" lon="8.413693718612194">
        <ele>864.84000000000003</ele>
        <time>2017-06-03T06:46:05Z</time>
      </trkpt>
      <trkpt lat="46.126096285879612" lon="8.413594393059611">
        <ele>865.32000000000005</ele>
        <time>2017-06-03T06:46:14Z</time>
      </trkpt>
      <trkpt lat="46.126068290323019" lon="8.413460198789835">
        <ele>866.76999999999998</ele>
        <time>2017-06-03T06:46:25Z</time>
      </trkpt>
      <trkpt lat="46.12604146823287" lon="8.413324495777488">
        <ele>867.73000000000002</ele>
        <time>2017-06-03T06:46:34Z</time>
      </trkpt>
      <trkpt lat="46.125998636707664" lon="8.413150990381837">
        <ele>867.73000000000002</ele>
        <time>2017-06-03T06:46:45Z</time>
      </trkpt>
      <trkpt lat="46.125997295603156" lon="8.413021825253964">
        <ele>868.69000000000005</ele>
        <time>2017-06-03T06:46:56Z</time>
      </trkpt>
      <trkpt lat="46.125922864302993" lon="8.41293515637517">
        <ele>869.64999999999998</ele>
        <time>2017-06-03T06:47:05Z</time>
      </trkpt>
      <trkpt lat="46.125875674188137" lon="8.412804147228599">
        <ele>870.61000000000001</ele>
        <time>2017-06-03T06:47:14Z</time>
      </trkpt>
      <trkpt lat="46.125841895118356" lon="8.412686716765165">
        <ele>871.57000000000005</ele>
        <time>2017-06-03T06:47:24Z</time>
      </trkpt>
      <trkpt lat="46.125804260373116" lon="8.412541290745139">
        <ele>872.52999999999997</ele>
        <time>2017-06-03T06:47:36Z</time>
      </trkpt>
      <trkpt lat="46.125793363898993" lon="8.412431655451655">
        <ele>873.98000000000002</ele>
        <time>2017-06-03T06:47:46Z</time>
      </trkpt>
      <trkpt lat="46.125795291736722" lon="8.412285977974534">
        <ele>874.46000000000004</ele>
        <time>2017-06-03T06:47:54Z</time>
      </trkpt>
      <trkpt lat="46.125745922327042" lon="8.412132170051336">
        <ele>875.89999999999998</ele>
        <time>2017-06-03T06:48:07Z</time>
      </trkpt>
      <trkpt lat="46.125704180449247" lon="8.412050111219287">
        <ele>877.82000000000005</ele>
        <time>2017-06-03T06:48:20Z</time>
      </trkpt>
      <trkpt lat="46.125722620636225" lon="8.411930333822966">
        <ele>880.22000000000003</ele>
        <time>2017-06-03T06:48:33Z</time>
      </trkpt>
      <trkpt lat="46.125718764960766" lon="8.41193251311779">
        <ele>880.71000000000004</ele>
        <time>2017-06-03T06:48:34Z</time>
      </trkpt>
      <trkpt lat="46.125700660049915" lon="8.411853890866041">
        <ele>883.11000000000001</ele>
        <time>2017-06-03T06:48:44Z</time>
      </trkpt>
      <trkpt lat="46.125693619251251" lon="8.411763785406947">
        <ele>884.54999999999995</ele>
        <time>2017-06-03T06:48:54Z</time>
      </trkpt>
      <trkpt lat="46.12567794509232" lon="8.411643505096436">
        <ele>886.47000000000003</ele>
        <time>2017-06-03T06:49:05Z</time>
      </trkpt>
      <trkpt lat="46.12567501142621" lon="8.411621376872063">
        <ele>886.47000000000003</ele>
        <time>2017-06-03T06:49:06Z</time>
      </trkpt>
      <trkpt lat="46.125666378065944" lon="8.41149908490479">
        <ele>887.90999999999997</ele>
        <time>2017-06-03T06:49:17Z</time>
      </trkpt>
      <trkpt lat="46.125633185729384" lon="8.411361956968904">
        <ele>889.84000000000003</ele>
        <time>2017-06-03T06:49:29Z</time>
      </trkpt>
      <trkpt lat="46.125607453286648" lon="8.411269001662731">
        <ele>891.27999999999997</ele>
        <time>2017-06-03T06:49:38Z</time>
      </trkpt>
      <trkpt lat="46.125552048906684" lon="8.411143273115158">
        <ele>892.72000000000003</ele>
        <time>2017-06-03T06:49:49Z</time>
      </trkpt>
      <trkpt lat="46.125538889318705" lon="8.411042941734195">
        <ele>894.63999999999999</ele>
        <time>2017-06-03T06:50:00Z</time>
      </trkpt>
      <trkpt lat="46.125483652576804" lon="8.410953590646386">
        <ele>895.12</ele>
        <time>2017-06-03T06:50:10Z</time>
      </trkpt>
      <trkpt lat="46.125442665070295" lon="8.410878572613001">
        <ele>895.12</ele>
        <time>2017-06-03T06:50:17Z</time>
      </trkpt>
      <trkpt lat="46.125426487997174" lon="8.410856276750565">
        <ele>895.61000000000001</ele>
        <time>2017-06-03T06:50:19Z</time>
      </trkpt>
      <trkpt lat="46.12541357986629" lon="8.410807410255075">
        <ele>895.61000000000001</ele>
        <time>2017-06-03T06:50:22Z</time>
      </trkpt>
      <trkpt lat="46.125393128022552" lon="8.410610351711512">
        <ele>896.09000000000003</ele>
        <time>2017-06-03T06:50:34Z</time>
      </trkpt>
      <trkpt lat="46.125371586531401" lon="8.410412119701505">
        <ele>896.57000000000005</ele>
        <time>2017-06-03T06:50:45Z</time>
      </trkpt>
      <trkpt lat="46.125372843816876" lon="8.410242972895503">
        <ele>896.57000000000005</ele>
        <time>2017-06-03T06:50:56Z</time>
      </trkpt>
      <trkpt lat="46.125363791361451" lon="8.410175498574972">
        <ele>896.09000000000003</ele>
        <time>2017-06-03T06:51:00Z</time>
      </trkpt>
      <trkpt lat="46.125375609844923" lon="8.410126883536577">
        <ele>896.57000000000005</ele>
        <time>2017-06-03T06:51:03Z</time>
      </trkpt>
      <trkpt lat="46.125341076403856" lon="8.409958407282829">
        <ele>895.12</ele>
        <time>2017-06-03T06:51:14Z</time>
      </trkpt>
      <trkpt lat="46.125314338132739" lon="8.409856650978327">
        <ele>895.12</ele>
        <time>2017-06-03T06:51:23Z</time>
      </trkpt>
      <trkpt lat="46.125280139967799" lon="8.409861177206039">
        <ele>895.12</ele>
        <time>2017-06-03T06:51:35Z</time>
      </trkpt>
      <trkpt lat="46.125280223786831" lon="8.409858662635088">
        <ele>895.12</ele>
        <time>2017-06-03T06:51:48Z</time>
      </trkpt>
      <trkpt lat="46.125158350914717" lon="8.409862853586674">
        <ele>895.12</ele>
        <time>2017-06-03T06:51:59Z</time>
      </trkpt>
      <trkpt lat="46.125113172456622" lon="8.40983871370554">
        <ele>895.12</ele>
        <time>2017-06-03T06:52:04Z</time>
      </trkpt>
      <trkpt lat="46.125008650124073" lon="8.409732514992356">
        <ele>895.61000000000001</ele>
        <time>2017-06-03T06:52:17Z</time>
      </trkpt>
      <trkpt lat="46.124886861070991" lon="8.40964769013226">
        <ele>896.09000000000003</ele>
        <time>2017-06-03T06:52:28Z</time>
      </trkpt>
      <trkpt lat="46.124847130849957" lon="8.409692281857133">
        <ele>896.09000000000003</ele>
        <time>2017-06-03T06:52:38Z</time>
      </trkpt>
      <trkpt lat="46.124780913814902" lon="8.409763192757964">
        <ele>896.09000000000003</ele>
        <time>2017-06-03T06:52:47Z</time>
      </trkpt>
      <trkpt lat="46.124732298776507" lon="8.409766461700201">
        <ele>896.57000000000005</ele>
        <time>2017-06-03T06:52:59Z</time>
      </trkpt>
      <trkpt lat="46.124671697616577" lon="8.409784901887178">
        <ele>896.57000000000005</ele>
        <time>2017-06-03T06:53:09Z</time>
      </trkpt>
      <trkpt lat="46.124474387615919" lon="8.409733604639769">
        <ele>897.04999999999995</ele>
        <time>2017-06-03T06:53:23Z</time>
      </trkpt>
      <trkpt lat="46.124344300478697" lon="8.409774675965309">
        <ele>897.04999999999995</ele>
        <time>2017-06-03T06:53:38Z</time>
      </trkpt>
      <trkpt lat="46.124230474233627" lon="8.409843659028411">
        <ele>897.04999999999995</ele>
        <time>2017-06-03T06:53:51Z</time>
      </trkpt>
      <trkpt lat="46.12414849922061" lon="8.409795043990016">
        <ele>896.57000000000005</ele>
        <time>2017-06-03T06:54:04Z</time>
      </trkpt>
      <trkpt lat="46.124132992699742" lon="8.409850364550948">
        <ele>897.04999999999995</ele>
        <time>2017-06-03T06:54:16Z</time>
      </trkpt>
      <trkpt lat="46.124039450660348" lon="8.409715248271823">
        <ele>897.52999999999997</ele>
        <time>2017-06-03T06:54:29Z</time>
      </trkpt>
      <trkpt lat="46.1240454018116" lon="8.40961349196732">
        <ele>898.00999999999999</ele>
        <time>2017-06-03T06:54:41Z</time>
      </trkpt>
      <trkpt lat="46.124088736250997" lon="8.409541239961982">
        <ele>899.92999999999995</ele>
        <time>2017-06-03T06:54:52Z</time>
      </trkpt>
      <trkpt lat="46.124149421229959" lon="8.409487595781684">
        <ele>901.37</ele>
        <time>2017-06-03T06:55:02Z</time>
      </trkpt>
      <trkpt lat="46.124181943014264" lon="8.409498743712902">
        <ele>901.37</ele>
        <time>2017-06-03T06:55:05Z</time>
      </trkpt>
      <trkpt lat="46.124233324080706" lon="8.409436549991369">
        <ele>903.29999999999995</ele>
        <time>2017-06-03T06:55:18Z</time>
      </trkpt>
      <trkpt lat="46.124249752610922" lon="8.409414505586028">
        <ele>903.77999999999997</ele>
        <time>2017-06-03T06:55:21Z</time>
      </trkpt>
      <trkpt lat="46.124286381527781" lon="8.409390449523926">
        <ele>905.70000000000005</ele>
        <time>2017-06-03T06:55:29Z</time>
      </trkpt>
      <trkpt lat="46.124348072335124" lon="8.409334374591708">
        <ele>907.62</ele>
        <time>2017-06-03T06:55:38Z</time>
      </trkpt>
      <trkpt lat="46.124397860839963" lon="8.409290621057153">
        <ele>909.05999999999995</ele>
        <time>2017-06-03T06:55:49Z</time>
      </trkpt>
      <trkpt lat="46.124453600496054" lon="8.409160366281867">
        <ele>910.02999999999997</ele>
        <time>2017-06-03T06:56:00Z</time>
      </trkpt>
      <trkpt lat="46.124472040683031" lon="8.409075373783708">
        <ele>911.95000000000005</ele>
        <time>2017-06-03T06:56:10Z</time>
      </trkpt>
      <trkpt lat="46.124447314068675" lon="8.408954003825784">
        <ele>913.38999999999999</ele>
        <time>2017-06-03T06:56:20Z</time>
      </trkpt>
      <trkpt lat="46.124413283541799" lon="8.408912513405085">
        <ele>914.83000000000004</ele>
        <time>2017-06-03T06:56:31Z</time>
      </trkpt>
      <trkpt lat="46.124440776184201" lon="8.409004295244813">
        <ele>916.26999999999998</ele>
        <time>2017-06-03T06:56:38Z</time>
      </trkpt>
      <trkpt lat="46.124403057619929" lon="8.409050730988383">
        <ele>918.20000000000005</ele>
        <time>2017-06-03T06:56:50Z</time>
      </trkpt>
      <trkpt lat="46.124348994344473" lon="8.408975629135966">
        <ele>920.60000000000002</ele>
        <time>2017-06-03T06:57:01Z</time>
      </trkpt>
      <trkpt lat="46.124297361820936" lon="8.408952243626118">
        <ele>922.03999999999996</ele>
        <time>2017-06-03T06:57:10Z</time>
      </trkpt>
      <trkpt lat="46.124212620779872" lon="8.408916369080544">
        <ele>923.96000000000004</ele>
        <time>2017-06-03T06:57:20Z</time>
      </trkpt>
      <trkpt lat="46.124163838103414" lon="8.40887513011694">
        <ele>924.92999999999995</ele>
        <time>2017-06-03T06:57:30Z</time>
      </trkpt>
      <trkpt lat="46.124174064025283" lon="8.408958530053496">
        <ele>926.85000000000002</ele>
        <time>2017-06-03T06:57:40Z</time>
      </trkpt>
      <trkpt lat="46.124110780656338" lon="8.408910585567355">
        <ele>928.28999999999996</ele>
        <time>2017-06-03T06:57:50Z</time>
      </trkpt>
      <trkpt lat="46.12405177205801" lon="8.408909747377038">
        <ele>929.73000000000002</ele>
        <time>2017-06-03T06:57:59Z</time>
      </trkpt>
      <trkpt lat="46.124021932482719" lon="8.408993734046817">
        <ele>932.13999999999999</ele>
        <time>2017-06-03T06:58:11Z</time>
      </trkpt>
      <trkpt lat="46.124008018523455" lon="8.40903690084815">
        <ele>933.58000000000004</ele>
        <time>2017-06-03T06:58:20Z</time>
      </trkpt>
      <trkpt lat="46.124003157019615" lon="8.409098340198398">
        <ele>935.5</ele>
        <time>2017-06-03T06:58:31Z</time>
      </trkpt>
      <trkpt lat="46.123955044895411" lon="8.409080235287547">
        <ele>936.94000000000005</ele>
        <time>2017-06-03T06:58:41Z</time>
      </trkpt>
      <trkpt lat="46.123883128166199" lon="8.409043941646814">
        <ele>938.86000000000001</ele>
        <time>2017-06-03T06:58:52Z</time>
      </trkpt>
      <trkpt lat="46.123886900022626" lon="8.409098004922271">
        <ele>940.78999999999996</ele>
        <time>2017-06-03T06:59:02Z</time>
      </trkpt>
      <trkpt lat="46.123914895579219" lon="8.409198503941298">
        <ele>941.75</ele>
        <time>2017-06-03T06:59:14Z</time>
      </trkpt>
      <trkpt lat="46.123888744041324" lon="8.409302020445466">
        <ele>943.66999999999996</ele>
        <time>2017-06-03T06:59:24Z</time>
      </trkpt>
      <trkpt lat="46.123838536441326" lon="8.409342924132943">
        <ele>945.11000000000001</ele>
        <time>2017-06-03T06:59:34Z</time>
      </trkpt>
      <trkpt lat="46.123797465115786" lon="8.409267654642463">
        <ele>946.55999999999995</ele>
        <time>2017-06-03T06:59:43Z</time>
      </trkpt>
      <trkpt lat="46.123779444023967" lon="8.409356418997049">
        <ele>948.48000000000002</ele>
        <time>2017-06-03T06:59:54Z</time>
      </trkpt>
      <trkpt lat="46.123719597235322" lon="8.409336805343628">
        <ele>950.39999999999998</ele>
        <time>2017-06-03T07:00:04Z</time>
      </trkpt>
      <trkpt lat="46.12364667467773" lon="8.409308306872845">
        <ele>952.32000000000005</ele>
        <time>2017-06-03T07:00:17Z</time>
      </trkpt>
      <trkpt lat="46.123612895607948" lon="8.409275449812412">
        <ele>953.76999999999998</ele>
        <time>2017-06-03T07:00:26Z</time>
      </trkpt>
      <trkpt lat="46.123577859252691" lon="8.409275365993381">
        <ele>955.69000000000005</ele>
        <time>2017-06-03T07:00:40Z</time>
      </trkpt>
      <trkpt lat="46.12351574935019" lon="8.40924602933228">
        <ele>957.61000000000001</ele>
        <time>2017-06-03T07:00:53Z</time>
      </trkpt>
      <trkpt lat="46.123537626117468" lon="8.409307887777686">
        <ele>959.04999999999995</ele>
        <time>2017-06-03T07:01:03Z</time>
      </trkpt>
      <trkpt lat="46.12353184260428" lon="8.409372260794044">
        <ele>960.98000000000002</ele>
        <time>2017-06-03T07:01:13Z</time>
      </trkpt>
      <trkpt lat="46.123458249494433" lon="8.409316185861826">
        <ele>962.41999999999996</ele>
        <time>2017-06-03T07:01:24Z</time>
      </trkpt>
      <trkpt lat="46.123415501788259" lon="8.409290537238121">
        <ele>963.86000000000001</ele>
        <time>2017-06-03T07:01:34Z</time>
      </trkpt>
      <trkpt lat="46.123367641121149" lon="8.409210657700896">
        <ele>965.77999999999997</ele>
        <time>2017-06-03T07:01:45Z</time>
      </trkpt>
      <trkpt lat="46.123336795717478" lon="8.409242425113916">
        <ele>967.70000000000005</ele>
        <time>2017-06-03T07:01:57Z</time>
      </trkpt>
      <trkpt lat="46.123324474319816" lon="8.4093227237463">
        <ele>969.14999999999998</ele>
        <time>2017-06-03T07:02:08Z</time>
      </trkpt>
      <trkpt lat="46.123317684978247" lon="8.409407213330269">
        <ele>970.11000000000001</ele>
        <time>2017-06-03T07:02:19Z</time>
      </trkpt>
      <trkpt lat="46.123312991112471" lon="8.409481728449464">
        <ele>972.02999999999997</ele>
        <time>2017-06-03T07:02:30Z</time>
      </trkpt>
      <trkpt lat="46.123288683593273" lon="8.409545514732599">
        <ele>973.95000000000005</ele>
        <time>2017-06-03T07:02:39Z</time>
      </trkpt>
      <trkpt lat="46.123263370245695" lon="8.409571750089526">
        <ele>974.90999999999997</ele>
        <time>2017-06-03T07:02:44Z</time>
      </trkpt>
      <trkpt lat="46.123221460729837" lon="8.409591112285852">
        <ele>975.88</ele>
        <time>2017-06-03T07:02:50Z</time>
      </trkpt>
      <trkpt lat="46.12313118763268" lon="8.40961005538702">
        <ele>977.32000000000005</ele>
        <time>2017-06-03T07:03:00Z</time>
      </trkpt>
      <trkpt lat="46.123085087165236" lon="8.409543251618743">
        <ele>978.75999999999999</ele>
        <time>2017-06-03T07:03:08Z</time>
      </trkpt>
      <trkpt lat="46.123081231489778" lon="8.40946102514863">
        <ele>980.20000000000005</ele>
        <time>2017-06-03T07:03:22Z</time>
      </trkpt>
      <trkpt lat="46.123055750504136" lon="8.409403273835778">
        <ele>980.67999999999995</ele>
        <time>2017-06-03T07:03:32Z</time>
      </trkpt>
      <trkpt lat="46.123015768826008" lon="8.409316772595048">
        <ele>983.09000000000003</ele>
        <time>2017-06-03T07:03:43Z</time>
      </trkpt>
      <trkpt lat="46.122965896502137" lon="8.409239826723933">
        <ele>984.04999999999995</ele>
        <time>2017-06-03T07:03:53Z</time>
      </trkpt>
      <trkpt lat="46.122931614518166" lon="8.409120468422771">
        <ele>985.49000000000001</ele>
        <time>2017-06-03T07:04:05Z</time>
      </trkpt>
      <trkpt lat="46.122884592041373" lon="8.409046120941639">
        <ele>986.92999999999995</ele>
        <time>2017-06-03T07:04:14Z</time>
      </trkpt>
      <trkpt lat="46.122838659211993" lon="8.408996500074863">
        <ele>989.33000000000004</ele>
        <time>2017-06-03T07:04:26Z</time>
      </trkpt>
      <trkpt lat="46.122836228460073" lon="8.409062214195728">
        <ele>990.77999999999997</ele>
        <time>2017-06-03T07:04:35Z</time>
      </trkpt>
      <trkpt lat="46.122811418026686" lon="8.409153493121266">
        <ele>992.22000000000003</ele>
        <time>2017-06-03T07:04:44Z</time>
      </trkpt>
      <trkpt lat="46.122772442176938" lon="8.409217949956656">
        <ele>993.65999999999997</ele>
        <time>2017-06-03T07:04:54Z</time>
      </trkpt>
      <trkpt lat="46.122731538489461" lon="8.409286430105567">
        <ele>995.58000000000004</ele>
        <time>2017-06-03T07:05:05Z</time>
      </trkpt>
      <trkpt lat="46.122679905965924" lon="8.409292213618755">
        <ele>997.50999999999999</ele>
        <time>2017-06-03T07:05:14Z</time>
      </trkpt>
      <trkpt lat="46.122603463009" lon="8.40920252725482">
        <ele>999.42999999999995</ele>
        <time>2017-06-03T07:05:26Z</time>
      </trkpt>
      <trkpt lat="46.122558284550905" lon="8.409114349633455">
        <ele>1001.35</ele>
        <time>2017-06-03T07:05:38Z</time>
      </trkpt>
      <trkpt lat="46.122520649805665" lon="8.409066908061504">
        <ele>1002.79</ele>
        <time>2017-06-03T07:05:51Z</time>
      </trkpt>
      <trkpt lat="46.122463904321194" lon="8.408984765410423">
        <ele>1004.72</ele>
        <time>2017-06-03T07:06:02Z</time>
      </trkpt>
      <trkpt lat="46.12243490293622" lon="8.408936066552997">
        <ele>1007.12</ele>
        <time>2017-06-03T07:06:14Z</time>
      </trkpt>
      <trkpt lat="46.122425179928541" lon="8.409041007980704">
        <ele>1009.04</ele>
        <time>2017-06-03T07:06:25Z</time>
      </trkpt>
      <trkpt lat="46.122395256534219" lon="8.409126671031117">
        <ele>1010.48</ele>
        <time>2017-06-03T07:06:36Z</time>
      </trkpt>
      <trkpt lat="46.122374720871449" lon="8.409198839217424">
        <ele>1012.41</ele>
        <time>2017-06-03T07:06:47Z</time>
      </trkpt>
      <trkpt lat="46.122310096397996" lon="8.409127341583371">
        <ele>1014.33</ele>
        <time>2017-06-03T07:06:58Z</time>
      </trkpt>
      <trkpt lat="46.122243879362941" lon="8.409115858376026">
        <ele>1016.25</ele>
        <time>2017-06-03T07:07:09Z</time>
      </trkpt>
      <trkpt lat="46.122196605429053" lon="8.409146871417761">
        <ele>1017.6900000000001</ele>
        <time>2017-06-03T07:07:19Z</time>
      </trkpt>
      <trkpt lat="46.122155617922544" lon="8.409109739586711">
        <ele>1019.62</ele>
        <time>2017-06-03T07:07:28Z</time>
      </trkpt>
      <trkpt lat="46.122156791388988" lon="8.409060286357999">
        <ele>1020.1</ele>
        <time>2017-06-03T07:07:32Z</time>
      </trkpt>
      <trkpt lat="46.122112199664116" lon="8.408916033804417">
        <ele>1021.54</ele>
        <time>2017-06-03T07:07:42Z</time>
      </trkpt>
      <trkpt lat="46.122075654566288" lon="8.40883070603013">
        <ele>1022.5</ele>
        <time>2017-06-03T07:07:53Z</time>
      </trkpt>
      <trkpt lat="46.122022178024054" lon="8.408839758485556">
        <ele>1024.9000000000001</ele>
        <time>2017-06-03T07:08:05Z</time>
      </trkpt>
      <trkpt lat="46.122011533007026" lon="8.408916620537639">
        <ele>1026.8299999999999</ele>
        <time>2017-06-03T07:08:15Z</time>
      </trkpt>
      <trkpt lat="46.121954200789332" lon="8.408985519781709">
        <ele>1028.27</ele>
        <time>2017-06-03T07:08:25Z</time>
      </trkpt>
      <trkpt lat="46.121920589357615" lon="8.409034721553326">
        <ele>1030.1900000000001</ele>
        <time>2017-06-03T07:08:36Z</time>
      </trkpt>
      <trkpt lat="46.121883541345596" lon="8.40895283035934">
        <ele>1032.1099999999999</ele>
        <time>2017-06-03T07:08:46Z</time>
      </trkpt>
      <trkpt lat="46.121840374544263" lon="8.408834813162684">
        <ele>1033.0699999999999</ele>
        <time>2017-06-03T07:08:55Z</time>
      </trkpt>
      <trkpt lat="46.121764853596687" lon="8.408789550885558">
        <ele>1034.52</ele>
        <time>2017-06-03T07:09:05Z</time>
      </trkpt>
      <trkpt lat="46.121751442551613" lon="8.408852498978376">
        <ele>1036.4400000000001</ele>
        <time>2017-06-03T07:09:16Z</time>
      </trkpt>
      <trkpt lat="46.121712466701865" lon="8.408820815384388">
        <ele>1038.3599999999999</ele>
        <time>2017-06-03T07:09:26Z</time>
      </trkpt>
      <trkpt lat="46.121659493073821" lon="8.408814696595073">
        <ele>1039.8</ele>
        <time>2017-06-03T07:09:37Z</time>
      </trkpt>
      <trkpt lat="46.121625294908881" lon="8.408868173137307">
        <ele>1040.76</ele>
        <time>2017-06-03T07:09:46Z</time>
      </trkpt>
      <trkpt lat="46.121575171127915" lon="8.408881668001413">
        <ele>1042.21</ele>
        <time>2017-06-03T07:09:56Z</time>
      </trkpt>
      <trkpt lat="46.121514486148953" lon="8.408920392394066">
        <ele>1043.1700000000001</ele>
        <time>2017-06-03T07:10:05Z</time>
      </trkpt>
      <trkpt lat="46.121461931616068" lon="8.408961882814765">
        <ele>1044.6099999999999</ele>
        <time>2017-06-03T07:10:14Z</time>
      </trkpt>
      <trkpt lat="46.121408622711897" lon="8.409013515338302">
        <ele>1046.53</ele>
        <time>2017-06-03T07:10:25Z</time>
      </trkpt>
      <trkpt lat="46.121353134512901" lon="8.408972779288888">
        <ele>1048.9400000000001</ele>
        <time>2017-06-03T07:10:34Z</time>
      </trkpt>
      <trkpt lat="46.121318684890866" lon="8.40891670435667">
        <ele>1050.3800000000001</ele>
        <time>2017-06-03T07:10:45Z</time>
      </trkpt>
      <trkpt lat="46.121268393471837" lon="8.408871022984386">
        <ele>1051.8199999999999</ele>
        <time>2017-06-03T07:10:54Z</time>
      </trkpt>
      <trkpt lat="46.121241571381688" lon="8.408832214772701">
        <ele>1053.74</ele>
        <time>2017-06-03T07:11:04Z</time>
      </trkpt>
      <trkpt lat="46.121230758726597" lon="8.408793238922954">
        <ele>1055.1800000000001</ele>
        <time>2017-06-03T07:11:14Z</time>
      </trkpt>
      <trkpt lat="46.12124852836132" lon="8.408757783472538">
        <ele>1055.6700000000001</ele>
        <time>2017-06-03T07:11:26Z</time>
      </trkpt>
      <trkpt lat="46.121238553896546" lon="8.408722830936313">
        <ele>1055.1800000000001</ele>
        <time>2017-06-03T07:11:42Z</time>
      </trkpt>
      <trkpt lat="46.121222376823425" lon="8.408677317202091">
        <ele>1056.1500000000001</ele>
        <time>2017-06-03T07:12:05Z</time>
      </trkpt>
      <trkpt lat="46.121163535863161" lon="8.408678574487567">
        <ele>1059.03</ele>
        <time>2017-06-03T07:12:15Z</time>
      </trkpt>
      <trkpt lat="46.1211097240448" lon="8.408656446263194">
        <ele>1060.47</ele>
        <time>2017-06-03T07:12:25Z</time>
      </trkpt>
      <trkpt lat="46.121068317443132" lon="8.4086181409657">
        <ele>1062.8699999999999</ele>
        <time>2017-06-03T07:12:35Z</time>
      </trkpt>
      <trkpt lat="46.121053984388709" lon="8.408518815413117">
        <ele>1064.3199999999999</ele>
        <time>2017-06-03T07:12:44Z</time>
      </trkpt>
      <trkpt lat="46.120998999103904" lon="8.40852920897305">
        <ele>1066.24</ele>
        <time>2017-06-03T07:12:55Z</time>
      </trkpt>
      <trkpt lat="46.120958514511585" lon="8.408407755196095">
        <ele>1068.6400000000001</ele>
        <time>2017-06-03T07:13:06Z</time>
      </trkpt>
      <trkpt lat="46.120933201164007" lon="8.408355200663209">
        <ele>1070.0799999999999</ele>
        <time>2017-06-03T07:13:15Z</time>
      </trkpt>
      <trkpt lat="46.120901266112924" lon="8.408260401338339">
        <ele>1072.01</ele>
        <time>2017-06-03T07:13:27Z</time>
      </trkpt>
      <trkpt lat="46.120898332446814" lon="8.408202063292265">
        <ele>1073.45</ele>
        <time>2017-06-03T07:13:36Z</time>
      </trkpt>
      <trkpt lat="46.120837898924947" lon="8.408128386363387">
        <ele>1074.8900000000001</ele>
        <time>2017-06-03T07:13:47Z</time>
      </trkpt>
      <trkpt lat="46.120775369927287" lon="8.408104497939348">
        <ele>1077.78</ele>
        <time>2017-06-03T07:13:59Z</time>
      </trkpt>
      <trkpt lat="46.120719378814101" lon="8.408079268410802">
        <ele>1079.7</ele>
        <time>2017-06-03T07:14:11Z</time>
      </trkpt>
      <trkpt lat="46.120672021061182" lon="8.408143054693937">
        <ele>1081.6199999999999</ele>
        <time>2017-06-03T07:14:23Z</time>
      </trkpt>
      <trkpt lat="46.120645198971033" lon="8.408028222620487">
        <ele>1083.54</ele>
        <time>2017-06-03T07:14:35Z</time>
      </trkpt>
      <trkpt lat="46.120590129867196" lon="8.407925544306636">
        <ele>1085.47</ele>
        <time>2017-06-03T07:14:46Z</time>
      </trkpt>
      <trkpt lat="46.120554422959685" lon="8.407850777730346">
        <ele>1086.9100000000001</ele>
        <time>2017-06-03T07:14:57Z</time>
      </trkpt>
      <trkpt lat="46.120515028014779" lon="8.407881371676922">
        <ele>1089.3099999999999</ele>
        <time>2017-06-03T07:15:08Z</time>
      </trkpt>
      <trkpt lat="46.120464904233813" lon="8.407907607033849">
        <ele>1091.23</ele>
        <time>2017-06-03T07:15:19Z</time>
      </trkpt>
      <trkpt lat="46.120397429913282" lon="8.407924035564065">
        <ele>1093.6400000000001</ele>
        <time>2017-06-03T07:15:32Z</time>
      </trkpt>
      <trkpt lat="46.120350491255522" lon="8.407872403040528">
        <ele>1095.5599999999999</ele>
        <time>2017-06-03T07:15:42Z</time>
      </trkpt>
      <trkpt lat="46.120306067168713" lon="8.407810041680932">
        <ele>1097.48</ele>
        <time>2017-06-03T07:15:51Z</time>
      </trkpt>
      <trkpt lat="46.120262565091252" lon="8.407709123566747">
        <ele>1099.4000000000001</ele>
        <time>2017-06-03T07:16:03Z</time>
      </trkpt>
      <trkpt lat="46.120252590626478" lon="8.407762432470918">
        <ele>1100.8499999999999</ele>
        <time>2017-06-03T07:16:15Z</time>
      </trkpt>
      <trkpt lat="46.12021847628057" lon="8.407817501574755">
        <ele>1103.25</ele>
        <time>2017-06-03T07:16:25Z</time>
      </trkpt>
      <trkpt lat="46.12020674161613" lon="8.407901236787438">
        <ele>1105.1700000000001</ele>
        <time>2017-06-03T07:16:37Z</time>
      </trkpt>
      <trkpt lat="46.12016617320478" lon="8.407960245385766">
        <ele>1106.6099999999999</ele>
        <time>2017-06-03T07:16:46Z</time>
      </trkpt>
      <trkpt lat="46.120122838765383" lon="8.408054457977414">
        <ele>1108.54</ele>
        <time>2017-06-03T07:16:57Z</time>
      </trkpt>
      <trkpt lat="46.120091238990426" lon="8.408118579536676">
        <ele>1110.46</ele>
        <time>2017-06-03T07:17:07Z</time>
      </trkpt>
      <trkpt lat="46.120040947571397" lon="8.408206002786756">
        <ele>1111.9000000000001</ele>
        <time>2017-06-03T07:17:17Z</time>
      </trkpt>
      <trkpt lat="46.119997361674905" lon="8.408244559541345">
        <ele>1113.3399999999999</ele>
        <time>2017-06-03T07:17:26Z</time>
      </trkpt>
      <trkpt lat="46.119946567341685" lon="8.408137522637844">
        <ele>1115.75</ele>
        <time>2017-06-03T07:17:36Z</time>
      </trkpt>
      <trkpt lat="46.11990381963551" lon="8.408037107437849">
        <ele>1118.1500000000001</ele>
        <time>2017-06-03T07:17:50Z</time>
      </trkpt>
      <trkpt lat="46.119889821857214" lon="8.40793845243752">
        <ele>1120.0699999999999</ele>
        <time>2017-06-03T07:18:03Z</time>
      </trkpt>
      <trkpt lat="46.119844391942024" lon="8.407859075814486">
        <ele>1121.52</ele>
        <time>2017-06-03T07:18:15Z</time>
      </trkpt>
      <trkpt lat="46.119823437184095" lon="8.407826386392117">
        <ele>1122.48</ele>
        <time>2017-06-03T07:18:26Z</time>
      </trkpt>
      <trkpt lat="46.119808265939355" lon="8.407884389162064">
        <ele>1122.96</ele>
        <time>2017-06-03T07:18:50Z</time>
      </trkpt>
      <trkpt lat="46.119803991168737" lon="8.407738627865911">
        <ele>1123.9200000000001</ele>
        <time>2017-06-03T07:19:02Z</time>
      </trkpt>
      <trkpt lat="46.119755292311311" lon="8.407717337831855">
        <ele>1125.3599999999999</ele>
        <time>2017-06-03T07:19:10Z</time>
      </trkpt>
      <trkpt lat="46.119723357260227" lon="8.40774692595005">
        <ele>1127.28</ele>
        <time>2017-06-03T07:19:20Z</time>
      </trkpt>
      <trkpt lat="46.119710616767406" lon="8.407671237364411">
        <ele>1128.73</ele>
        <time>2017-06-03T07:19:29Z</time>
      </trkpt>
      <trkpt lat="46.119656385853887" lon="8.407629244029522">
        <ele>1131.1300000000001</ele>
        <time>2017-06-03T07:19:40Z</time>
      </trkpt>
      <trkpt lat="46.119627552106977" lon="8.40768531896174">
        <ele>1132.5699999999999</ele>
        <time>2017-06-03T07:19:51Z</time>
      </trkpt>
      <trkpt lat="46.119582122191787" lon="8.407767796888948">
        <ele>1134.97</ele>
        <time>2017-06-03T07:20:02Z</time>
      </trkpt>
      <trkpt lat="46.119551863521338" lon="8.407780788838863">
        <ele>1136.9000000000001</ele>
        <time>2017-06-03T07:20:13Z</time>
      </trkpt>
      <trkpt lat="46.119514899328351" lon="8.407690431922674">
        <ele>1139.3</ele>
        <time>2017-06-03T07:20:26Z</time>
      </trkpt>
      <trkpt lat="46.119448347017169" lon="8.407698730006814">
        <ele>1140.74</ele>
        <time>2017-06-03T07:20:36Z</time>
      </trkpt>
      <trkpt lat="46.119410544633865" lon="8.407763103023171">
        <ele>1142.6600000000001</ele>
        <time>2017-06-03T07:20:48Z</time>
      </trkpt>
      <trkpt lat="46.119373831897974" lon="8.407836277037859">
        <ele>1145.0699999999999</ele>
        <time>2017-06-03T07:20:59Z</time>
      </trkpt>
      <trkpt lat="46.119341058656573" lon="8.407871732488275">
        <ele>1146.99</ele>
        <time>2017-06-03T07:21:09Z</time>
      </trkpt>
      <trkpt lat="46.119286073371768" lon="8.407815573737025">
        <ele>1148.9100000000001</ele>
        <time>2017-06-03T07:21:19Z</time>
      </trkpt>
      <trkpt lat="46.119240308180451" lon="8.407721444964409">
        <ele>1151.3199999999999</ele>
        <time>2017-06-03T07:21:29Z</time>
      </trkpt>
      <trkpt lat="46.119219018146396" lon="8.407683810219169">
        <ele>1153.24</ele>
        <time>2017-06-03T07:21:39Z</time>
      </trkpt>
      <trkpt lat="46.119176186621189" lon="8.407613486051559">
        <ele>1155.1600000000001</ele>
        <time>2017-06-03T07:21:50Z</time>
      </trkpt>
      <trkpt lat="46.119149113073945" lon="8.407560009509325">
        <ele>1156.5999999999999</ele>
        <time>2017-06-03T07:22:01Z</time>
      </trkpt>
      <trkpt lat="46.119100917130709" lon="8.407493038102984">
        <ele>1158.53</ele>
        <time>2017-06-03T07:22:12Z</time>
      </trkpt>
      <trkpt lat="46.11910343170166" lon="8.407483398914337">
        <ele>1160.9300000000001</ele>
        <time>2017-06-03T07:22:22Z</time>
      </trkpt>
      <trkpt lat="46.119095887988806" lon="8.407592782750726">
        <ele>1160.9300000000001</ele>
        <time>2017-06-03T07:22:34Z</time>
      </trkpt>
      <trkpt lat="46.119101420044899" lon="8.407697388902307">
        <ele>1161.4100000000001</ele>
        <time>2017-06-03T07:22:43Z</time>
      </trkpt>
      <trkpt lat="46.119102844968438" lon="8.40776695869863">
        <ele>1164.77</ele>
        <time>2017-06-03T07:22:49Z</time>
      </trkpt>
      <trkpt lat="46.119101671501994" lon="8.407774167135358">
        <ele>1164.77</ele>
        <time>2017-06-03T07:22:50Z</time>
      </trkpt>
      <trkpt lat="46.119128158316016" lon="8.407865362241864">
        <ele>1166.22</ele>
        <time>2017-06-03T07:22:59Z</time>
      </trkpt>
      <trkpt lat="46.119136372581124" lon="8.408014643937349">
        <ele>1167.1800000000001</ele>
        <time>2017-06-03T07:23:10Z</time>
      </trkpt>
      <trkpt lat="46.119136707857251" lon="8.408033084124327">
        <ele>1167.1800000000001</ele>
        <time>2017-06-03T07:23:11Z</time>
      </trkpt>
      <trkpt lat="46.119145005941391" lon="8.408067701384425">
        <ele>1167.6600000000001</ele>
        <time>2017-06-03T07:23:13Z</time>
      </trkpt>
      <trkpt lat="46.119137965142727" lon="8.408245984464884">
        <ele>1167.6600000000001</ele>
        <time>2017-06-03T07:23:24Z</time>
      </trkpt>
      <trkpt lat="46.119138468056917" lon="8.408383699133992">
        <ele>1168.6199999999999</ele>
        <time>2017-06-03T07:23:34Z</time>
      </trkpt>
      <trkpt lat="46.119097899645567" lon="8.40852577239275">
        <ele>1170.0599999999999</ele>
        <time>2017-06-03T07:23:45Z</time>
      </trkpt>
      <trkpt lat="46.119050625711679" lon="8.408602047711611">
        <ele>1171.02</ele>
        <time>2017-06-03T07:23:54Z</time>
      </trkpt>
      <trkpt lat="46.119042914360762" lon="8.408609926700592">
        <ele>1171.5</ele>
        <time>2017-06-03T07:23:55Z</time>
      </trkpt>
      <trkpt lat="46.118967477232218" lon="8.408653093501926">
        <ele>1172.95</ele>
        <time>2017-06-03T07:24:05Z</time>
      </trkpt>
      <trkpt lat="46.118909390643239" lon="8.408642951399088">
        <ele>1174.8699999999999</ele>
        <time>2017-06-03T07:24:15Z</time>
      </trkpt>
      <trkpt lat="46.118866475299001" lon="8.408579081296921">
        <ele>1175.8299999999999</ele>
        <time>2017-06-03T07:24:23Z</time>
      </trkpt>
      <trkpt lat="46.118843760341406" lon="8.408472798764706">
        <ele>1176.79</ele>
        <time>2017-06-03T07:24:31Z</time>
      </trkpt>
      <trkpt lat="46.118816183879972" lon="8.408407336100936">
        <ele>1178.23</ele>
        <time>2017-06-03T07:24:39Z</time>
      </trkpt>
      <trkpt lat="46.118800677359104" lon="8.408322930335999">
        <ele>1179.6700000000001</ele>
        <time>2017-06-03T07:24:50Z</time>
      </trkpt>
      <trkpt lat="46.118797911331058" lon="8.408235255628824">
        <ele>1181.5999999999999</ele>
        <time>2017-06-03T07:25:00Z</time>
      </trkpt>
      <trkpt lat="46.118788523599505" lon="8.408144731074572">
        <ele>1182.5599999999999</ele>
        <time>2017-06-03T07:25:10Z</time>
      </trkpt>
      <trkpt lat="46.118778213858604" lon="8.408104330301285">
        <ele>1184.48</ele>
        <time>2017-06-03T07:25:19Z</time>
      </trkpt>
      <trkpt lat="46.118746697902679" lon="8.408045740798116">
        <ele>1185.4400000000001</ele>
        <time>2017-06-03T07:25:28Z</time>
      </trkpt>
      <trkpt lat="46.118714595213532" lon="8.407959239557385">
        <ele>1185.9200000000001</ele>
        <time>2017-06-03T07:25:36Z</time>
      </trkpt>
      <trkpt lat="46.118702106177807" lon="8.407839881256223">
        <ele>1187.8499999999999</ele>
        <time>2017-06-03T07:25:46Z</time>
      </trkpt>
      <trkpt lat="46.118691964074969" lon="8.407742148265243">
        <ele>1189.29</ele>
        <time>2017-06-03T07:25:55Z</time>
      </trkpt>
      <trkpt lat="46.118646366521716" lon="8.407664950937033">
        <ele>1190.73</ele>
        <time>2017-06-03T07:26:05Z</time>
      </trkpt>
      <trkpt lat="46.11862507648766" lon="8.407549699768424">
        <ele>1192.1700000000001</ele>
        <time>2017-06-03T07:26:15Z</time>
      </trkpt>
      <trkpt lat="46.118600349873304" lon="8.407450038939714">
        <ele>1193.6099999999999</ele>
        <time>2017-06-03T07:26:26Z</time>
      </trkpt>
      <trkpt lat="46.118588699027896" lon="8.407378122210503">
        <ele>1194.5799999999999</ele>
        <time>2017-06-03T07:26:35Z</time>
      </trkpt>
      <trkpt lat="46.118560200557113" lon="8.407281897962093">
        <ele>1196.02</ele>
        <time>2017-06-03T07:26:46Z</time>
      </trkpt>
      <trkpt lat="46.118534216657281" lon="8.40717519633472">
        <ele>1196.98</ele>
        <time>2017-06-03T07:26:57Z</time>
      </trkpt>
      <trkpt lat="46.118496665731072" lon="8.407130353152752">
        <ele>1197.9400000000001</ele>
        <time>2017-06-03T07:27:06Z</time>
      </trkpt>
      <trkpt lat="46.118458025157452" lon="8.407174861058593">
        <ele>1199.8599999999999</ele>
        <time>2017-06-03T07:27:15Z</time>
      </trkpt>
      <trkpt lat="46.118396585807204" lon="8.407236803323031">
        <ele>1201.79</ele>
        <time>2017-06-03T07:27:27Z</time>
      </trkpt>
      <trkpt lat="46.118361549451947" lon="8.40717033483088">
        <ele>1203.23</ele>
        <time>2017-06-03T07:27:38Z</time>
      </trkpt>
      <trkpt lat="46.118334056809545" lon="8.407115852460265">
        <ele>1204.6700000000001</ele>
        <time>2017-06-03T07:27:48Z</time>
      </trkpt>
      <trkpt lat="46.118284184485674" lon="8.407072769477963">
        <ele>1206.5899999999999</ele>
        <time>2017-06-03T07:27:59Z</time>
      </trkpt>
      <trkpt lat="46.118239173665643" lon="8.407059526070952">
        <ele>1208.51</ele>
        <time>2017-06-03T07:28:09Z</time>
      </trkpt>
      <trkpt lat="46.118239006027579" lon="8.407130856066942">
        <ele>1209.96</ele>
        <time>2017-06-03T07:28:21Z</time>
      </trkpt>
      <trkpt lat="46.118196761235595" lon="8.407149463891983">
        <ele>1211.8800000000001</ele>
        <time>2017-06-03T07:28:34Z</time>
      </trkpt>
      <trkpt lat="46.11810908652842" lon="8.407093053683639">
        <ele>1213.8</ele>
        <time>2017-06-03T07:28:46Z</time>
      </trkpt>
      <trkpt lat="46.118063572794199" lon="8.407130436971784">
        <ele>1215.24</ele>
        <time>2017-06-03T07:28:58Z</time>
      </trkpt>
      <trkpt lat="46.118053682148457" lon="8.407186344265938">
        <ele>1216.6900000000001</ele>
        <time>2017-06-03T07:29:09Z</time>
      </trkpt>
      <trkpt lat="46.118000540882349" lon="8.40725532732904">
        <ele>1217.6500000000001</ele>
        <time>2017-06-03T07:29:19Z</time>
      </trkpt>
      <trkpt lat="46.117925522848964" lon="8.407316179946065">
        <ele>1218.6099999999999</ele>
        <time>2017-06-03T07:29:29Z</time>
      </trkpt>
      <trkpt lat="46.117887971922755" lon="8.407285334542394">
        <ele>1220.05</ele>
        <time>2017-06-03T07:29:38Z</time>
      </trkpt>
      <trkpt lat="46.11786425113678" lon="8.407213166356087">
        <ele>1221.49</ele>
        <time>2017-06-03T07:29:48Z</time>
      </trkpt>
      <trkpt lat="46.117827454581857" lon="8.407245939597487">
        <ele>1222.9300000000001</ele>
        <time>2017-06-03T07:30:00Z</time>
      </trkpt>
      <trkpt lat="46.117839943617582" lon="8.407349288463593">
        <ele>1224.8599999999999</ele>
        <time>2017-06-03T07:30:11Z</time>
      </trkpt>
      <trkpt lat="46.117817312479019" lon="8.407419277355075">
        <ele>1226.3</ele>
        <time>2017-06-03T07:30:21Z</time>
      </trkpt>
      <trkpt lat="46.117784874513745" lon="8.40750846080482">
        <ele>1227.26</ele>
        <time>2017-06-03T07:30:33Z</time>
      </trkpt>
      <trkpt lat="46.117769367992878" lon="8.407586747780442">
        <ele>1229.6600000000001</ele>
        <time>2017-06-03T07:30:44Z</time>
      </trkpt>
      <trkpt lat="46.117739025503397" lon="8.407667716965079">
        <ele>1230.6199999999999</ele>
        <time>2017-06-03T07:30:58Z</time>
      </trkpt>
      <trkpt lat="46.117754029110074" lon="8.407721361145377">
        <ele>1231.5899999999999</ele>
        <time>2017-06-03T07:31:08Z</time>
      </trkpt>
      <trkpt lat="46.117742378264666" lon="8.407787661999464">
        <ele>1233.03</ele>
        <time>2017-06-03T07:31:16Z</time>
      </trkpt>
      <trkpt lat="46.117711197584867" lon="8.407854801043868">
        <ele>1234.95</ele>
        <time>2017-06-03T07:31:29Z</time>
      </trkpt>
      <trkpt lat="46.117667779326439" lon="8.407895537093282">
        <ele>1236.3900000000001</ele>
        <time>2017-06-03T07:31:40Z</time>
      </trkpt>
      <trkpt lat="46.117633664980531" lon="8.407894531264901">
        <ele>1237.8299999999999</ele>
        <time>2017-06-03T07:31:51Z</time>
      </trkpt>
      <trkpt lat="46.117611452937126" lon="8.407974494621158">
        <ele>1239.28</ele>
        <time>2017-06-03T07:32:04Z</time>
      </trkpt>
      <trkpt lat="46.117554288357496" lon="8.407924454659224">
        <ele>1240.72</ele>
        <time>2017-06-03T07:32:19Z</time>
      </trkpt>
      <trkpt lat="46.117537692189217" lon="8.40791791677475">
        <ele>1242.1600000000001</ele>
        <time>2017-06-03T07:32:23Z</time>
      </trkpt>
      <trkpt lat="46.11750416457653" lon="8.407935267314315">
        <ele>1244.0799999999999</ele>
        <time>2017-06-03T07:32:31Z</time>
      </trkpt>
      <trkpt lat="46.117487149313092" lon="8.408017745241523">
        <ele>1246.01</ele>
        <time>2017-06-03T07:32:43Z</time>
      </trkpt>
      <trkpt lat="46.117426045238972" lon="8.408120675012469">
        <ele>1247.9300000000001</ele>
        <time>2017-06-03T07:32:55Z</time>
      </trkpt>
      <trkpt lat="46.11741816624999" lon="8.408215390518308">
        <ele>1249.3699999999999</ele>
        <time>2017-06-03T07:33:06Z</time>
      </trkpt>
      <trkpt lat="46.117393104359508" lon="8.408318823203445">
        <ele>1251.29</ele>
        <time>2017-06-03T07:33:18Z</time>
      </trkpt>
      <trkpt lat="46.117341974750161" lon="8.408380765467882">
        <ele>1253.22</ele>
        <time>2017-06-03T07:33:29Z</time>
      </trkpt>
      <trkpt lat="46.117296628654003" lon="8.408422423526645">
        <ele>1256.5799999999999</ele>
        <time>2017-06-03T07:33:42Z</time>
      </trkpt>
      <trkpt lat="46.117246504873037" lon="8.408382358029485">
        <ele>1257.54</ele>
        <time>2017-06-03T07:33:55Z</time>
      </trkpt>
      <trkpt lat="46.117232674732804" lon="8.408471960574389">
        <ele>1258.98</ele>
        <time>2017-06-03T07:34:06Z</time>
      </trkpt>
      <trkpt lat="46.117218174040318" lon="8.408552762120962">
        <ele>1260.9100000000001</ele>
        <time>2017-06-03T07:34:16Z</time>
      </trkpt>
      <trkpt lat="46.117158159613609" lon="8.408648986369371">
        <ele>1262.8299999999999</ele>
        <time>2017-06-03T07:34:26Z</time>
      </trkpt>
      <trkpt lat="46.11713720485568" lon="8.408721657469869">
        <ele>1264.27</ele>
        <time>2017-06-03T07:34:36Z</time>
      </trkpt>
      <trkpt lat="46.11708540469408" lon="8.40878670103848">
        <ele>1265.71</ele>
        <time>2017-06-03T07:34:45Z</time>
      </trkpt>
      <trkpt lat="46.117028156295419" lon="8.408830957487226">
        <ele>1266.6700000000001</ele>
        <time>2017-06-03T07:34:54Z</time>
      </trkpt>
      <trkpt lat="46.1169617716223" lon="8.408856941387057">
        <ele>1268.1199999999999</ele>
        <time>2017-06-03T07:35:03Z</time>
      </trkpt>
      <trkpt lat="46.116902511566877" lon="8.408896839246154">
        <ele>1269.5599999999999</ele>
        <time>2017-06-03T07:35:14Z</time>
      </trkpt>
      <trkpt lat="46.116840736940503" lon="8.408928774297237">
        <ele>1270.52</ele>
        <time>2017-06-03T07:35:23Z</time>
      </trkpt>
      <trkpt lat="46.116819866001606" lon="8.408948555588722">
        <ele>1271.96</ele>
        <time>2017-06-03T07:35:29Z</time>
      </trkpt>
      <trkpt lat="46.116794887930155" lon="8.408979317173362">
        <ele>1272.4400000000001</ele>
        <time>2017-06-03T07:35:38Z</time>
      </trkpt>
      <trkpt lat="46.11673847772181" lon="8.409030949696899">
        <ele>1274.3599999999999</ele>
        <time>2017-06-03T07:35:50Z</time>
      </trkpt>
      <trkpt lat="46.116685168817639" lon="8.409075876697898">
        <ele>1275.8099999999999</ele>
        <time>2017-06-03T07:36:01Z</time>
      </trkpt>
      <trkpt lat="46.116631608456373" lon="8.409125581383705">
        <ele>1277.73</ele>
        <time>2017-06-03T07:36:11Z</time>
      </trkpt>
      <trkpt lat="46.116566732525826" lon="8.409168161451817">
        <ele>1278.6900000000001</ele>
        <time>2017-06-03T07:36:19Z</time>
      </trkpt>
      <trkpt lat="46.116509651765227" lon="8.409190876409411">
        <ele>1280.6099999999999</ele>
        <time>2017-06-03T07:36:28Z</time>
      </trkpt>
      <trkpt lat="46.116450056433678" lon="8.409201186150312">
        <ele>1281.5699999999999</ele>
        <time>2017-06-03T07:36:35Z</time>
      </trkpt>
      <trkpt lat="46.116423066705465" lon="8.409175118431449">
        <ele>1282.54</ele>
        <time>2017-06-03T07:36:39Z</time>
      </trkpt>
      <trkpt lat="46.116397753357887" lon="8.409207640215755">
        <ele>1283.98</ele>
        <time>2017-06-03T07:36:47Z</time>
      </trkpt>
      <trkpt lat="46.116345701739192" lon="8.409239742904902">
        <ele>1284.9400000000001</ele>
        <time>2017-06-03T07:36:56Z</time>
      </trkpt>
      <trkpt lat="46.116310330107808" lon="8.40928508900106">
        <ele>1284.9400000000001</ele>
        <time>2017-06-03T07:37:05Z</time>
      </trkpt>
      <trkpt lat="46.116294739767909" lon="8.409267487004399">
        <ele>1284.46</ele>
        <time>2017-06-03T07:37:19Z</time>
      </trkpt>
      <trkpt lat="46.116292476654053" lon="8.409248208627105">
        <ele>1284.46</ele>
        <time>2017-06-03T07:37:40Z</time>
      </trkpt>
      <trkpt lat="46.11629038117826" lon="8.40923429466784">
        <ele>1284.9400000000001</ele>
        <time>2017-06-03T07:38:03Z</time>
      </trkpt>
      <trkpt lat="46.116320053115487" lon="8.409273941069841">
        <ele>1285.9000000000001</ele>
        <time>2017-06-03T07:38:20Z</time>
      </trkpt>
      <trkpt lat="46.116361543536186" lon="8.409312497824431">
        <ele>1284.9400000000001</ele>
        <time>2017-06-03T07:38:28Z</time>
      </trkpt>
      <trkpt lat="46.116365315392613" lon="8.409285340458155">
        <ele>1283.98</ele>
        <time>2017-06-03T07:38:36Z</time>
      </trkpt>
      <trkpt lat="46.116305887699127" lon="8.40930218808353">
        <ele>1284.46</ele>
        <time>2017-06-03T07:38:56Z</time>
      </trkpt>
      <trkpt lat="46.116328686475754" lon="8.409280562773347">
        <ele>1284.46</ele>
        <time>2017-06-03T07:39:14Z</time>
      </trkpt>
      <trkpt lat="46.116363052278757" lon="8.409269247204065">
        <ele>1284.46</ele>
        <time>2017-06-03T07:39:36Z</time>
      </trkpt>
      <trkpt lat="46.116341510787606" lon="8.409221218898892">
        <ele>1285.4200000000001</ele>
        <time>2017-06-03T07:39:50Z</time>
      </trkpt>
      <trkpt lat="46.116311755031347" lon="8.409211579710245">
        <ele>1285.9000000000001</ele>
        <time>2017-06-03T07:40:02Z</time>
      </trkpt>
      <trkpt lat="46.116312257945538" lon="8.409265810623765">
        <ele>1285.4200000000001</ele>
        <time>2017-06-03T07:40:21Z</time>
      </trkpt>
      <trkpt lat="46.116325668990612" lon="8.409287519752979">
        <ele>1285.4200000000001</ele>
        <time>2017-06-03T07:40:32Z</time>
      </trkpt>
      <trkpt lat="46.116368751972914" lon="8.409334626048803">
        <ele>1285.9000000000001</ele>
        <time>2017-06-03T07:40:51Z</time>
      </trkpt>
      <trkpt lat="46.116349054500461" lon="8.409261703491211">
        <ele>1285.9000000000001</ele>
        <time>2017-06-03T07:41:07Z</time>
      </trkpt>
      <trkpt lat="46.116350563243032" lon="8.409278802573681">
        <ele>1286.3800000000001</ele>
        <time>2017-06-03T07:41:27Z</time>
      </trkpt>
      <trkpt lat="46.116335140541196" lon="8.409295734018087">
        <ele>1286.8599999999999</ele>
        <time>2017-06-03T07:41:49Z</time>
      </trkpt>
      <trkpt lat="46.116346204653382" lon="8.409326579421759">
        <ele>1286.8599999999999</ele>
        <time>2017-06-03T07:42:07Z</time>
      </trkpt>
      <trkpt lat="46.116319550201297" lon="8.409355832263827">
        <ele>1286.8599999999999</ele>
        <time>2017-06-03T07:42:27Z</time>
      </trkpt>
      <trkpt lat="46.116288956254721" lon="8.409330351278186">
        <ele>1287.3399999999999</ele>
        <time>2017-06-03T07:42:50Z</time>
      </trkpt>
      <trkpt lat="46.116296667605639" lon="8.40929489582777">
        <ele>1287.8199999999999</ele>
        <time>2017-06-03T07:43:14Z</time>
      </trkpt>
      <trkpt lat="46.116272611543536" lon="8.409288357943296">
        <ele>1287.8199999999999</ele>
        <time>2017-06-03T07:43:36Z</time>
      </trkpt>
      <trkpt lat="46.116305300965905" lon="8.409348204731941">
        <ele>1288.3</ele>
        <time>2017-06-03T07:43:58Z</time>
      </trkpt>
      <trkpt lat="46.116348719224334" lon="8.409316353499889">
        <ele>1288.78</ele>
        <time>2017-06-03T07:44:22Z</time>
      </trkpt>
      <trkpt lat="46.116327177733183" lon="8.409359604120255">
        <ele>1289.27</ele>
        <time>2017-06-03T07:44:53Z</time>
      </trkpt>
      <trkpt lat="46.116324076429009" lon="8.409347198903561">
        <ele>1289.75</ele>
        <time>2017-06-03T07:45:14Z</time>
      </trkpt>
      <trkpt lat="46.116345198825002" lon="8.409317024052143">
        <ele>1289.27</ele>
        <time>2017-06-03T07:45:26Z</time>
      </trkpt>
      <trkpt lat="46.116331201046705" lon="8.409258099272847">
        <ele>1289.75</ele>
        <time>2017-06-03T07:45:51Z</time>
      </trkpt>
      <trkpt lat="46.116289710626006" lon="8.409284083172679">
        <ele>1290.71</ele>
        <time>2017-06-03T07:46:11Z</time>
      </trkpt>
      <trkpt lat="46.116299349814653" lon="8.409319957718253">
        <ele>1291.1900000000001</ele>
        <time>2017-06-03T07:46:26Z</time>
      </trkpt>
      <trkpt lat="46.11633094958961" lon="8.409315682947636">
        <ele>1291.1900000000001</ele>
        <time>2017-06-03T07:46:34Z</time>
      </trkpt>
      <trkpt lat="46.116347126662731" lon="8.40927972458303">
        <ele>1291.6700000000001</ele>
        <time>2017-06-03T07:46:41Z</time>
      </trkpt>
      <trkpt lat="46.116327932104468" lon="8.409268073737621">
        <ele>1292.6300000000001</ele>
        <time>2017-06-03T07:46:59Z</time>
      </trkpt>
      <trkpt lat="46.116289962083101" lon="8.409242508932948">
        <ele>1291.6700000000001</ele>
        <time>2017-06-03T07:47:15Z</time>
      </trkpt>
      <trkpt lat="46.116294907405972" lon="8.409212669357657">
        <ele>1293.1099999999999</ele>
        <time>2017-06-03T07:47:29Z</time>
      </trkpt>
      <trkpt lat="46.116305636242032" lon="8.40923186391592">
        <ele>1293.1099999999999</ele>
        <time>2017-06-03T07:47:42Z</time>
      </trkpt>
      <trkpt lat="46.11631284467876" lon="8.409244520589709">
        <ele>1293.1099999999999</ele>
        <time>2017-06-03T07:47:57Z</time>
      </trkpt>
      <trkpt lat="46.116337403655052" lon="8.409282071515918">
        <ele>1293.5899999999999</ele>
        <time>2017-06-03T07:48:10Z</time>
      </trkpt>
      <trkpt lat="46.116276467218995" lon="8.409329010173678">
        <ele>1293.5899999999999</ele>
        <time>2017-06-03T07:48:24Z</time>
      </trkpt>
      <trkpt lat="46.116221230477095" lon="8.409357089549303">
        <ele>1294.55</ele>
        <time>2017-06-03T07:48:32Z</time>
      </trkpt>
      <trkpt lat="46.116141434758902" lon="8.409366058185697">
        <ele>1296.48</ele>
        <time>2017-06-03T07:48:43Z</time>
      </trkpt>
      <trkpt lat="46.116060297936201" lon="8.409379217773676">
        <ele>1297.9200000000001</ele>
        <time>2017-06-03T07:48:52Z</time>
      </trkpt>
      <trkpt lat="46.115995589643717" lon="8.409361867234111">
        <ele>1298.8800000000001</ele>
        <time>2017-06-03T07:49:01Z</time>
      </trkpt>
      <trkpt lat="46.115968097001314" lon="8.409323981031776">
        <ele>1299.8399999999999</ele>
        <time>2017-06-03T07:49:04Z</time>
      </trkpt>
      <trkpt lat="46.115884613245726" lon="8.409247873350978">
        <ele>1300.3199999999999</ele>
        <time>2017-06-03T07:49:15Z</time>
      </trkpt>
      <trkpt lat="46.115835243836045" lon="8.409217949956656">
        <ele>1301.28</ele>
        <time>2017-06-03T07:49:25Z</time>
      </trkpt>
      <trkpt lat="46.115776402875781" lon="8.409200347959995">
        <ele>1303.2</ele>
        <time>2017-06-03T07:49:36Z</time>
      </trkpt>
      <trkpt lat="46.115756034851074" lon="8.409201018512249">
        <ele>1305.1300000000001</ele>
        <time>2017-06-03T07:49:47Z</time>
      </trkpt>
      <trkpt lat="46.115699959918857" lon="8.409161036834121">
        <ele>1307.05</ele>
        <time>2017-06-03T07:49:57Z</time>
      </trkpt>
      <trkpt lat="46.115649752318859" lon="8.409126754850149">
        <ele>1308.97</ele>
        <time>2017-06-03T07:50:07Z</time>
      </trkpt>
      <trkpt lat="46.115649249404669" lon="8.409132370725274">
        <ele>1308.97</ele>
        <time>2017-06-03T07:50:16Z</time>
      </trkpt>
      <trkpt lat="46.115566352382302" lon="8.409051317721605">
        <ele>1310.9000000000001</ele>
        <time>2017-06-03T07:50:27Z</time>
      </trkpt>
      <trkpt lat="46.115544978529215" lon="8.409039918333292">
        <ele>1311.3800000000001</ele>
        <time>2017-06-03T07:50:30Z</time>
      </trkpt>
      <trkpt lat="46.115520335733891" lon="8.409024579450488">
        <ele>1311.8599999999999</ele>
        <time>2017-06-03T07:50:33Z</time>
      </trkpt>
      <trkpt lat="46.115440707653761" lon="8.40896992944181">
        <ele>1313.78</ele>
        <time>2017-06-03T07:50:45Z</time>
      </trkpt>
      <trkpt lat="46.11537029966712" lon="8.408934138715267">
        <ele>1315.22</ele>
        <time>2017-06-03T07:50:56Z</time>
      </trkpt>
      <trkpt lat="46.115333084017038" lon="8.408918296918273">
        <ele>1317.1400000000001</ele>
        <time>2017-06-03T07:51:07Z</time>
      </trkpt>
      <trkpt lat="46.115299724042416" lon="8.408886361867189">
        <ele>1318.0999999999999</ele>
        <time>2017-06-03T07:51:16Z</time>
      </trkpt>
      <trkpt lat="46.115268208086491" lon="8.408878147602081">
        <ele>1318.5899999999999</ele>
        <time>2017-06-03T07:51:20Z</time>
      </trkpt>
      <trkpt lat="46.115232668817043" lon="8.408866999670863">
        <ele>1319.55</ele>
        <time>2017-06-03T07:51:31Z</time>
      </trkpt>
      <trkpt lat="46.115180617198348" lon="8.408808493986726">
        <ele>1321.95</ele>
        <time>2017-06-03T07:51:43Z</time>
      </trkpt>
      <trkpt lat="46.115145329385996" lon="8.408735655248165">
        <ele>1324.8299999999999</ele>
        <time>2017-06-03T07:51:53Z</time>
      </trkpt>
      <trkpt lat="46.115099228918552" lon="8.40868997387588">
        <ele>1325.3099999999999</ele>
        <time>2017-06-03T07:52:04Z</time>
      </trkpt>
      <trkpt lat="46.115069137886167" lon="8.40865183621645">
        <ele>1326.28</ele>
        <time>2017-06-03T07:52:15Z</time>
      </trkpt>
      <trkpt lat="46.115020187571645" lon="8.408612022176385">
        <ele>1328.6800000000001</ele>
        <time>2017-06-03T07:52:27Z</time>
      </trkpt>
      <trkpt lat="46.114969979971647" lon="8.408584613353014">
        <ele>1330.1199999999999</ele>
        <time>2017-06-03T07:52:38Z</time>
      </trkpt>
      <trkpt lat="46.114924969151616" lon="8.408558294177055">
        <ele>1331.5599999999999</ele>
        <time>2017-06-03T07:52:47Z</time>
      </trkpt>
      <trkpt lat="46.114851627498865" lon="8.408504733815789">
        <ele>1333.97</ele>
        <time>2017-06-03T07:53:00Z</time>
      </trkpt>
      <trkpt lat="46.114767892286181" lon="8.408488892018795">
        <ele>1334.9300000000001</ele>
        <time>2017-06-03T07:53:10Z</time>
      </trkpt>
      <trkpt lat="46.114696562290192" lon="8.408447401598096">
        <ele>1336.3699999999999</ele>
        <time>2017-06-03T07:53:21Z</time>
      </trkpt>
      <trkpt lat="46.114659011363983" lon="8.408451592549682">
        <ele>1336.8499999999999</ele>
        <time>2017-06-03T07:53:26Z</time>
      </trkpt>
      <trkpt lat="46.114608217030764" lon="8.408421585336328">
        <ele>1337.8099999999999</ele>
        <time>2017-06-03T07:53:36Z</time>
      </trkpt>
      <trkpt lat="46.114529091864824" lon="8.40839434415102">
        <ele>1339.25</ele>
        <time>2017-06-03T07:53:46Z</time>
      </trkpt>
      <trkpt lat="46.114463545382023" lon="8.408363750204444">
        <ele>1340.7</ele>
        <time>2017-06-03T07:53:55Z</time>
      </trkpt>
      <trkpt lat="46.114403195679188" lon="8.408339358866215">
        <ele>1341.1800000000001</ele>
        <time>2017-06-03T07:54:04Z</time>
      </trkpt>
      <trkpt lat="46.114333961158991" lon="8.40832737274468">
        <ele>1341.6600000000001</ele>
        <time>2017-06-03T07:54:14Z</time>
      </trkpt>
      <trkpt lat="46.114250477403402" lon="8.408310525119305">
        <ele>1341.6600000000001</ele>
        <time>2017-06-03T07:54:23Z</time>
      </trkpt>
      <trkpt lat="46.114147547632456" lon="8.408278003334999">
        <ele>1341.1800000000001</ele>
        <time>2017-06-03T07:54:34Z</time>
      </trkpt>
      <trkpt lat="46.114032464101911" lon="8.40823357924819">
        <ele>1340.22</ele>
        <time>2017-06-03T07:54:45Z</time>
      </trkpt>
      <trkpt lat="46.113921739161015" lon="8.408198459073901">
        <ele>1339.73</ele>
        <time>2017-06-03T07:54:55Z</time>
      </trkpt>
      <trkpt lat="46.113913021981716" lon="8.408191921189427">
        <ele>1339.25</ele>
        <time>2017-06-03T07:54:56Z</time>
      </trkpt>
      <trkpt lat="46.113802967593074" lon="8.408189741894603">
        <ele>1339.25</ele>
        <time>2017-06-03T07:55:06Z</time>
      </trkpt>
      <trkpt lat="46.113702887669206" lon="8.40822234749794">
        <ele>1340.22</ele>
        <time>2017-06-03T07:55:17Z</time>
      </trkpt>
      <trkpt lat="46.113600125536323" lon="8.408219832926989">
        <ele>1341.6600000000001</ele>
        <time>2017-06-03T07:55:28Z</time>
      </trkpt>
      <trkpt lat="46.113582272082567" lon="8.40821304358542">
        <ele>1342.1400000000001</ele>
        <time>2017-06-03T07:55:30Z</time>
      </trkpt>
      <trkpt lat="46.113480515778065" lon="8.408167781308293">
        <ele>1341.1800000000001</ele>
        <time>2017-06-03T07:55:40Z</time>
      </trkpt>
      <trkpt lat="46.113401893526316" lon="8.408242212608457">
        <ele>1341.1800000000001</ele>
        <time>2017-06-03T07:55:51Z</time>
      </trkpt>
      <trkpt lat="46.113341795280576" lon="8.408294431865215">
        <ele>1341.1800000000001</ele>
        <time>2017-06-03T07:55:57Z</time>
      </trkpt>
      <trkpt lat="46.113237105309963" lon="8.40837623924017">
        <ele>1341.6600000000001</ele>
        <time>2017-06-03T07:56:08Z</time>
      </trkpt>
      <trkpt lat="46.113065527752042" lon="8.408417226746678">
        <ele>1341.1800000000001</ele>
        <time>2017-06-03T07:56:20Z</time>
      </trkpt>
      <trkpt lat="46.112892525270581" lon="8.408370371907949">
        <ele>1341.6600000000001</ele>
        <time>2017-06-03T07:56:33Z</time>
      </trkpt>
      <trkpt lat="46.112769143655896" lon="8.408306501805782">
        <ele>1341.6600000000001</ele>
        <time>2017-06-03T07:56:44Z</time>
      </trkpt>
      <trkpt lat="46.112691443413496" lon="8.408285463228822">
        <ele>1342.6199999999999</ele>
        <time>2017-06-03T07:56:53Z</time>
      </trkpt>
      <trkpt lat="46.112658837810159" lon="8.408301221206784">
        <ele>1343.5799999999999</ele>
        <time>2017-06-03T07:56:59Z</time>
      </trkpt>
      <trkpt lat="46.112563870847225" lon="8.408330976963043">
        <ele>1345.98</ele>
        <time>2017-06-03T07:57:12Z</time>
      </trkpt>
      <trkpt lat="46.112514166161418" lon="8.408367019146681">
        <ele>1348.3900000000001</ele>
        <time>2017-06-03T07:57:22Z</time>
      </trkpt>
      <trkpt lat="46.112500838935375" lon="8.408382441848517">
        <ele>1347.9100000000001</ele>
        <time>2017-06-03T07:57:32Z</time>
      </trkpt>
      <trkpt lat="46.112496228888631" lon="8.408368779346347">
        <ele>1347.9100000000001</ele>
        <time>2017-06-03T07:57:48Z</time>
      </trkpt>
      <trkpt lat="46.112495055422187" lon="8.408376155421138">
        <ele>1349.8299999999999</ele>
        <time>2017-06-03T07:57:56Z</time>
      </trkpt>
      <trkpt lat="46.112491618841887" lon="8.408361151814461">
        <ele>1348.3900000000001</ele>
        <time>2017-06-03T07:58:05Z</time>
      </trkpt>
      <trkpt lat="46.112450798973441" lon="8.408335000276566">
        <ele>1349.3499999999999</ele>
        <time>2017-06-03T07:58:15Z</time>
      </trkpt>
      <trkpt lat="46.112435879185796" lon="8.408349417150021">
        <ele>1350.3099999999999</ele>
        <time>2017-06-03T07:58:28Z</time>
      </trkpt>
      <trkpt lat="46.11237938515842" lon="8.408361067995429">
        <ele>1351.27</ele>
        <time>2017-06-03T07:58:41Z</time>
      </trkpt>
      <trkpt lat="46.112305289134383" lon="8.40835478156805">
        <ele>1353.6700000000001</ele>
        <time>2017-06-03T07:58:50Z</time>
      </trkpt>
      <trkpt lat="46.112297158688307" lon="8.408356793224812">
        <ele>1354.1500000000001</ele>
        <time>2017-06-03T07:58:51Z</time>
      </trkpt>
      <trkpt lat="46.112201018258929" lon="8.408361235633493">
        <ele>1355.5999999999999</ele>
        <time>2017-06-03T07:59:02Z</time>
      </trkpt>
      <trkpt lat="46.112175872549415" lon="8.408363247290254">
        <ele>1356.0799999999999</ele>
        <time>2017-06-03T07:59:05Z</time>
      </trkpt>
      <trkpt lat="46.112071936950088" lon="8.408333156257868">
        <ele>1358</ele>
        <time>2017-06-03T07:59:17Z</time>
      </trkpt>
      <trkpt lat="46.111991051584482" lon="8.408314632251859">
        <ele>1359.4400000000001</ele>
        <time>2017-06-03T07:59:27Z</time>
      </trkpt>
      <trkpt lat="46.111927684396505" lon="8.408304238691926">
        <ele>1360.4000000000001</ele>
        <time>2017-06-03T07:59:35Z</time>
      </trkpt>
      <trkpt lat="46.111889965832233" lon="8.40829418040812">
        <ele>1361.3599999999999</ele>
        <time>2017-06-03T07:59:46Z</time>
      </trkpt>
      <trkpt lat="46.111848726868629" lon="8.408260988071561">
        <ele>1361.8399999999999</ele>
        <time>2017-06-03T07:59:51Z</time>
      </trkpt>
      <trkpt lat="46.111753173172474" lon="8.408219665288925">
        <ele>1363.29</ele>
        <time>2017-06-03T08:00:02Z</time>
      </trkpt>
      <trkpt lat="46.111730625852942" lon="8.408218491822481">
        <ele>1363.29</ele>
        <time>2017-06-03T08:00:05Z</time>
      </trkpt>
      <trkpt lat="46.111610177904367" lon="8.40820575132966">
        <ele>1364.25</ele>
        <time>2017-06-03T08:00:18Z</time>
      </trkpt>
      <trkpt lat="46.111533818766475" lon="8.40817348100245">
        <ele>1364.73</ele>
        <time>2017-06-03T08:00:26Z</time>
      </trkpt>
      <trkpt lat="46.111458549275994" lon="8.408168200403452">
        <ele>1364.73</ele>
        <time>2017-06-03T08:00:40Z</time>
      </trkpt>
      <trkpt lat="46.111298371106386" lon="8.408189322799444">
        <ele>1364.73</ele>
        <time>2017-06-03T08:00:54Z</time>
      </trkpt>
      <trkpt lat="46.111170295625925" lon="8.408210193738341">
        <ele>1364.73</ele>
        <time>2017-06-03T08:01:05Z</time>
      </trkpt>
      <trkpt lat="46.111027048900723" lon="8.408225113525987">
        <ele>1364.25</ele>
        <time>2017-06-03T08:01:18Z</time>
      </trkpt>
      <trkpt lat="46.110878689214587" lon="8.408290073275566">
        <ele>1363.77</ele>
        <time>2017-06-03T08:01:31Z</time>
      </trkpt>
      <trkpt lat="46.110781459137797" lon="8.408365091308951">
        <ele>1364.25</ele>
        <time>2017-06-03T08:01:41Z</time>
      </trkpt>
      <trkpt lat="46.110747260972857" lon="8.408380430191755">
        <ele>1364.73</ele>
        <time>2017-06-03T08:01:52Z</time>
      </trkpt>
      <trkpt lat="46.110698645934463" lon="8.408485036343336">
        <ele>1365.6900000000001</ele>
        <time>2017-06-03T08:02:03Z</time>
      </trkpt>
      <trkpt lat="46.110666375607252" lon="8.408517139032483">
        <ele>1365.6900000000001</ele>
        <time>2017-06-03T08:02:17Z</time>
      </trkpt>
      <trkpt lat="46.110634775832295" lon="8.408562820404768">
        <ele>1366.6500000000001</ele>
        <time>2017-06-03T08:02:27Z</time>
      </trkpt>
      <trkpt lat="46.110615581274033" lon="8.408628702163696">
        <ele>1366.1700000000001</ele>
        <time>2017-06-03T08:02:32Z</time>
      </trkpt>
      <trkpt lat="46.110541485249996" lon="8.40872023254633">
        <ele>1368.0899999999999</ele>
        <time>2017-06-03T08:02:42Z</time>
      </trkpt>
      <trkpt lat="46.110494378954172" lon="8.408759878948331">
        <ele>1369.05</ele>
        <time>2017-06-03T08:02:50Z</time>
      </trkpt>
      <trkpt lat="46.110395640134811" lon="8.40880086645484">
        <ele>1370.02</ele>
        <time>2017-06-03T08:03:00Z</time>
      </trkpt>
      <trkpt lat="46.110303103923798" lon="8.408795837312937">
        <ele>1371.46</ele>
        <time>2017-06-03T08:03:10Z</time>
      </trkpt>
      <trkpt lat="46.110247951000929" lon="8.408836154267192">
        <ele>1372.4200000000001</ele>
        <time>2017-06-03T08:03:18Z</time>
      </trkpt>
      <trkpt lat="46.110184248536825" lon="8.408906478434801">
        <ele>1374.8199999999999</ele>
        <time>2017-06-03T08:03:29Z</time>
      </trkpt>
      <trkpt lat="46.1101458594203" lon="8.408976718783379">
        <ele>1376.75</ele>
        <time>2017-06-03T08:03:38Z</time>
      </trkpt>
      <trkpt lat="46.110076792538166" lon="8.409043857827783">
        <ele>1377.23</ele>
        <time>2017-06-03T08:03:49Z</time>
      </trkpt>
      <trkpt lat="46.110037565231323" lon="8.409084845334292">
        <ele>1377.71</ele>
        <time>2017-06-03T08:03:59Z</time>
      </trkpt>
      <trkpt lat="46.110046533867717" lon="8.409082414582372">
        <ele>1378.1900000000001</ele>
        <time>2017-06-03T08:04:05Z</time>
      </trkpt>
      <trkpt lat="46.110055334866047" lon="8.409150391817093">
        <ele>1377.71</ele>
        <time>2017-06-03T08:04:10Z</time>
      </trkpt>
      <trkpt lat="46.11006623134017" lon="8.409318448975682">
        <ele>1378.1900000000001</ele>
        <time>2017-06-03T08:04:21Z</time>
      </trkpt>
      <trkpt lat="46.110069500282407" lon="8.409419199451804">
        <ele>1377.71</ele>
        <time>2017-06-03T08:04:30Z</time>
      </trkpt>
      <trkpt lat="46.11003446392715" lon="8.409420037642121">
        <ele>1377.71</ele>
        <time>2017-06-03T08:04:38Z</time>
      </trkpt>
      <trkpt lat="46.110025327652693" lon="8.409424563869834">
        <ele>1378.1900000000001</ele>
        <time>2017-06-03T08:04:42Z</time>
      </trkpt>
      <trkpt lat="46.109980400651693" lon="8.409434203058481">
        <ele>1377.71</ele>
        <time>2017-06-03T08:04:48Z</time>
      </trkpt>
      <trkpt lat="46.109965480864048" lon="8.409497821703553">
        <ele>1376.75</ele>
        <time>2017-06-03T08:04:53Z</time>
      </trkpt>
      <trkpt lat="46.109936563298106" lon="8.409536713734269">
        <ele>1377.23</ele>
        <time>2017-06-03T08:05:03Z</time>
      </trkpt>
      <trkpt lat="46.109933294355869" lon="8.40957535430789">
        <ele>1377.71</ele>
        <time>2017-06-03T08:05:15Z</time>
      </trkpt>
      <trkpt lat="46.109932791441679" lon="8.409560266882181">
        <ele>1377.71</ele>
        <time>2017-06-03T08:05:27Z</time>
      </trkpt>
      <trkpt lat="46.109926337376237" lon="8.409533528611064">
        <ele>1376.75</ele>
        <time>2017-06-03T08:05:37Z</time>
      </trkpt>
      <trkpt lat="46.109935976564884" lon="8.409550376236439">
        <ele>1376.75</ele>
        <time>2017-06-03T08:05:58Z</time>
      </trkpt>
      <trkpt lat="46.109947208315134" lon="8.409536210820079">
        <ele>1377.23</ele>
        <time>2017-06-03T08:06:21Z</time>
      </trkpt>
      <trkpt lat="46.109942682087421" lon="8.409536378458142">
        <ele>1377.23</ele>
        <time>2017-06-03T08:06:46Z</time>
      </trkpt>
      <trkpt lat="46.109947962686419" lon="8.409542497247458">
        <ele>1377.23</ele>
        <time>2017-06-03T08:07:09Z</time>
      </trkpt>
      <trkpt lat="46.109934551641345" lon="8.409556159749627">
        <ele>1377.23</ele>
        <time>2017-06-03T08:07:35Z</time>
      </trkpt>
      <trkpt lat="46.109922733157873" lon="8.409554399549961">
        <ele>1377.23</ele>
        <time>2017-06-03T08:07:56Z</time>
      </trkpt>
      <trkpt lat="46.109921392053366" lon="8.409547945484519">
        <ele>1377.23</ele>
        <time>2017-06-03T08:08:24Z</time>
      </trkpt>
      <trkpt lat="46.109924577176571" lon="8.409559847787023">
        <ele>1377.23</ele>
        <time>2017-06-03T08:08:50Z</time>
      </trkpt>
      <trkpt lat="46.109935138374567" lon="8.409534618258476">
        <ele>1376.75</ele>
        <time>2017-06-03T08:09:18Z</time>
      </trkpt>
      <trkpt lat="46.109933881089091" lon="8.409531516954303">
        <ele>1376.75</ele>
        <time>2017-06-03T08:09:36Z</time>
      </trkpt>
      <trkpt lat="46.109946286305785" lon="8.409538390114904">
        <ele>1376.75</ele>
        <time>2017-06-03T08:09:59Z</time>
      </trkpt>
      <trkpt lat="46.109939496964216" lon="8.409550040960312">
        <ele>1377.23</ele>
        <time>2017-06-03T08:10:07Z</time>
      </trkpt>
      <trkpt lat="46.109948800876737" lon="8.409606283530593">
        <ele>1377.71</ele>
        <time>2017-06-03T08:10:15Z</time>
      </trkpt>
      <trkpt lat="46.10995676368475" lon="8.409678200259805">
        <ele>1378.1900000000001</ele>
        <time>2017-06-03T08:10:22Z</time>
      </trkpt>
      <trkpt lat="46.109972018748522" lon="8.409741567447782">
        <ele>1377.71</ele>
        <time>2017-06-03T08:10:29Z</time>
      </trkpt>
      <trkpt lat="46.109984926879406" lon="8.409841731190682">
        <ele>1378.6700000000001</ele>
        <time>2017-06-03T08:10:38Z</time>
      </trkpt>
      <trkpt lat="46.109994817525148" lon="8.409976763650775">
        <ele>1380.1099999999999</ele>
        <time>2017-06-03T08:10:49Z</time>
      </trkpt>
      <trkpt lat="46.109981574118137" lon="8.410102911293507">
        <ele>1380.1099999999999</ele>
        <time>2017-06-03T08:10:58Z</time>
      </trkpt>
      <trkpt lat="46.109920470044017" lon="8.410228220745921">
        <ele>1379.1500000000001</ele>
        <time>2017-06-03T08:11:09Z</time>
      </trkpt>
      <trkpt lat="46.109940083697438" lon="8.410279098898172">
        <ele>1379.6300000000001</ele>
        <time>2017-06-03T08:11:17Z</time>
      </trkpt>
      <trkpt lat="46.109954249113798" lon="8.41037280857563">
        <ele>1381.0699999999999</ele>
        <time>2017-06-03T08:11:27Z</time>
      </trkpt>
      <trkpt lat="46.109909992665052" lon="8.410493340343237">
        <ele>1381.55</ele>
        <time>2017-06-03T08:11:38Z</time>
      </trkpt>
      <trkpt lat="46.109870597720146" lon="8.410569783300161">
        <ele>1382.51</ele>
        <time>2017-06-03T08:11:46Z</time>
      </trkpt>
      <trkpt lat="46.109849140048027" lon="8.410678412765265">
        <ele>1383.96</ele>
        <time>2017-06-03T08:11:57Z</time>
      </trkpt>
      <trkpt lat="46.109818546101451" lon="8.410786874592304">
        <ele>1385.4000000000001</ele>
        <time>2017-06-03T08:12:08Z</time>
      </trkpt>
      <trkpt lat="46.109833968803287" lon="8.410847391933203">
        <ele>1386.8399999999999</ele>
        <time>2017-06-03T08:12:15Z</time>
      </trkpt>
      <trkpt lat="46.109831789508462" lon="8.410897431895137">
        <ele>1387.3199999999999</ele>
        <time>2017-06-03T08:12:19Z</time>
      </trkpt>
      <trkpt lat="46.109764482825994" lon="8.411031793802977">
        <ele>1388.28</ele>
        <time>2017-06-03T08:12:30Z</time>
      </trkpt>
      <trkpt lat="46.109753251075745" lon="8.411174286156893">
        <ele>1388.76</ele>
        <time>2017-06-03T08:12:42Z</time>
      </trkpt>
      <trkpt lat="46.109770685434341" lon="8.411292806267738">
        <ele>1389.72</ele>
        <time>2017-06-03T08:12:53Z</time>
      </trkpt>
      <trkpt lat="46.109765321016312" lon="8.411376625299454">
        <ele>1390.6800000000001</ele>
        <time>2017-06-03T08:13:02Z</time>
      </trkpt>
      <trkpt lat="46.109782252460718" lon="8.411414008587599">
        <ele>1391.6500000000001</ele>
        <time>2017-06-03T08:13:13Z</time>
      </trkpt>
      <trkpt lat="46.109849978238344" lon="8.411463461816311">
        <ele>1393.0899999999999</ele>
        <time>2017-06-03T08:13:23Z</time>
      </trkpt>
      <trkpt lat="46.109940502792597" lon="8.411518950015307">
        <ele>1394.05</ele>
        <time>2017-06-03T08:13:34Z</time>
      </trkpt>
      <trkpt lat="46.11001200042665" lon="8.41158508323133">
        <ele>1395.01</ele>
        <time>2017-06-03T08:13:44Z</time>
      </trkpt>
      <trkpt lat="46.110054580494761" lon="8.41166622005403">
        <ele>1396.45</ele>
        <time>2017-06-03T08:13:52Z</time>
      </trkpt>
      <trkpt lat="46.110125407576561" lon="8.411783818155527">
        <ele>1397.8900000000001</ele>
        <time>2017-06-03T08:14:03Z</time>
      </trkpt>
      <trkpt lat="46.110170921310782" lon="8.411855231970549">
        <ele>1399.3399999999999</ele>
        <time>2017-06-03T08:14:12Z</time>
      </trkpt>
      <trkpt lat="46.110228672623634" lon="8.411935027688742">
        <ele>1400.3</ele>
        <time>2017-06-03T08:14:24Z</time>
      </trkpt>
      <trkpt lat="46.11030226573348" lon="8.412017757073045">
        <ele>1400.78</ele>
        <time>2017-06-03T08:14:35Z</time>
      </trkpt>
      <trkpt lat="46.110354149714112" lon="8.412090763449669">
        <ele>1401.74</ele>
        <time>2017-06-03T08:14:44Z</time>
      </trkpt>
      <trkpt lat="46.110394131392241" lon="8.412171732634306">
        <ele>1402.22</ele>
        <time>2017-06-03T08:14:55Z</time>
      </trkpt>
      <trkpt lat="46.110446518287063" lon="8.412252115085721">
        <ele>1404.1400000000001</ele>
        <time>2017-06-03T08:15:05Z</time>
      </trkpt>
      <trkpt lat="46.11048742197454" lon="8.412425117567182">
        <ele>1405.5799999999999</ele>
        <time>2017-06-03T08:15:18Z</time>
      </trkpt>
      <trkpt lat="46.110519524663687" lon="8.412499632686377">
        <ele>1406.0699999999999</ele>
        <time>2017-06-03T08:15:27Z</time>
      </trkpt>
      <trkpt lat="46.110518183559179" lon="8.412577165290713">
        <ele>1407.99</ele>
        <time>2017-06-03T08:15:37Z</time>
      </trkpt>
      <trkpt lat="46.110570821911097" lon="8.412618990987539">
        <ele>1409.4300000000001</ele>
        <time>2017-06-03T08:15:51Z</time>
      </trkpt>
      <trkpt lat="46.110591189935803" lon="8.412665594369173">
        <ele>1411.3499999999999</ele>
        <time>2017-06-03T08:16:01Z</time>
      </trkpt>
      <trkpt lat="46.110645672306418" lon="8.41275729238987">
        <ele>1412.79</ele>
        <time>2017-06-03T08:16:14Z</time>
      </trkpt>
      <trkpt lat="46.110655730590224" lon="8.412868101149797">
        <ele>1415.2</ele>
        <time>2017-06-03T08:16:26Z</time>
      </trkpt>
      <trkpt lat="46.110677188262343" lon="8.412923505529761">
        <ele>1417.1199999999999</ele>
        <time>2017-06-03T08:16:38Z</time>
      </trkpt>
      <trkpt lat="46.110715577378869" lon="8.412989974021912">
        <ele>1418.5599999999999</ele>
        <time>2017-06-03T08:16:49Z</time>
      </trkpt>
      <trkpt lat="46.110761258751154" lon="8.413112182170153">
        <ele>1420</ele>
        <time>2017-06-03T08:17:00Z</time>
      </trkpt>
      <trkpt lat="46.110775088891387" lon="8.413188708946109">
        <ele>1421.45</ele>
        <time>2017-06-03T08:17:12Z</time>
      </trkpt>
      <trkpt lat="46.110756983980536" lon="8.41319365426898">
        <ele>1421.9300000000001</ele>
        <time>2017-06-03T08:17:14Z</time>
      </trkpt>
      <trkpt lat="46.110692024230957" lon="8.413199270144105">
        <ele>1423.8499999999999</ele>
        <time>2017-06-03T08:17:23Z</time>
      </trkpt>
      <trkpt lat="46.110721025615931" lon="8.413249477744103">
        <ele>1424.3299999999999</ele>
        <time>2017-06-03T08:17:30Z</time>
      </trkpt>
      <trkpt lat="46.110754385590553" lon="8.413348216563463">
        <ele>1426.73</ele>
        <time>2017-06-03T08:17:43Z</time>
      </trkpt>
      <trkpt lat="46.110746087506413" lon="8.4134516492486">
        <ele>1428.1800000000001</ele>
        <time>2017-06-03T08:17:55Z</time>
      </trkpt>
      <trkpt lat="46.110760420560837" lon="8.413507305085659">
        <ele>1429.6199999999999</ele>
        <time>2017-06-03T08:18:04Z</time>
      </trkpt>
      <trkpt lat="46.11076838336885" lon="8.413527756929398">
        <ele>1429.6199999999999</ele>
        <time>2017-06-03T08:18:06Z</time>
      </trkpt>
      <trkpt lat="46.110719600692391" lon="8.413583161309362">
        <ele>1431.0599999999999</ele>
        <time>2017-06-03T08:18:16Z</time>
      </trkpt>
      <trkpt lat="46.11066578887403" lon="8.413640577346087">
        <ele>1432.5</ele>
        <time>2017-06-03T08:18:26Z</time>
      </trkpt>
      <trkpt lat="46.110634356737137" lon="8.413644516840577">
        <ele>1433.9400000000001</ele>
        <time>2017-06-03T08:18:35Z</time>
      </trkpt>
      <trkpt lat="46.110637122765183" lon="8.413698999211192">
        <ele>1434.9100000000001</ele>
        <time>2017-06-03T08:18:44Z</time>
      </trkpt>
      <trkpt lat="46.110589765012264" lon="8.413766054436564">
        <ele>1435.3900000000001</ele>
        <time>2017-06-03T08:18:52Z</time>
      </trkpt>
      <trkpt lat="46.110552465543151" lon="8.413829673081636">
        <ele>1436.8299999999999</ele>
        <time>2017-06-03T08:19:02Z</time>
      </trkpt>
      <trkpt lat="46.110555650666356" lon="8.41389924287796">
        <ele>1437.3099999999999</ele>
        <time>2017-06-03T08:19:12Z</time>
      </trkpt>
      <trkpt lat="46.110561015084386" lon="8.413884993642569">
        <ele>1436.8299999999999</ele>
        <time>2017-06-03T08:19:27Z</time>
      </trkpt>
      <trkpt lat="46.110576605424285" lon="8.413916593417525">
        <ele>1437.79</ele>
        <time>2017-06-03T08:19:36Z</time>
      </trkpt>
      <trkpt lat="46.110596721991897" lon="8.413944505155087">
        <ele>1439.23</ele>
        <time>2017-06-03T08:19:46Z</time>
      </trkpt>
      <trkpt lat="46.110628740862012" lon="8.413967303931713">
        <ele>1440.6700000000001</ele>
        <time>2017-06-03T08:19:56Z</time>
      </trkpt>
      <trkpt lat="46.1106535512954" lon="8.414099905639887">
        <ele>1442.5999999999999</ele>
        <time>2017-06-03T08:20:06Z</time>
      </trkpt>
      <trkpt lat="46.110653048381209" lon="8.41420610435307">
        <ele>1444.04</ele>
        <time>2017-06-03T08:20:17Z</time>
      </trkpt>
      <trkpt lat="46.110692443326116" lon="8.41434239409864">
        <ele>1445</ele>
        <time>2017-06-03T08:20:28Z</time>
      </trkpt>
      <trkpt lat="46.110672242939472" lon="8.414439540356398">
        <ele>1445.48</ele>
        <time>2017-06-03T08:20:40Z</time>
      </trkpt>
      <trkpt lat="46.110701411962509" lon="8.41455009765923">
        <ele>1446.9200000000001</ele>
        <time>2017-06-03T08:20:52Z</time>
      </trkpt>
      <trkpt lat="46.110670901834965" lon="8.414598377421498">
        <ele>1448.3599999999999</ele>
        <time>2017-06-03T08:20:59Z</time>
      </trkpt>
      <trkpt lat="46.110695293173194" lon="8.414686471223831">
        <ele>1450.29</ele>
        <time>2017-06-03T08:21:08Z</time>
      </trkpt>
      <trkpt lat="46.110739633440971" lon="8.414750592783094">
        <ele>1451.25</ele>
        <time>2017-06-03T08:21:21Z</time>
      </trkpt>
      <trkpt lat="46.110753547400236" lon="8.41479049064219">
        <ele>1452.6900000000001</ele>
        <time>2017-06-03T08:21:28Z</time>
      </trkpt>
      <trkpt lat="46.110773412510753" lon="8.414864502847195">
        <ele>1453.6500000000001</ele>
        <time>2017-06-03T08:21:37Z</time>
      </trkpt>
      <trkpt lat="46.1107796151191" lon="8.414934827014804">
        <ele>1454.6099999999999</ele>
        <time>2017-06-03T08:21:45Z</time>
      </trkpt>
      <trkpt lat="46.110767209902406" lon="8.415025100111961">
        <ele>1456.05</ele>
        <time>2017-06-03T08:21:57Z</time>
      </trkpt>
      <trkpt lat="46.110767293721437" lon="8.415109002962709">
        <ele>1457.02</ele>
        <time>2017-06-03T08:22:08Z</time>
      </trkpt>
      <trkpt lat="46.110688420012593" lon="8.415121156722307">
        <ele>1457.02</ele>
        <time>2017-06-03T08:22:14Z</time>
      </trkpt>
      <trkpt lat="46.110633853822947" lon="8.415068350732327">
        <ele>1458.46</ele>
        <time>2017-06-03T08:22:23Z</time>
      </trkpt>
      <trkpt lat="46.110633853822947" lon="8.415114702656865">
        <ele>1459.4200000000001</ele>
        <time>2017-06-03T08:22:33Z</time>
      </trkpt>
      <trkpt lat="46.110679116100073" lon="8.415217464789748">
        <ele>1461.3399999999999</ele>
        <time>2017-06-03T08:22:43Z</time>
      </trkpt>
      <trkpt lat="46.110700573772192" lon="8.415307821705937">
        <ele>1462.78</ele>
        <time>2017-06-03T08:22:55Z</time>
      </trkpt>
      <trkpt lat="46.110604600980878" lon="8.415280999615789">
        <ele>1464.23</ele>
        <time>2017-06-03T08:23:07Z</time>
      </trkpt>
      <trkpt lat="46.110545173287392" lon="8.415259206667543">
        <ele>1465.6700000000001</ele>
        <time>2017-06-03T08:23:16Z</time>
      </trkpt>
      <trkpt lat="46.110493456944823" lon="8.415259290486574">
        <ele>1466.6300000000001</ele>
        <time>2017-06-03T08:23:25Z</time>
      </trkpt>
      <trkpt lat="46.110539389774203" lon="8.415286364033818">
        <ele>1468.55</ele>
        <time>2017-06-03T08:23:35Z</time>
      </trkpt>
      <trkpt lat="46.110584819689393" lon="8.415343780070543">
        <ele>1469.99</ele>
        <time>2017-06-03T08:23:46Z</time>
      </trkpt>
      <trkpt lat="46.110605522990227" lon="8.415413852781057">
        <ele>1470.47</ele>
        <time>2017-06-03T08:23:50Z</time>
      </trkpt>
      <trkpt lat="46.11059982329607" lon="8.415497923269868">
        <ele>1471.9200000000001</ele>
        <time>2017-06-03T08:23:59Z</time>
      </trkpt>
      <trkpt lat="46.110538970679045" lon="8.415509993210435">
        <ele>1473.3599999999999</ele>
        <time>2017-06-03T08:24:08Z</time>
      </trkpt>
      <trkpt lat="46.110448446124792" lon="8.415484512224793">
        <ele>1474.3199999999999</ele>
        <time>2017-06-03T08:24:19Z</time>
      </trkpt>
      <trkpt lat="46.110392538830638" lon="8.415477890521288">
        <ele>1475.28</ele>
        <time>2017-06-03T08:24:28Z</time>
      </trkpt>
      <trkpt lat="46.110344845801592" lon="8.415435394272208">
        <ele>1477.2</ele>
        <time>2017-06-03T08:24:39Z</time>
      </trkpt>
      <trkpt lat="46.110306791961193" lon="8.415413685142994">
        <ele>1478.1600000000001</ele>
        <time>2017-06-03T08:24:49Z</time>
      </trkpt>
      <trkpt lat="46.110286507755518" lon="8.415472023189068">
        <ele>1480.0899999999999</ele>
        <time>2017-06-03T08:25:00Z</time>
      </trkpt>
      <trkpt lat="46.110331686213613" lon="8.415465150028467">
        <ele>1480.5699999999999</ele>
        <time>2017-06-03T08:25:10Z</time>
      </trkpt>
      <trkpt lat="46.110329758375883" lon="8.41548141092062">
        <ele>1480.5699999999999</ele>
        <time>2017-06-03T08:25:29Z</time>
      </trkpt>
      <trkpt lat="46.110308887436986" lon="8.41551611199975">
        <ele>1482.49</ele>
        <time>2017-06-03T08:25:39Z</time>
      </trkpt>
      <trkpt lat="46.110319783911109" lon="8.415576629340649">
        <ele>1483.9300000000001</ele>
        <time>2017-06-03T08:25:50Z</time>
      </trkpt>
      <trkpt lat="46.110280975699425" lon="8.415656844154">
        <ele>1485.3699999999999</ele>
        <time>2017-06-03T08:26:01Z</time>
      </trkpt>
      <trkpt lat="46.110298745334148" lon="8.415750386193395">
        <ele>1487.78</ele>
        <time>2017-06-03T08:26:14Z</time>
      </trkpt>
      <trkpt lat="46.110307211056352" lon="8.415773352608085">
        <ele>1487.78</ele>
        <time>2017-06-03T08:26:17Z</time>
      </trkpt>
      <trkpt lat="46.110331434756517" lon="8.415880808606744">
        <ele>1489.22</ele>
        <time>2017-06-03T08:26:28Z</time>
      </trkpt>
      <trkpt lat="46.110332356765866" lon="8.415966220200062">
        <ele>1491.1400000000001</ele>
        <time>2017-06-03T08:26:38Z</time>
      </trkpt>
      <trkpt lat="46.110354736447334" lon="8.416044590994716">
        <ele>1492.0999999999999</ele>
        <time>2017-06-03T08:26:48Z</time>
      </trkpt>
      <trkpt lat="46.11032078973949" lon="8.416043920442462">
        <ele>1492.5799999999999</ele>
        <time>2017-06-03T08:27:01Z</time>
      </trkpt>
      <trkpt lat="46.110345851629972" lon="8.416152885183692">
        <ele>1492.5799999999999</ele>
        <time>2017-06-03T08:27:10Z</time>
      </trkpt>
      <trkpt lat="46.11039262264967" lon="8.416226981207728">
        <ele>1493.55</ele>
        <time>2017-06-03T08:27:19Z</time>
      </trkpt>
      <trkpt lat="46.110392538830638" lon="8.416343238204718">
        <ele>1494.51</ele>
        <time>2017-06-03T08:27:28Z</time>
      </trkpt>
      <trkpt lat="46.110393712297082" lon="8.416425799950957">
        <ele>1496.4300000000001</ele>
        <time>2017-06-03T08:27:39Z</time>
      </trkpt>
      <trkpt lat="46.110410811379552" lon="8.416518168523908">
        <ele>1497.8699999999999</ele>
        <time>2017-06-03T08:27:49Z</time>
      </trkpt>
      <trkpt lat="46.110450960695744" lon="8.416645573452115">
        <ele>1499.3099999999999</ele>
        <time>2017-06-03T08:28:00Z</time>
      </trkpt>
      <trkpt lat="46.110480045899749" lon="8.416739450767636">
        <ele>1500.27</ele>
        <time>2017-06-03T08:28:10Z</time>
      </trkpt>
      <trkpt lat="46.110497564077377" lon="8.41680508106947">
        <ele>1501.24</ele>
        <time>2017-06-03T08:28:20Z</time>
      </trkpt>
      <trkpt lat="46.110413912683725" lon="8.416793262585998">
        <ele>1503.1600000000001</ele>
        <time>2017-06-03T08:28:30Z</time>
      </trkpt>
      <trkpt lat="46.110363369807601" lon="8.416759148240089">
        <ele>1504.1199999999999</ele>
        <time>2017-06-03T08:28:40Z</time>
      </trkpt>
      <trkpt lat="46.110419360920787" lon="8.416828969493508">
        <ele>1505.0799999999999</ele>
        <time>2017-06-03T08:28:50Z</time>
      </trkpt>
      <trkpt lat="46.110435705631971" lon="8.416943801566958">
        <ele>1507</ele>
        <time>2017-06-03T08:29:01Z</time>
      </trkpt>
      <trkpt lat="46.110446099191904" lon="8.417048156261444">
        <ele>1508.45</ele>
        <time>2017-06-03T08:29:12Z</time>
      </trkpt>
      <trkpt lat="46.110471496358514" lon="8.417109930887818">
        <ele>1509.8900000000001</ele>
        <time>2017-06-03T08:29:23Z</time>
      </trkpt>
      <trkpt lat="46.110384743660688" lon="8.417139686644077">
        <ele>1511.3299999999999</ele>
        <time>2017-06-03T08:29:33Z</time>
      </trkpt>
      <trkpt lat="46.110320286825299" lon="8.417138932272792">
        <ele>1513.25</ele>
        <time>2017-06-03T08:29:45Z</time>
      </trkpt>
      <trkpt lat="46.110341157764196" lon="8.417204059660435">
        <ele>1514.21</ele>
        <time>2017-06-03T08:29:56Z</time>
      </trkpt>
      <trkpt lat="46.110343420878053" lon="8.417300786823034">
        <ele>1516.1400000000001</ele>
        <time>2017-06-03T08:30:07Z</time>
      </trkpt>
      <trkpt lat="46.110373428091407" lon="8.417374128475785">
        <ele>1517.5799999999999</ele>
        <time>2017-06-03T08:30:17Z</time>
      </trkpt>
      <trkpt lat="46.110373511910439" lon="8.417481249198318">
        <ele>1518.54</ele>
        <time>2017-06-03T08:30:28Z</time>
      </trkpt>
      <trkpt lat="46.110349120572209" lon="8.417554255574942">
        <ele>1519.98</ele>
        <time>2017-06-03T08:30:38Z</time>
      </trkpt>
      <trkpt lat="46.110337972640991" lon="8.417568504810333">
        <ele>1520.46</ele>
        <time>2017-06-03T08:30:40Z</time>
      </trkpt>
      <trkpt lat="46.110320705920458" lon="8.417615024372935">
        <ele>1520.46</ele>
        <time>2017-06-03T08:30:53Z</time>
      </trkpt>
      <trkpt lat="46.11029933206737" lon="8.417670428752899">
        <ele>1521.4200000000001</ele>
        <time>2017-06-03T08:31:04Z</time>
      </trkpt>
      <trkpt lat="46.110287681221962" lon="8.417701022699475">
        <ele>1521.9000000000001</ele>
        <time>2017-06-03T08:31:13Z</time>
      </trkpt>
      <trkpt lat="46.110281562432647" lon="8.417788110673428">
        <ele>1521.9000000000001</ele>
        <time>2017-06-03T08:31:22Z</time>
      </trkpt>
      <trkpt lat="46.110297236591578" lon="8.417791379615665">
        <ele>1522.8699999999999</ele>
        <time>2017-06-03T08:31:30Z</time>
      </trkpt>
      <trkpt lat="46.110315257683396" lon="8.417784171178937">
        <ele>1523.8299999999999</ele>
        <time>2017-06-03T08:31:38Z</time>
      </trkpt>
      <trkpt lat="46.110335206612945" lon="8.417786434292793">
        <ele>1524.3099999999999</ele>
        <time>2017-06-03T08:31:43Z</time>
      </trkpt>
      <trkpt lat="46.110397735610604" lon="8.417782159522176">
        <ele>1524.79</ele>
        <time>2017-06-03T08:31:52Z</time>
      </trkpt>
      <trkpt lat="46.11043612472713" lon="8.417893387377262">
        <ele>1526.71</ele>
        <time>2017-06-03T08:32:03Z</time>
      </trkpt>
      <trkpt lat="46.110461270436645" lon="8.418013164773583">
        <ele>1527.6700000000001</ele>
        <time>2017-06-03T08:32:14Z</time>
      </trkpt>
      <trkpt lat="46.110472586005926" lon="8.418048871681094">
        <ele>1528.1500000000001</ele>
        <time>2017-06-03T08:32:25Z</time>
      </trkpt>
      <trkpt lat="46.110469484701753" lon="8.418049458414316">
        <ele>1526.71</ele>
        <time>2017-06-03T08:32:37Z</time>
      </trkpt>
      <trkpt lat="46.11051868647337" lon="8.418038729578257">
        <ele>1527.6700000000001</ele>
        <time>2017-06-03T08:32:47Z</time>
      </trkpt>
      <trkpt lat="46.110552381724119" lon="8.41806379146874">
        <ele>1528.1500000000001</ele>
        <time>2017-06-03T08:32:56Z</time>
      </trkpt>
      <trkpt lat="46.110605020076036" lon="8.418061612173915">
        <ele>1529.1099999999999</ele>
        <time>2017-06-03T08:33:04Z</time>
      </trkpt>
      <trkpt lat="46.110648103058338" lon="8.418070245534182">
        <ele>1529.1099999999999</ele>
        <time>2017-06-03T08:33:10Z</time>
      </trkpt>
      <trkpt lat="46.110750027000904" lon="8.418035292997956">
        <ele>1529.5899999999999</ele>
        <time>2017-06-03T08:33:19Z</time>
      </trkpt>
      <trkpt lat="46.11075664870441" lon="8.418033784255385">
        <ele>1529.5899999999999</ele>
        <time>2017-06-03T08:33:20Z</time>
      </trkpt>
      <trkpt lat="46.110835019499063" lon="8.418059013783932">
        <ele>1530.5599999999999</ele>
        <time>2017-06-03T08:33:30Z</time>
      </trkpt>
      <trkpt lat="46.110893441364169" lon="8.418069155886769">
        <ele>1531.52</ele>
        <time>2017-06-03T08:33:39Z</time>
      </trkpt>
      <trkpt lat="46.110909869894385" lon="8.418074855580926">
        <ele>1532</ele>
        <time>2017-06-03T08:33:41Z</time>
      </trkpt>
      <trkpt lat="46.11097457818687" lon="8.418123135343194">
        <ele>1532.96</ele>
        <time>2017-06-03T08:33:50Z</time>
      </trkpt>
      <trkpt lat="46.111037358641624" lon="8.418224304914475">
        <ele>1533.9200000000001</ele>
        <time>2017-06-03T08:33:59Z</time>
      </trkpt>
      <trkpt lat="46.111100474372506" lon="8.418297059834003">
        <ele>1535.8399999999999</ele>
        <time>2017-06-03T08:34:09Z</time>
      </trkpt>
      <trkpt lat="46.111134756356478" lon="8.418366881087422">
        <ele>1537.29</ele>
        <time>2017-06-03T08:34:20Z</time>
      </trkpt>
      <trkpt lat="46.111130313947797" lon="8.418474420905113">
        <ele>1539.21</ele>
        <time>2017-06-03T08:34:33Z</time>
      </trkpt>
      <trkpt lat="46.111144311726093" lon="8.418576680123806">
        <ele>1540.6500000000001</ele>
        <time>2017-06-03T08:34:43Z</time>
      </trkpt>
      <trkpt lat="46.111150933429599" lon="8.418644489720464">
        <ele>1542.0899999999999</ele>
        <time>2017-06-03T08:34:55Z</time>
      </trkpt>
      <trkpt lat="46.11116417683661" lon="8.418715316802263">
        <ele>1544.5</ele>
        <time>2017-06-03T08:35:06Z</time>
      </trkpt>
      <trkpt lat="46.111204158514738" lon="8.418779354542494">
        <ele>1544.98</ele>
        <time>2017-06-03T08:35:16Z</time>
      </trkpt>
      <trkpt lat="46.111241290345788" lon="8.418889073655009">
        <ele>1544.98</ele>
        <time>2017-06-03T08:35:27Z</time>
      </trkpt>
      <trkpt lat="46.111278003081679" lon="8.419019496068358">
        <ele>1546.4200000000001</ele>
        <time>2017-06-03T08:35:40Z</time>
      </trkpt>
      <trkpt lat="46.111294850707054" lon="8.419105159118772">
        <ele>1547.8599999999999</ele>
        <time>2017-06-03T08:35:49Z</time>
      </trkpt>
      <trkpt lat="46.111300718039274" lon="8.41921454295516">
        <ele>1548.8199999999999</ele>
        <time>2017-06-03T08:36:01Z</time>
      </trkpt>
      <trkpt lat="46.111315554007888" lon="8.419304816052318">
        <ele>1550.26</ele>
        <time>2017-06-03T08:36:11Z</time>
      </trkpt>
      <trkpt lat="46.111321002244949" lon="8.419298948720098">
        <ele>1552.1900000000001</ele>
        <time>2017-06-03T08:36:19Z</time>
      </trkpt>
      <trkpt lat="46.11133080907166" lon="8.419347563758493">
        <ele>1551.71</ele>
        <time>2017-06-03T08:36:33Z</time>
      </trkpt>
      <trkpt lat="46.111358888447285" lon="8.419435573741794">
        <ele>1553.6300000000001</ele>
        <time>2017-06-03T08:36:45Z</time>
      </trkpt>
      <trkpt lat="46.111319409683347" lon="8.419493241235614">
        <ele>1555.55</ele>
        <time>2017-06-03T08:36:54Z</time>
      </trkpt>
      <trkpt lat="46.111276494339108" lon="8.419486954808235">
        <ele>1556.99</ele>
        <time>2017-06-03T08:37:05Z</time>
      </trkpt>
      <trkpt lat="46.111293425783515" lon="8.419526433572173">
        <ele>1558.4300000000001</ele>
        <time>2017-06-03T08:37:15Z</time>
      </trkpt>
      <trkpt lat="46.111319242045283" lon="8.419607654213905">
        <ele>1559.8800000000001</ele>
        <time>2017-06-03T08:37:24Z</time>
      </trkpt>
      <trkpt lat="46.111323181539774" lon="8.419666578993201">
        <ele>1560.8399999999999</ele>
        <time>2017-06-03T08:37:33Z</time>
      </trkpt>
      <trkpt lat="46.111300969496369" lon="8.419750984758139">
        <ele>1561.8</ele>
        <time>2017-06-03T08:37:48Z</time>
      </trkpt>
      <trkpt lat="46.111321253702044" lon="8.419834636151791">
        <ele>1563.72</ele>
        <time>2017-06-03T08:37:58Z</time>
      </trkpt>
      <trkpt lat="46.111318487673998" lon="8.419897751882672">
        <ele>1565.6400000000001</ele>
        <time>2017-06-03T08:38:08Z</time>
      </trkpt>
      <trkpt lat="46.1113200802356" lon="8.419933458790183">
        <ele>1566.6099999999999</ele>
        <time>2017-06-03T08:38:17Z</time>
      </trkpt>
      <trkpt lat="46.111314045265317" lon="8.419985678046942">
        <ele>1567.5699999999999</ele>
        <time>2017-06-03T08:38:29Z</time>
      </trkpt>
      <trkpt lat="46.11131907440722" lon="8.42003152705729">
        <ele>1568.53</ele>
        <time>2017-06-03T08:38:37Z</time>
      </trkpt>
      <trkpt lat="46.111334664747119" lon="8.420110652223229">
        <ele>1570.9300000000001</ele>
        <time>2017-06-03T08:38:49Z</time>
      </trkpt>
      <trkpt lat="46.111348243430257" lon="8.420192040503025">
        <ele>1572.8499999999999</ele>
        <time>2017-06-03T08:39:02Z</time>
      </trkpt>
      <trkpt lat="46.11137037165463" lon="8.420262197032571">
        <ele>1574.3</ele>
        <time>2017-06-03T08:39:12Z</time>
      </trkpt>
      <trkpt lat="46.11136794090271" lon="8.420347860082984">
        <ele>1576.22</ele>
        <time>2017-06-03T08:39:23Z</time>
      </trkpt>
      <trkpt lat="46.111303986981511" lon="8.420315003022552">
        <ele>1577.1800000000001</ele>
        <time>2017-06-03T08:39:32Z</time>
      </trkpt>
      <trkpt lat="46.111209020018578" lon="8.420267980545759">
        <ele>1579.0999999999999</ele>
        <time>2017-06-03T08:39:44Z</time>
      </trkpt>
      <trkpt lat="46.111157806590199" lon="8.420213917270303">
        <ele>1580.54</ele>
        <time>2017-06-03T08:39:56Z</time>
      </trkpt>
      <trkpt lat="46.111173061653972" lon="8.420246355235577">
        <ele>1582.47</ele>
        <time>2017-06-03T08:40:07Z</time>
      </trkpt>
      <trkpt lat="46.111188987269998" lon="8.420313494279981">
        <ele>1583.4300000000001</ele>
        <time>2017-06-03T08:40:17Z</time>
      </trkpt>
      <trkpt lat="46.11118471249938" lon="8.420380800962448">
        <ele>1584.8699999999999</ele>
        <time>2017-06-03T08:40:27Z</time>
      </trkpt>
      <trkpt lat="46.111189657822251" lon="8.420478533953428">
        <ele>1586.79</ele>
        <time>2017-06-03T08:40:38Z</time>
      </trkpt>
      <trkpt lat="46.111187813803554" lon="8.420586157590151">
        <ele>1589.2</ele>
        <time>2017-06-03T08:40:52Z</time>
      </trkpt>
      <trkpt lat="46.11119351349771" lon="8.420673832297325">
        <ele>1590.6400000000001</ele>
        <time>2017-06-03T08:41:04Z</time>
      </trkpt>
      <trkpt lat="46.111197704449296" lon="8.420735858380795">
        <ele>1591.5999999999999</ele>
        <time>2017-06-03T08:41:11Z</time>
      </trkpt>
      <trkpt lat="46.111158896237612" lon="8.420787323266268">
        <ele>1592.5599999999999</ele>
        <time>2017-06-03T08:41:21Z</time>
      </trkpt>
      <trkpt lat="46.111114723607898" lon="8.420908441767097">
        <ele>1593.04</ele>
        <time>2017-06-03T08:41:33Z</time>
      </trkpt>
      <trkpt lat="46.111101480200887" lon="8.421001732349396">
        <ele>1593.04</ele>
        <time>2017-06-03T08:41:42Z</time>
      </trkpt>
      <trkpt lat="46.111101815477014" lon="8.42103517614305">
        <ele>1593.04</ele>
        <time>2017-06-03T08:41:44Z</time>
      </trkpt>
      <trkpt lat="46.11110215075314" lon="8.421188481152058">
        <ele>1593.04</ele>
        <time>2017-06-03T08:41:56Z</time>
      </trkpt>
      <trkpt lat="46.111088739708066" lon="8.421285627409816">
        <ele>1593.04</ele>
        <time>2017-06-03T08:42:04Z</time>
      </trkpt>
      <trkpt lat="46.11108454875648" lon="8.421363243833184">
        <ele>1592.5599999999999</ele>
        <time>2017-06-03T08:42:11Z</time>
      </trkpt>
      <trkpt lat="46.111051272600889" lon="8.421447817236185">
        <ele>1593.04</ele>
        <time>2017-06-03T08:42:21Z</time>
      </trkpt>
      <trkpt lat="46.111059822142124" lon="8.421527026221156">
        <ele>1591.5999999999999</ele>
        <time>2017-06-03T08:42:32Z</time>
      </trkpt>
      <trkpt lat="46.111080106347799" lon="8.421570444479585">
        <ele>1591.1199999999999</ele>
        <time>2017-06-03T08:42:44Z</time>
      </trkpt>
      <trkpt lat="46.111097540706396" lon="8.421601373702288">
        <ele>1590.6400000000001</ele>
        <time>2017-06-03T08:42:55Z</time>
      </trkpt>
      <trkpt lat="46.11107524484396" lon="8.421631464734674">
        <ele>1590.6400000000001</ele>
        <time>2017-06-03T08:43:04Z</time>
      </trkpt>
      <trkpt lat="46.111024031415582" lon="8.421582095324993">
        <ele>1590.6400000000001</ele>
        <time>2017-06-03T08:43:15Z</time>
      </trkpt>
      <trkpt lat="46.111031994223595" lon="8.421605229377747">
        <ele>1591.5999999999999</ele>
        <time>2017-06-03T08:43:23Z</time>
      </trkpt>
      <trkpt lat="46.111046327278018" lon="8.421624172478914">
        <ele>1591.5999999999999</ele>
        <time>2017-06-03T08:43:29Z</time>
      </trkpt>
      <trkpt lat="46.111093517392874" lon="8.421604055911303">
        <ele>1592.0799999999999</ele>
        <time>2017-06-03T08:43:37Z</time>
      </trkpt>
      <trkpt lat="46.111169122159481" lon="8.421644205227494">
        <ele>1592.5599999999999</ele>
        <time>2017-06-03T08:43:47Z</time>
      </trkpt>
      <trkpt lat="46.111227376386523" lon="8.42168502509594">
        <ele>1594.48</ele>
        <time>2017-06-03T08:44:00Z</time>
      </trkpt>
      <trkpt lat="46.111266687512398" lon="8.421773118898273">
        <ele>1594.96</ele>
        <time>2017-06-03T08:44:09Z</time>
      </trkpt>
      <trkpt lat="46.111295856535435" lon="8.421827014535666">
        <ele>1596.8900000000001</ele>
        <time>2017-06-03T08:44:20Z</time>
      </trkpt>
      <trkpt lat="46.111321756616235" lon="8.421894572675228">
        <ele>1597.8499999999999</ele>
        <time>2017-06-03T08:44:30Z</time>
      </trkpt>
      <trkpt lat="46.1113615706563" lon="8.421954419463873">
        <ele>1599.29</ele>
        <time>2017-06-03T08:44:41Z</time>
      </trkpt>
      <trkpt lat="46.111405491828918" lon="8.422006135806441">
        <ele>1601.21</ele>
        <time>2017-06-03T08:44:51Z</time>
      </trkpt>
      <trkpt lat="46.111437426880002" lon="8.42207302339375">
        <ele>1602.1700000000001</ele>
        <time>2017-06-03T08:45:00Z</time>
      </trkpt>
      <trkpt lat="46.111505487933755" lon="8.422142341732979">
        <ele>1604.0999999999999</ele>
        <time>2017-06-03T08:45:12Z</time>
      </trkpt>
      <trkpt lat="46.11154580488801" lon="8.42225817963481">
        <ele>1605.54</ele>
        <time>2017-06-03T08:45:24Z</time>
      </trkpt>
      <trkpt lat="46.111550917848945" lon="8.422333030030131">
        <ele>1607.46</ele>
        <time>2017-06-03T08:45:34Z</time>
      </trkpt>
      <trkpt lat="46.111565586179495" lon="8.422407377511263">
        <ele>1608.9000000000001</ele>
        <time>2017-06-03T08:45:44Z</time>
      </trkpt>
      <trkpt lat="46.11157413572073" lon="8.422522628679872">
        <ele>1610.3499999999999</ele>
        <time>2017-06-03T08:45:54Z</time>
      </trkpt>
      <trkpt lat="46.111610513180494" lon="8.422666629776359">
        <ele>1610.8299999999999</ele>
        <time>2017-06-03T08:46:04Z</time>
      </trkpt>
      <trkpt lat="46.111613698303699" lon="8.422677107155323">
        <ele>1610.8299999999999</ele>
        <time>2017-06-03T08:46:05Z</time>
      </trkpt>
      <trkpt lat="46.111622834578156" lon="8.42280057258904">
        <ele>1611.79</ele>
        <time>2017-06-03T08:46:15Z</time>
      </trkpt>
      <trkpt lat="46.11161814071238" lon="8.422887325286865">
        <ele>1613.23</ele>
        <time>2017-06-03T08:46:24Z</time>
      </trkpt>
      <trkpt lat="46.111609926447272" lon="8.423038702458143">
        <ele>1612.27</ele>
        <time>2017-06-03T08:46:34Z</time>
      </trkpt>
      <trkpt lat="46.111593497917056" lon="8.423185301944614">
        <ele>1611.3099999999999</ele>
        <time>2017-06-03T08:46:46Z</time>
      </trkpt>
      <trkpt lat="46.111577320843935" lon="8.423309605568647">
        <ele>1610.8299999999999</ele>
        <time>2017-06-03T08:46:57Z</time>
      </trkpt>
      <trkpt lat="46.111563742160797" lon="8.423420079052448">
        <ele>1612.27</ele>
        <time>2017-06-03T08:47:09Z</time>
      </trkpt>
      <trkpt lat="46.111539099365473" lon="8.423502389341593">
        <ele>1612.75</ele>
        <time>2017-06-03T08:47:18Z</time>
      </trkpt>
      <trkpt lat="46.111540608108044" lon="8.423612946644425">
        <ele>1612.75</ele>
        <time>2017-06-03T08:47:29Z</time>
      </trkpt>
      <trkpt lat="46.111553683876991" lon="8.423641361296177">
        <ele>1612.75</ele>
        <time>2017-06-03T08:47:36Z</time>
      </trkpt>
      <trkpt lat="46.111518563702703" lon="8.42367522418499">
        <ele>1612.75</ele>
        <time>2017-06-03T08:47:46Z</time>
      </trkpt>
      <trkpt lat="46.111525185406208" lon="8.423763150349259">
        <ele>1612.75</ele>
        <time>2017-06-03T08:47:57Z</time>
      </trkpt>
      <trkpt lat="46.111542200669646" lon="8.423753762617707">
        <ele>1612.27</ele>
        <time>2017-06-03T08:48:00Z</time>
      </trkpt>
      <trkpt lat="46.111559383571148" lon="8.423804892227054">
        <ele>1613.23</ele>
        <time>2017-06-03T08:48:09Z</time>
      </trkpt>
      <trkpt lat="46.111584696918726" lon="8.42387261800468">
        <ele>1613.71</ele>
        <time>2017-06-03T08:48:18Z</time>
      </trkpt>
      <trkpt lat="46.111617302522063" lon="8.423915952444077">
        <ele>1616.1099999999999</ele>
        <time>2017-06-03T08:48:25Z</time>
      </trkpt>
      <trkpt lat="46.111653512343764" lon="8.423974290490151">
        <ele>1616.5899999999999</ele>
        <time>2017-06-03T08:48:36Z</time>
      </trkpt>
      <trkpt lat="46.111714616417885" lon="8.4240045491606">
        <ele>1616.5899999999999</ele>
        <time>2017-06-03T08:48:45Z</time>
      </trkpt>
      <trkpt lat="46.111748982220888" lon="8.424063390120864">
        <ele>1618.52</ele>
        <time>2017-06-03T08:48:54Z</time>
      </trkpt>
      <trkpt lat="46.111767422407866" lon="8.424106473103166">
        <ele>1620.4400000000001</ele>
        <time>2017-06-03T08:49:05Z</time>
      </trkpt>
      <trkpt lat="46.111791143193841" lon="8.424187107011676">
        <ele>1622.3599999999999</ele>
        <time>2017-06-03T08:49:16Z</time>
      </trkpt>
      <trkpt lat="46.111721741035581" lon="8.424220299348235">
        <ele>1623.8</ele>
        <time>2017-06-03T08:49:26Z</time>
      </trkpt>
      <trkpt lat="46.111658960580826" lon="8.424231698736548">
        <ele>1625.25</ele>
        <time>2017-06-03T08:49:36Z</time>
      </trkpt>
      <trkpt lat="46.111702546477318" lon="8.424284756183624">
        <ele>1626.6900000000001</ele>
        <time>2017-06-03T08:49:47Z</time>
      </trkpt>
      <trkpt lat="46.111751412972808" lon="8.42433144338429">
        <ele>1627.6500000000001</ele>
        <time>2017-06-03T08:49:56Z</time>
      </trkpt>
      <trkpt lat="46.111799273639917" lon="8.42438374646008">
        <ele>1629.0899999999999</ele>
        <time>2017-06-03T08:50:06Z</time>
      </trkpt>
      <trkpt lat="46.111824670806527" lon="8.424436636269093">
        <ele>1631.01</ele>
        <time>2017-06-03T08:50:15Z</time>
      </trkpt>
      <trkpt lat="46.111882589757442" lon="8.42450050637126">
        <ele>1632.46</ele>
        <time>2017-06-03T08:50:25Z</time>
      </trkpt>
      <trkpt lat="46.111934641376138" lon="8.424558006227016">
        <ele>1634.3800000000001</ele>
        <time>2017-06-03T08:50:36Z</time>
      </trkpt>
      <trkpt lat="46.111992308869958" lon="8.424646267667413">
        <ele>1635.3399999999999</ele>
        <time>2017-06-03T08:50:47Z</time>
      </trkpt>
      <trkpt lat="46.112010832875967" lon="8.424728745594621">
        <ele>1636.78</ele>
        <time>2017-06-03T08:50:56Z</time>
      </trkpt>
      <trkpt lat="46.112032542005181" lon="8.424837542697787">
        <ele>1637.26</ele>
        <time>2017-06-03T08:51:04Z</time>
      </trkpt>
      <trkpt lat="46.112042181193829" lon="8.424859503284097">
        <ele>1637.74</ele>
        <time>2017-06-03T08:51:06Z</time>
      </trkpt>
      <trkpt lat="46.112048719078302" lon="8.424895629286766">
        <ele>1638.22</ele>
        <time>2017-06-03T08:51:10Z</time>
      </trkpt>
      <trkpt lat="46.112063638865948" lon="8.424923541024327">
        <ele>1637.74</ele>
        <time>2017-06-03T08:51:13Z</time>
      </trkpt>
      <trkpt lat="46.112077552825212" lon="8.425027225166559">
        <ele>1636.78</ele>
        <time>2017-06-03T08:51:21Z</time>
      </trkpt>
      <trkpt lat="46.112053329125047" lon="8.425094028934836">
        <ele>1639.1900000000001</ele>
        <time>2017-06-03T08:51:33Z</time>
      </trkpt>
      <trkpt lat="46.112059028819203" lon="8.425198132172227">
        <ele>1641.5899999999999</ele>
        <time>2017-06-03T08:51:46Z</time>
      </trkpt>
      <trkpt lat="46.112049305811524" lon="8.42530726455152">
        <ele>1643.03</ele>
        <time>2017-06-03T08:51:58Z</time>
      </trkpt>
      <trkpt lat="46.112052574753761" lon="8.425402818247676">
        <ele>1644.47</ele>
        <time>2017-06-03T08:52:10Z</time>
      </trkpt>
      <trkpt lat="46.112012257799506" lon="8.425536928698421">
        <ele>1645.9100000000001</ele>
        <time>2017-06-03T08:52:21Z</time>
      </trkpt>
      <trkpt lat="46.112012844532728" lon="8.425670620054007">
        <ele>1646.4000000000001</ele>
        <time>2017-06-03T08:52:31Z</time>
      </trkpt>
      <trkpt lat="46.111998176202178" lon="8.425717642530799">
        <ele>1646.8800000000001</ele>
        <time>2017-06-03T08:52:35Z</time>
      </trkpt>
      <trkpt lat="46.111963642761111" lon="8.425868600606918">
        <ele>1647.3599999999999</ele>
        <time>2017-06-03T08:52:45Z</time>
      </trkpt>
      <trkpt lat="46.111981412395835" lon="8.426000867038965">
        <ele>1648.3199999999999</ele>
        <time>2017-06-03T08:52:56Z</time>
      </trkpt>
      <trkpt lat="46.11196992918849" lon="8.426075801253319">
        <ele>1649.76</ele>
        <time>2017-06-03T08:53:06Z</time>
      </trkpt>
      <trkpt lat="46.111964983865619" lon="8.42611251398921">
        <ele>1650.24</ele>
        <time>2017-06-03T08:53:09Z</time>
      </trkpt>
      <trkpt lat="46.111952243372798" lon="8.426234051585197">
        <ele>1651.2</ele>
        <time>2017-06-03T08:53:19Z</time>
      </trkpt>
      <trkpt lat="46.111942939460278" lon="8.426351062953472">
        <ele>1652.6400000000001</ele>
        <time>2017-06-03T08:53:30Z</time>
      </trkpt>
      <trkpt lat="46.111928857862949" lon="8.426447957754135">
        <ele>1653.1199999999999</ele>
        <time>2017-06-03T08:53:38Z</time>
      </trkpt>
      <trkpt lat="46.111950902268291" lon="8.426610063761473">
        <ele>1653.5999999999999</ele>
        <time>2017-06-03T08:53:49Z</time>
      </trkpt>
      <trkpt lat="46.111956434324384" lon="8.426653146743774">
        <ele>1654.5699999999999</ele>
        <time>2017-06-03T08:53:58Z</time>
      </trkpt>
      <trkpt lat="46.111960709095001" lon="8.426701510325074">
        <ele>1654.5699999999999</ele>
        <time>2017-06-03T08:54:02Z</time>
      </trkpt>
      <trkpt lat="46.111970264464617" lon="8.426772421225905">
        <ele>1654.5699999999999</ele>
        <time>2017-06-03T08:54:11Z</time>
      </trkpt>
      <trkpt lat="46.111990632489324" lon="8.426773510873318">
        <ele>1655.53</ele>
        <time>2017-06-03T08:54:21Z</time>
      </trkpt>
      <trkpt lat="46.112009072676301" lon="8.42678340151906">
        <ele>1655.53</ele>
        <time>2017-06-03T08:54:35Z</time>
      </trkpt>
      <trkpt lat="46.111999936401844" lon="8.426817180588841">
        <ele>1655.53</ele>
        <time>2017-06-03T08:54:47Z</time>
      </trkpt>
      <trkpt lat="46.111989123746753" lon="8.426779294386506">
        <ele>1654.5699999999999</ele>
        <time>2017-06-03T08:54:56Z</time>
      </trkpt>
      <trkpt lat="46.111971605569124" lon="8.426766134798527">
        <ele>1655.05</ele>
        <time>2017-06-03T08:55:15Z</time>
      </trkpt>
      <trkpt lat="46.111978646367788" lon="8.42680393718183">
        <ele>1655.05</ele>
        <time>2017-06-03T08:55:29Z</time>
      </trkpt>
      <trkpt lat="46.112015023827553" lon="8.426742078736424">
        <ele>1655.05</ele>
        <time>2017-06-03T08:55:49Z</time>
      </trkpt>
      <trkpt lat="46.111990381032228" lon="8.426757752895355">
        <ele>1655.53</ele>
        <time>2017-06-03T08:56:09Z</time>
      </trkpt>
      <trkpt lat="46.111984262242913" lon="8.426760267466307">
        <ele>1655.53</ele>
        <time>2017-06-03T08:56:23Z</time>
      </trkpt>
      <trkpt lat="46.111987950280309" lon="8.426769739016891">
        <ele>1655.53</ele>
        <time>2017-06-03T08:56:46Z</time>
      </trkpt>
      <trkpt lat="46.111984010785818" lon="8.426710227504373">
        <ele>1655.53</ele>
        <time>2017-06-03T08:57:04Z</time>
      </trkpt>
      <trkpt lat="46.111969174817204" lon="8.426710227504373">
        <ele>1655.53</ele>
        <time>2017-06-03T08:57:21Z</time>
      </trkpt>
      <trkpt lat="46.111968923360109" lon="8.426717100664973">
        <ele>1656.01</ele>
        <time>2017-06-03T08:57:37Z</time>
      </trkpt>
      <trkpt lat="46.111967749893665" lon="8.426739983260632">
        <ele>1656.01</ele>
        <time>2017-06-03T08:57:57Z</time>
      </trkpt>
      <trkpt lat="46.111999852582812" lon="8.426722045987845">
        <ele>1656.01</ele>
        <time>2017-06-03T08:58:25Z</time>
      </trkpt>
      <trkpt lat="46.111975712701678" lon="8.426757417619228">
        <ele>1656.01</ele>
        <time>2017-06-03T08:58:48Z</time>
      </trkpt>
      <trkpt lat="46.111981328576803" lon="8.426740234717727">
        <ele>1656.49</ele>
        <time>2017-06-03T08:59:10Z</time>
      </trkpt>
      <trkpt lat="46.11196506768465" lon="8.426743755117059">
        <ele>1656.49</ele>
        <time>2017-06-03T08:59:37Z</time>
      </trkpt>
      <trkpt lat="46.112031200900674" lon="8.426742916926742">
        <ele>1656.49</ele>
        <time>2017-06-03T08:59:58Z</time>
      </trkpt>
      <trkpt lat="46.112020807340741" lon="8.426759010180831">
        <ele>1656.49</ele>
        <time>2017-06-03T09:00:22Z</time>
      </trkpt>
      <trkpt lat="46.111991638317704" lon="8.426745599135757">
        <ele>1656.97</ele>
        <time>2017-06-03T09:00:45Z</time>
      </trkpt>
      <trkpt lat="46.111991973593831" lon="8.426761189475656">
        <ele>1656.97</ele>
        <time>2017-06-03T09:01:18Z</time>
      </trkpt>
      <trkpt lat="46.11200949177146" lon="8.426703102886677">
        <ele>1656.97</ele>
        <time>2017-06-03T09:01:45Z</time>
      </trkpt>
      <trkpt lat="46.111986022442579" lon="8.426687680184841">
        <ele>1657.45</ele>
        <time>2017-06-03T09:02:09Z</time>
      </trkpt>
      <trkpt lat="46.111963894218206" lon="8.426654823124409">
        <ele>1657.45</ele>
        <time>2017-06-03T09:02:33Z</time>
      </trkpt>
      <trkpt lat="46.111973114311695" lon="8.426666222512722">
        <ele>1657.45</ele>
        <time>2017-06-03T09:02:48Z</time>
      </trkpt>
      <trkpt lat="46.111975628882647" lon="8.426783066242933">
        <ele>1657.45</ele>
        <time>2017-06-03T09:03:10Z</time>
      </trkpt>
      <trkpt lat="46.111990297213197" lon="8.426822628825903">
        <ele>1657.45</ele>
        <time>2017-06-03T09:03:29Z</time>
      </trkpt>
      <trkpt lat="46.111976634711027" lon="8.42682296410203">
        <ele>1657.9300000000001</ele>
        <time>2017-06-03T09:03:56Z</time>
      </trkpt>
      <trkpt lat="46.11196112819016" lon="8.426801674067974">
        <ele>1657.9300000000001</ele>
        <time>2017-06-03T09:04:12Z</time>
      </trkpt>
      <trkpt lat="46.11198216676712" lon="8.426769822835922">
        <ele>1657.9300000000001</ele>
        <time>2017-06-03T09:04:31Z</time>
      </trkpt>
      <trkpt lat="46.111948639154434" lon="8.426836458966136">
        <ele>1658.4100000000001</ele>
        <time>2017-06-03T09:04:56Z</time>
      </trkpt>
      <trkpt lat="46.111947298049927" lon="8.426867388188839">
        <ele>1658.4100000000001</ele>
        <time>2017-06-03T09:05:21Z</time>
      </trkpt>
      <trkpt lat="46.111974371597171" lon="8.426792118698359">
        <ele>1657.9300000000001</ele>
        <time>2017-06-03T09:05:35Z</time>
      </trkpt>
      <trkpt lat="46.111963056027889" lon="8.42677753418684">
        <ele>1658.4100000000001</ele>
        <time>2017-06-03T09:06:01Z</time>
      </trkpt>
      <trkpt lat="46.111967749893665" lon="8.426725985482335">
        <ele>1658.4100000000001</ele>
        <time>2017-06-03T09:06:30Z</time>
      </trkpt>
      <trkpt lat="46.111986273899674" lon="8.426690194755793">
        <ele>1658.4100000000001</ele>
        <time>2017-06-03T09:06:58Z</time>
      </trkpt>
      <trkpt lat="46.112004881724715" lon="8.426702683791518">
        <ele>1658.8900000000001</ele>
        <time>2017-06-03T09:07:20Z</time>
      </trkpt>
      <trkpt lat="46.111996499821544" lon="8.426713077351451">
        <ele>1658.4100000000001</ele>
        <time>2017-06-03T09:07:42Z</time>
      </trkpt>
      <trkpt lat="46.11201343126595" lon="8.42667443677783">
        <ele>1658.4100000000001</ele>
        <time>2017-06-03T09:08:00Z</time>
      </trkpt>
      <trkpt lat="46.112030949443579" lon="8.426664546132088">
        <ele>1658.8900000000001</ele>
        <time>2017-06-03T09:08:29Z</time>
      </trkpt>
      <trkpt lat="46.111998679116368" lon="8.42664753086865">
        <ele>1658.8900000000001</ele>
        <time>2017-06-03T09:08:55Z</time>
      </trkpt>
      <trkpt lat="46.111993314698339" lon="8.426638646051288">
        <ele>1659.8499999999999</ele>
        <time>2017-06-03T09:09:14Z</time>
      </trkpt>
      <trkpt lat="46.111965570598841" lon="8.426719615235925">
        <ele>1659.3699999999999</ele>
        <time>2017-06-03T09:09:25Z</time>
      </trkpt>
      <trkpt lat="46.111948387697339" lon="8.426778204739094">
        <ele>1659.8499999999999</ele>
        <time>2017-06-03T09:09:40Z</time>
      </trkpt>
      <trkpt lat="46.111962888389826" lon="8.426880212500691">
        <ele>1659.8499999999999</ele>
        <time>2017-06-03T09:09:51Z</time>
      </trkpt>
      <trkpt lat="46.111973701044917" lon="8.42686302959919">
        <ele>1659.8499999999999</ele>
        <time>2017-06-03T09:10:02Z</time>
      </trkpt>
      <trkpt lat="46.111984429880977" lon="8.426857497543097">
        <ele>1659.8499999999999</ele>
        <time>2017-06-03T09:10:17Z</time>
      </trkpt>
      <trkpt lat="46.111968504264951" lon="8.426835369318724">
        <ele>1660.3299999999999</ele>
        <time>2017-06-03T09:10:29Z</time>
      </trkpt>
      <trkpt lat="46.111938832327724" lon="8.42685230076313">
        <ele>1659.8499999999999</ele>
        <time>2017-06-03T09:10:36Z</time>
      </trkpt>
      <trkpt lat="46.111915865913033" lon="8.42677946202457">
        <ele>1660.3299999999999</ele>
        <time>2017-06-03T09:10:45Z</time>
      </trkpt>
      <trkpt lat="46.111910250037909" lon="8.426742581650615">
        <ele>1659.8499999999999</ele>
        <time>2017-06-03T09:10:47Z</time>
      </trkpt>
      <trkpt lat="46.11190396361053" lon="8.426726907491684">
        <ele>1659.8499999999999</ele>
        <time>2017-06-03T09:10:59Z</time>
      </trkpt>
      <trkpt lat="46.111850067973137" lon="8.426720872521401">
        <ele>1660.8099999999999</ele>
        <time>2017-06-03T09:11:09Z</time>
      </trkpt>
      <trkpt lat="46.111802458763123" lon="8.426713077351451">
        <ele>1661.78</ele>
        <time>2017-06-03T09:11:17Z</time>
      </trkpt>
      <trkpt lat="46.111731799319386" lon="8.426712239161134">
        <ele>1663.22</ele>
        <time>2017-06-03T09:11:27Z</time>
      </trkpt>
      <trkpt lat="46.111679747700691" lon="8.426615595817566">
        <ele>1666.0999999999999</ele>
        <time>2017-06-03T09:11:40Z</time>
      </trkpt>
      <trkpt lat="46.111670779064298" lon="8.426520545035601">
        <ele>1667.54</ele>
        <time>2017-06-03T09:11:51Z</time>
      </trkpt>
      <trkpt lat="46.111633479595184" lon="8.42647360637784">
        <ele>1668.99</ele>
        <time>2017-06-03T09:12:01Z</time>
      </trkpt>
      <trkpt lat="46.111608920618892" lon="8.426397331058979">
        <ele>1670.4300000000001</ele>
        <time>2017-06-03T09:12:10Z</time>
      </trkpt>
      <trkpt lat="46.111577153205872" lon="8.426361372694373">
        <ele>1671.8699999999999</ele>
        <time>2017-06-03T09:12:20Z</time>
      </trkpt>
      <trkpt lat="46.111541613936424" lon="8.426294066011906">
        <ele>1673.79</ele>
        <time>2017-06-03T09:12:31Z</time>
      </trkpt>
      <trkpt lat="46.111523006111383" lon="8.426198931410909">
        <ele>1674.75</ele>
        <time>2017-06-03T09:12:41Z</time>
      </trkpt>
      <trkpt lat="46.111517557874322" lon="8.426117710769177">
        <ele>1676.2</ele>
        <time>2017-06-03T09:12:50Z</time>
      </trkpt>
      <trkpt lat="46.111478246748447" lon="8.426095750182867">
        <ele>1678.5999999999999</ele>
        <time>2017-06-03T09:13:03Z</time>
      </trkpt>
      <trkpt lat="46.11144807189703" lon="8.426028359681368">
        <ele>1680.52</ele>
        <time>2017-06-03T09:13:15Z</time>
      </trkpt>
      <trkpt lat="46.111412616446614" lon="8.426000196486712">
        <ele>1682.4400000000001</ele>
        <time>2017-06-03T09:13:26Z</time>
      </trkpt>
      <trkpt lat="46.11138017848134" lon="8.42595518566668">
        <ele>1684.3699999999999</ele>
        <time>2017-06-03T09:13:37Z</time>
      </trkpt>
      <trkpt lat="46.111377999186516" lon="8.425917299464345">
        <ele>1685.3299999999999</ele>
        <time>2017-06-03T09:13:45Z</time>
      </trkpt>
      <trkpt lat="46.111341873183846" lon="8.425942109897733">
        <ele>1687.25</ele>
        <time>2017-06-03T09:13:54Z</time>
      </trkpt>
      <trkpt lat="46.111313207075" lon="8.425900870934129">
        <ele>1689.1700000000001</ele>
        <time>2017-06-03T09:14:07Z</time>
      </trkpt>
      <trkpt lat="46.111307004466653" lon="8.425779668614268">
        <ele>1691.0999999999999</ele>
        <time>2017-06-03T09:14:20Z</time>
      </trkpt>
      <trkpt lat="46.111280517652631" lon="8.425802802667022">
        <ele>1692.54</ele>
        <time>2017-06-03T09:14:31Z</time>
      </trkpt>
      <trkpt lat="46.111265178769827" lon="8.425775812938809">
        <ele>1693.98</ele>
        <time>2017-06-03T09:14:40Z</time>
      </trkpt>
      <trkpt lat="46.111269872635603" lon="8.425740860402584">
        <ele>1694.46</ele>
        <time>2017-06-03T09:14:53Z</time>
      </trkpt>
      <trkpt lat="46.111238105222583" lon="8.425792744383216">
        <ele>1694.9400000000001</ele>
        <time>2017-06-03T09:15:04Z</time>
      </trkpt>
      <trkpt lat="46.111217737197876" lon="8.425839096307755">
        <ele>1695.9000000000001</ele>
        <time>2017-06-03T09:15:14Z</time>
      </trkpt>
      <trkpt lat="46.111186807975173" lon="8.425830211490393">
        <ele>1697.8299999999999</ele>
        <time>2017-06-03T09:15:22Z</time>
      </trkpt>
      <trkpt lat="46.111168954521418" lon="8.425728874281049">
        <ele>1700.23</ele>
        <time>2017-06-03T09:15:35Z</time>
      </trkpt>
      <trkpt lat="46.111169205978513" lon="8.425683528184891">
        <ele>1701.6700000000001</ele>
        <time>2017-06-03T09:15:47Z</time>
      </trkpt>
      <trkpt lat="46.111147161573172" lon="8.425673386082053">
        <ele>1702.1500000000001</ele>
        <time>2017-06-03T09:15:55Z</time>
      </trkpt>
      <trkpt lat="46.111120926216245" lon="8.425677241757512">
        <ele>1702.6300000000001</ele>
        <time>2017-06-03T09:16:17Z</time>
      </trkpt>
      <trkpt lat="46.111099133267999" lon="8.425622340291739">
        <ele>1705.52</ele>
        <time>2017-06-03T09:16:30Z</time>
      </trkpt>
      <trkpt lat="46.111085889860988" lon="8.425579508766532">
        <ele>1706.48</ele>
        <time>2017-06-03T09:16:41Z</time>
      </trkpt>
      <trkpt lat="46.111036436632276" lon="8.425579927861691">
        <ele>1707.9200000000001</ele>
        <time>2017-06-03T09:16:53Z</time>
      </trkpt>
      <trkpt lat="46.11097801476717" lon="8.425518488511443">
        <ele>1710.8</ele>
        <time>2017-06-03T09:17:05Z</time>
      </trkpt>
      <trkpt lat="46.110911294817924" lon="8.425505999475718">
        <ele>1711.76</ele>
        <time>2017-06-03T09:17:14Z</time>
      </trkpt>
      <trkpt lat="46.110831834375858" lon="8.425455121323466">
        <ele>1714.1700000000001</ele>
        <time>2017-06-03T09:17:26Z</time>
      </trkpt>
      <trkpt lat="46.110788248479366" lon="8.425425281748176">
        <ele>1714.6500000000001</ele>
        <time>2017-06-03T09:17:36Z</time>
      </trkpt>
      <trkpt lat="46.110758408904076" lon="8.425412876531482">
        <ele>1715.6099999999999</ele>
        <time>2017-06-03T09:17:47Z</time>
      </trkpt>
      <trkpt lat="46.110709710046649" lon="8.425375828519464">
        <ele>1716.5699999999999</ele>
        <time>2017-06-03T09:17:56Z</time>
      </trkpt>
      <trkpt lat="46.110669812187552" lon="8.425346408039331">
        <ele>1717.05</ele>
        <time>2017-06-03T09:18:01Z</time>
      </trkpt>
      <trkpt lat="46.110595464706421" lon="8.425359902903438">
        <ele>1718.49</ele>
        <time>2017-06-03T09:18:11Z</time>
      </trkpt>
      <trkpt lat="46.110541317611933" lon="8.425381863489747">
        <ele>1719.46</ele>
        <time>2017-06-03T09:18:19Z</time>
      </trkpt>
      <trkpt lat="46.1104791238904" lon="8.425371050834656">
        <ele>1720.4200000000001</ele>
        <time>2017-06-03T09:18:28Z</time>
      </trkpt>
      <trkpt lat="46.110469568520784" lon="8.425354370847344">
        <ele>1720.9000000000001</ele>
        <time>2017-06-03T09:18:30Z</time>
      </trkpt>
      <trkpt lat="46.110426736995578" lon="8.425223529338837">
        <ele>1722.3399999999999</ele>
        <time>2017-06-03T09:18:42Z</time>
      </trkpt>
      <trkpt lat="46.110384995117784" lon="8.425188744440675">
        <ele>1723.3</ele>
        <time>2017-06-03T09:18:52Z</time>
      </trkpt>
      <trkpt lat="46.110331099480391" lon="8.425182541832328">
        <ele>1724.26</ele>
        <time>2017-06-03T09:19:01Z</time>
      </trkpt>
      <trkpt lat="46.110298158600926" lon="8.425146834924817">
        <ele>1726.1800000000001</ele>
        <time>2017-06-03T09:19:11Z</time>
      </trkpt>
      <trkpt lat="46.110260523855686" lon="8.425088915973902">
        <ele>1727.6300000000001</ele>
        <time>2017-06-03T09:19:21Z</time>
      </trkpt>
      <trkpt lat="46.110208472236991" lon="8.425050862133503">
        <ele>1729.0699999999999</ele>
        <time>2017-06-03T09:19:32Z</time>
      </trkpt>
      <trkpt lat="46.110160108655691" lon="8.425004174932838">
        <ele>1730.99</ele>
        <time>2017-06-03T09:19:44Z</time>
      </trkpt>
      <trkpt lat="46.110141584649682" lon="8.424960169941187">
        <ele>1732.4300000000001</ele>
        <time>2017-06-03T09:19:56Z</time>
      </trkpt>
      <trkpt lat="46.110113086178899" lon="8.424946926534176">
        <ele>1734.8399999999999</ele>
        <time>2017-06-03T09:20:08Z</time>
      </trkpt>
      <trkpt lat="46.110075116157532" lon="8.424966875463724">
        <ele>1736.28</ele>
        <time>2017-06-03T09:20:18Z</time>
      </trkpt>
      <trkpt lat="46.110053407028317" lon="8.424932509660721">
        <ele>1737.72</ele>
        <time>2017-06-03T09:20:27Z</time>
      </trkpt>
      <trkpt lat="46.110016526654363" lon="8.424938963726163">
        <ele>1739.1600000000001</ele>
        <time>2017-06-03T09:20:36Z</time>
      </trkpt>
      <trkpt lat="46.109989369288087" lon="8.424959080293775">
        <ele>1742.05</ele>
        <time>2017-06-03T09:20:47Z</time>
      </trkpt>
      <trkpt lat="46.109964726492763" lon="8.424951955676079">
        <ele>1741.5699999999999</ele>
        <time>2017-06-03T09:20:58Z</time>
      </trkpt>
      <trkpt lat="46.109952321276069" lon="8.424914740025997">
        <ele>1743.97</ele>
        <time>2017-06-03T09:21:07Z</time>
      </trkpt>
      <trkpt lat="46.109958775341511" lon="8.424847349524498">
        <ele>1745.4100000000001</ele>
        <time>2017-06-03T09:21:20Z</time>
      </trkpt>
      <trkpt lat="46.109957434237003" lon="8.424799656495452">
        <ele>1747.8099999999999</ele>
        <time>2017-06-03T09:21:33Z</time>
      </trkpt>
      <trkpt lat="46.109934635460377" lon="8.424764955416322">
        <ele>1749.74</ele>
        <time>2017-06-03T09:21:44Z</time>
      </trkpt>
      <trkpt lat="46.109914686530828" lon="8.424730505794287">
        <ele>1750.7</ele>
        <time>2017-06-03T09:21:53Z</time>
      </trkpt>
      <trkpt lat="46.109872190281749" lon="8.424722878262401">
        <ele>1752.6199999999999</ele>
        <time>2017-06-03T09:22:05Z</time>
      </trkpt>
      <trkpt lat="46.109845200553536" lon="8.424695804715157">
        <ele>1754.54</ele>
        <time>2017-06-03T09:22:15Z</time>
      </trkpt>
      <trkpt lat="46.109779821708798" lon="8.424701504409313">
        <ele>1756.95</ele>
        <time>2017-06-03T09:22:27Z</time>
      </trkpt>
      <trkpt lat="46.109728692099452" lon="8.424641070887446">
        <ele>1758.3900000000001</ele>
        <time>2017-06-03T09:22:39Z</time>
      </trkpt>
      <trkpt lat="46.109702959656715" lon="8.424623804166913">
        <ele>1759.8299999999999</ele>
        <time>2017-06-03T09:22:50Z</time>
      </trkpt>
      <trkpt lat="46.10965677537024" lon="8.424624893814325">
        <ele>1761.27</ele>
        <time>2017-06-03T09:23:04Z</time>
      </trkpt>
      <trkpt lat="46.10959860496223" lon="8.424636041745544">
        <ele>1762.71</ele>
        <time>2017-06-03T09:23:15Z</time>
      </trkpt>
      <trkpt lat="46.109509002417326" lon="8.424631599336863">
        <ele>1764.6400000000001</ele>
        <time>2017-06-03T09:23:26Z</time>
      </trkpt>
      <trkpt lat="46.109448233619332" lon="8.424614081159234">
        <ele>1765.5999999999999</ele>
        <time>2017-06-03T09:23:35Z</time>
      </trkpt>
      <trkpt lat="46.109402552247047" lon="8.424565885215998">
        <ele>1767.52</ele>
        <time>2017-06-03T09:23:46Z</time>
      </trkpt>
      <trkpt lat="46.109353015199304" lon="8.42457627877593">
        <ele>1768.96</ele>
        <time>2017-06-03T09:23:55Z</time>
      </trkpt>
      <trkpt lat="46.109317140653729" lon="8.424537722021341">
        <ele>1770.8900000000001</ele>
        <time>2017-06-03T09:24:05Z</time>
      </trkpt>
      <trkpt lat="46.109287133440375" lon="8.424510732293129">
        <ele>1772.3299999999999</ele>
        <time>2017-06-03T09:24:16Z</time>
      </trkpt>
      <trkpt lat="46.10925855115056" lon="8.424493297934532">
        <ele>1773.29</ele>
        <time>2017-06-03T09:24:25Z</time>
      </trkpt>
      <trkpt lat="46.109248157590628" lon="8.424478964880109">
        <ele>1774.73</ele>
        <time>2017-06-03T09:24:36Z</time>
      </trkpt>
      <trkpt lat="46.10924874432385" lon="8.424423057585955">
        <ele>1775.6900000000001</ele>
        <time>2017-06-03T09:24:44Z</time>
      </trkpt>
      <trkpt lat="46.109245056286454" lon="8.424426158890128">
        <ele>1777.6099999999999</ele>
        <time>2017-06-03T09:24:55Z</time>
      </trkpt>
      <trkpt lat="46.109234998002648" lon="8.424398247152567">
        <ele>1779.0599999999999</ele>
        <time>2017-06-03T09:25:04Z</time>
      </trkpt>
      <trkpt lat="46.109210606664419" lon="8.424355080351234">
        <ele>1779.54</ele>
        <time>2017-06-03T09:25:14Z</time>
      </trkpt>
      <trkpt lat="46.109229298308492" lon="8.424397492781282">
        <ele>1778.5799999999999</ele>
        <time>2017-06-03T09:25:27Z</time>
      </trkpt>
      <trkpt lat="46.109226951375604" lon="8.424406126141548">
        <ele>1779.0599999999999</ele>
        <time>2017-06-03T09:25:51Z</time>
      </trkpt>
      <trkpt lat="46.109225442633033" lon="8.424402857199311">
        <ele>1779.54</ele>
        <time>2017-06-03T09:26:00Z</time>
      </trkpt>
      <trkpt lat="46.109230387955904" lon="8.424316020682454">
        <ele>1781.9400000000001</ele>
        <time>2017-06-03T09:26:10Z</time>
      </trkpt>
      <trkpt lat="46.109216725453734" lon="8.424296909943223">
        <ele>1783.8599999999999</ele>
        <time>2017-06-03T09:26:19Z</time>
      </trkpt>
      <trkpt lat="46.109237931668758" lon="8.424240835011005">
        <ele>1785.3099999999999</ele>
        <time>2017-06-03T09:26:28Z</time>
      </trkpt>
      <trkpt lat="46.109242122620344" lon="8.424211330711842">
        <ele>1786.75</ele>
        <time>2017-06-03T09:26:37Z</time>
      </trkpt>
      <trkpt lat="46.109236925840378" lon="8.424190627411008">
        <ele>1787.71</ele>
        <time>2017-06-03T09:26:47Z</time>
      </trkpt>
      <trkpt lat="46.109245391562581" lon="8.424176294356585">
        <ele>1788.6700000000001</ele>
        <time>2017-06-03T09:26:57Z</time>
      </trkpt>
      <trkpt lat="46.109220078215003" lon="8.424158692359924">
        <ele>1790.5899999999999</ele>
        <time>2017-06-03T09:27:07Z</time>
      </trkpt>
      <trkpt lat="46.109210690483451" lon="8.424153914675117">
        <ele>1791.55</ele>
        <time>2017-06-03T09:27:17Z</time>
      </trkpt>
      <trkpt lat="46.109187807887793" lon="8.424162212759256">
        <ele>1793.48</ele>
        <time>2017-06-03T09:27:27Z</time>
      </trkpt>
      <trkpt lat="46.109172636643052" lon="8.424171851947904">
        <ele>1794.9200000000001</ele>
        <time>2017-06-03T09:27:39Z</time>
      </trkpt>
      <trkpt lat="46.109191412106156" lon="8.424114184454083">
        <ele>1795.8800000000001</ele>
        <time>2017-06-03T09:27:50Z</time>
      </trkpt>
      <trkpt lat="46.109137516468763" lon="8.424108903855085">
        <ele>1798.76</ele>
        <time>2017-06-03T09:28:02Z</time>
      </trkpt>
      <trkpt lat="46.109116394072771" lon="8.424156093969941">
        <ele>1799.73</ele>
        <time>2017-06-03T09:28:18Z</time>
      </trkpt>
      <trkpt lat="46.109093343839049" lon="8.424114352092147">
        <ele>1801.6500000000001</ele>
        <time>2017-06-03T09:28:33Z</time>
      </trkpt>
      <trkpt lat="46.109069203957915" lon="8.424102198332548">
        <ele>1804.05</ele>
        <time>2017-06-03T09:28:44Z</time>
      </trkpt>
      <trkpt lat="46.109043890610337" lon="8.424078729003668">
        <ele>1805.49</ele>
        <time>2017-06-03T09:28:55Z</time>
      </trkpt>
      <trkpt lat="46.1090147215873" lon="8.42407981865108">
        <ele>1806.9400000000001</ele>
        <time>2017-06-03T09:29:05Z</time>
      </trkpt>
      <trkpt lat="46.10897365026176" lon="8.424034304916859">
        <ele>1808.8599999999999</ele>
        <time>2017-06-03T09:29:15Z</time>
      </trkpt>
      <trkpt lat="46.10893408767879" lon="8.423962472006679">
        <ele>1809.8199999999999</ele>
        <time>2017-06-03T09:29:28Z</time>
      </trkpt>
      <trkpt lat="46.108896285295486" lon="8.423925843089819">
        <ele>1810.3</ele>
        <time>2017-06-03T09:29:38Z</time>
      </trkpt>
      <trkpt lat="46.108849011361599" lon="8.423929279670119">
        <ele>1811.74</ele>
        <time>2017-06-03T09:29:50Z</time>
      </trkpt>
      <trkpt lat="46.108847334980965" lon="8.423911593854427">
        <ele>1815.1099999999999</ele>
        <time>2017-06-03T09:29:55Z</time>
      </trkpt>
      <trkpt lat="46.10883635468781" lon="8.423894494771957">
        <ele>1812.7</ele>
        <time>2017-06-03T09:29:58Z</time>
      </trkpt>
      <trkpt lat="46.108811963349581" lon="8.423890052363277">
        <ele>1814.6300000000001</ele>
        <time>2017-06-03T09:30:09Z</time>
      </trkpt>
      <trkpt lat="46.108773238956928" lon="8.423919221386313">
        <ele>1817.51</ele>
        <time>2017-06-03T09:30:21Z</time>
      </trkpt>
      <trkpt lat="46.108722276985645" lon="8.423882508650422">
        <ele>1819.4300000000001</ele>
        <time>2017-06-03T09:30:34Z</time>
      </trkpt>
      <trkpt lat="46.108677936717868" lon="8.423857698217034">
        <ele>1820.8699999999999</ele>
        <time>2017-06-03T09:30:46Z</time>
      </trkpt>
      <trkpt lat="46.108634853735566" lon="8.423869516700506">
        <ele>1821.8399999999999</ele>
        <time>2017-06-03T09:30:55Z</time>
      </trkpt>
      <trkpt lat="46.108603840693831" lon="8.423879658803344">
        <ele>1823.28</ele>
        <time>2017-06-03T09:31:04Z</time>
      </trkpt>
      <trkpt lat="46.108604092150927" lon="8.423817129805684">
        <ele>1823.76</ele>
        <time>2017-06-03T09:31:16Z</time>
      </trkpt>
      <trkpt lat="46.108582550659776" lon="8.423793660476804">
        <ele>1825.6800000000001</ele>
        <time>2017-06-03T09:31:27Z</time>
      </trkpt>
      <trkpt lat="46.108554136008024" lon="8.423782931640744">
        <ele>1826.1600000000001</ele>
        <time>2017-06-03T09:31:37Z</time>
      </trkpt>
      <trkpt lat="46.108534270897508" lon="8.423767928034067">
        <ele>1827.5999999999999</ele>
        <time>2017-06-03T09:31:46Z</time>
      </trkpt>
      <trkpt lat="46.108514070510864" lon="8.423760132864118">
        <ele>1829.05</ele>
        <time>2017-06-03T09:31:54Z</time>
      </trkpt>
      <trkpt lat="46.108487667515874" lon="8.423795588314533">
        <ele>1830.01</ele>
        <time>2017-06-03T09:32:03Z</time>
      </trkpt>
      <trkpt lat="46.108483225107193" lon="8.423777567222714">
        <ele>1830.49</ele>
        <time>2017-06-03T09:32:15Z</time>
      </trkpt>
      <trkpt lat="46.10844156704843" lon="8.423756947740912">
        <ele>1832.4100000000001</ele>
        <time>2017-06-03T09:32:25Z</time>
      </trkpt>
      <trkpt lat="46.108410554006696" lon="8.423743117600679">
        <ele>1833.8499999999999</ele>
        <time>2017-06-03T09:32:35Z</time>
      </trkpt>
      <trkpt lat="46.108376858755946" lon="8.423770610243082">
        <ele>1835.77</ele>
        <time>2017-06-03T09:32:46Z</time>
      </trkpt>
      <trkpt lat="46.108353808522224" lon="8.423770358785987">
        <ele>1837.22</ele>
        <time>2017-06-03T09:32:58Z</time>
      </trkpt>
      <trkpt lat="46.108332769945264" lon="8.423725850880146">
        <ele>1838.1800000000001</ele>
        <time>2017-06-03T09:33:09Z</time>
      </trkpt>
      <trkpt lat="46.108312150463462" lon="8.423711601644754">
        <ele>1839.1400000000001</ele>
        <time>2017-06-03T09:33:19Z</time>
      </trkpt>
      <trkpt lat="46.108289016410708" lon="8.423745464533567">
        <ele>1840.0999999999999</ele>
        <time>2017-06-03T09:33:28Z</time>
      </trkpt>
      <trkpt lat="46.108260853216052" lon="8.423715122044087">
        <ele>1841.54</ele>
        <time>2017-06-03T09:33:39Z</time>
      </trkpt>
      <trkpt lat="46.108262361958623" lon="8.423677990213037">
        <ele>1842.98</ele>
        <time>2017-06-03T09:33:51Z</time>
      </trkpt>
      <trkpt lat="46.10825733281672" lon="8.423669440671802">
        <ele>1842.98</ele>
        <time>2017-06-03T09:33:56Z</time>
      </trkpt>
      <trkpt lat="46.108212070539594" lon="8.423609342426062">
        <ele>1844.9100000000001</ele>
        <time>2017-06-03T09:34:06Z</time>
      </trkpt>
      <trkpt lat="46.10818549990654" lon="8.423585873097181">
        <ele>1845.8699999999999</ele>
        <time>2017-06-03T09:34:13Z</time>
      </trkpt>
      <trkpt lat="46.108170161023736" lon="8.423590315505862">
        <ele>1846.8299999999999</ele>
        <time>2017-06-03T09:34:21Z</time>
      </trkpt>
      <trkpt lat="46.108144512400031" lon="8.4236004576087">
        <ele>1847.79</ele>
        <time>2017-06-03T09:34:34Z</time>
      </trkpt>
      <trkpt lat="46.108124228194356" lon="8.423527535051107">
        <ele>1848.75</ele>
        <time>2017-06-03T09:34:44Z</time>
      </trkpt>
      <trkpt lat="46.108098411932588" lon="8.423507083207369">
        <ele>1848.75</ele>
        <time>2017-06-03T09:34:58Z</time>
      </trkpt>
      <trkpt lat="46.108115008100867" lon="8.423462910577655">
        <ele>1848.75</ele>
        <time>2017-06-03T09:35:20Z</time>
      </trkpt>
      <trkpt lat="46.108106458559632" lon="8.423437681049109">
        <ele>1849.71</ele>
        <time>2017-06-03T09:35:37Z</time>
      </trkpt>
      <trkpt lat="46.108110230416059" lon="8.423459306359291">
        <ele>1849.71</ele>
        <time>2017-06-03T09:35:50Z</time>
      </trkpt>
      <trkpt lat="46.108138225972652" lon="8.423460647463799">
        <ele>1849.23</ele>
        <time>2017-06-03T09:36:07Z</time>
      </trkpt>
      <trkpt lat="46.108143674209714" lon="8.423465928062797">
        <ele>1849.71</ele>
        <time>2017-06-03T09:36:29Z</time>
      </trkpt>
      <trkpt lat="46.108135376125574" lon="8.423442710191011">
        <ele>1850.1900000000001</ele>
        <time>2017-06-03T09:36:42Z</time>
      </trkpt>
      <trkpt lat="46.108139650896192" lon="8.423460312187672">
        <ele>1850.1900000000001</ele>
        <time>2017-06-03T09:36:55Z</time>
      </trkpt>
      <trkpt lat="46.108169741928577" lon="8.423467939719558">
        <ele>1849.23</ele>
        <time>2017-06-03T09:37:16Z</time>
      </trkpt>
      <trkpt lat="46.108168736100197" lon="8.423475231975317">
        <ele>1850.1900000000001</ele>
        <time>2017-06-03T09:37:29Z</time>
      </trkpt>
      <trkpt lat="46.108132023364305" lon="8.423456540331245">
        <ele>1852.1199999999999</ele>
        <time>2017-06-03T09:37:36Z</time>
      </trkpt>
      <trkpt lat="46.108095813542604" lon="8.423431143164635">
        <ele>1853.0799999999999</ele>
        <time>2017-06-03T09:37:47Z</time>
      </trkpt>
      <trkpt lat="46.108060609549284" lon="8.423476153984666">
        <ele>1855.48</ele>
        <time>2017-06-03T09:37:57Z</time>
      </trkpt>
      <trkpt lat="46.108043259009719" lon="8.4234450571239">
        <ele>1856.4400000000001</ele>
        <time>2017-06-03T09:38:05Z</time>
      </trkpt>
      <trkpt lat="46.108025070279837" lon="8.423472130671144">
        <ele>1856.9200000000001</ele>
        <time>2017-06-03T09:38:14Z</time>
      </trkpt>
      <trkpt lat="46.108006127178669" lon="8.423485038802028">
        <ele>1857.4000000000001</ele>
        <time>2017-06-03T09:38:25Z</time>
      </trkpt>
      <trkpt lat="46.107966396957636" lon="8.423459641635418">
        <ele>1859.3299999999999</ele>
        <time>2017-06-03T09:38:34Z</time>
      </trkpt>
      <trkpt lat="46.107954327017069" lon="8.423467101529241">
        <ele>1859.8099999999999</ele>
        <time>2017-06-03T09:38:44Z</time>
      </trkpt>
      <trkpt lat="46.107943933457136" lon="8.423436926677823">
        <ele>1860.77</ele>
        <time>2017-06-03T09:38:55Z</time>
      </trkpt>
      <trkpt lat="46.107927756384015" lon="8.423425275832415">
        <ele>1861.73</ele>
        <time>2017-06-03T09:39:05Z</time>
      </trkpt>
      <trkpt lat="46.107925660908222" lon="8.423452852293849">
        <ele>1862.6900000000001</ele>
        <time>2017-06-03T09:39:13Z</time>
      </trkpt>
      <trkpt lat="46.107903532683849" lon="8.423477411270142">
        <ele>1863.6500000000001</ele>
        <time>2017-06-03T09:39:23Z</time>
      </trkpt>
      <trkpt lat="46.107886685058475" lon="8.423456121236086">
        <ele>1865.0899999999999</ele>
        <time>2017-06-03T09:39:31Z</time>
      </trkpt>
      <trkpt lat="46.10787520185113" lon="8.423436842858791">
        <ele>1865.5799999999999</ele>
        <time>2017-06-03T09:39:34Z</time>
      </trkpt>
      <trkpt lat="46.107841925695539" lon="8.423385629430413">
        <ele>1866.54</ele>
        <time>2017-06-03T09:39:44Z</time>
      </trkpt>
      <trkpt lat="46.107790879905224" lon="8.423340367153287">
        <ele>1868.46</ele>
        <time>2017-06-03T09:39:54Z</time>
      </trkpt>
      <trkpt lat="46.10776380635798" lon="8.423367943614721">
        <ele>1870.3800000000001</ele>
        <time>2017-06-03T09:40:05Z</time>
      </trkpt>
      <trkpt lat="46.107762213796377" lon="8.423392754048109">
        <ele>1871.3399999999999</ele>
        <time>2017-06-03T09:40:15Z</time>
      </trkpt>
      <trkpt lat="46.107733128592372" lon="8.423377750441432">
        <ele>1872.79</ele>
        <time>2017-06-03T09:40:27Z</time>
      </trkpt>
      <trkpt lat="46.107704462483525" lon="8.423374649137259">
        <ele>1873.75</ele>
        <time>2017-06-03T09:40:34Z</time>
      </trkpt>
      <trkpt lat="46.107680825516582" lon="8.423381522297859">
        <ele>1875.1900000000001</ele>
        <time>2017-06-03T09:40:44Z</time>
      </trkpt>
      <trkpt lat="46.107638664543629" lon="8.423370542004705">
        <ele>1876.1500000000001</ele>
        <time>2017-06-03T09:40:56Z</time>
      </trkpt>
      <trkpt lat="46.10760061070323" lon="8.423344222828746">
        <ele>1877.1099999999999</ele>
        <time>2017-06-03T09:41:05Z</time>
      </trkpt>
      <trkpt lat="46.107578566297889" lon="8.423336008563638">
        <ele>1878.0699999999999</ele>
        <time>2017-06-03T09:41:13Z</time>
      </trkpt>
      <trkpt lat="46.107553336769342" lon="8.42330482788384">
        <ele>1879.03</ele>
        <time>2017-06-03T09:41:23Z</time>
      </trkpt>
      <trkpt lat="46.107538500800729" lon="8.423303067684174">
        <ele>1880.48</ele>
        <time>2017-06-03T09:41:31Z</time>
      </trkpt>
      <trkpt lat="46.107530957087874" lon="8.4233189933002">
        <ele>1881.4400000000001</ele>
        <time>2017-06-03T09:41:41Z</time>
      </trkpt>
      <trkpt lat="46.107518887147307" lon="8.423285549506545">
        <ele>1882.4000000000001</ele>
        <time>2017-06-03T09:41:51Z</time>
      </trkpt>
      <trkpt lat="46.107502793893218" lon="8.423259146511555">
        <ele>1883.8399999999999</ele>
        <time>2017-06-03T09:42:02Z</time>
      </trkpt>
      <trkpt lat="46.107490304857492" lon="8.423293428495526">
        <ele>1885.28</ele>
        <time>2017-06-03T09:42:10Z</time>
      </trkpt>
      <trkpt lat="46.107475217431784" lon="8.423300888389349">
        <ele>1886.72</ele>
        <time>2017-06-03T09:42:20Z</time>
      </trkpt>
      <trkpt lat="46.107443198561668" lon="8.4232930932194">
        <ele>1888.1700000000001</ele>
        <time>2017-06-03T09:42:30Z</time>
      </trkpt>
      <trkpt lat="46.107456358149648" lon="8.423319915309548">
        <ele>1889.6099999999999</ele>
        <time>2017-06-03T09:42:39Z</time>
      </trkpt>
      <trkpt lat="46.107428446412086" lon="8.423317903652787">
        <ele>1891.05</ele>
        <time>2017-06-03T09:42:47Z</time>
      </trkpt>
      <trkpt lat="46.107371617108583" lon="8.42330189421773">
        <ele>1891.53</ele>
        <time>2017-06-03T09:42:56Z</time>
      </trkpt>
      <trkpt lat="46.107358373701572" lon="8.423254955559969">
        <ele>1891.53</ele>
        <time>2017-06-03T09:43:06Z</time>
      </trkpt>
      <trkpt lat="46.107348063960671" lon="8.423258308321238">
        <ele>1892.49</ele>
        <time>2017-06-03T09:43:15Z</time>
      </trkpt>
      <trkpt lat="46.10734261572361" lon="8.423263421282172">
        <ele>1893.45</ele>
        <time>2017-06-03T09:43:21Z</time>
      </trkpt>
      <trkpt lat="46.107315877452493" lon="8.423270042985678">
        <ele>1894.4200000000001</ele>
        <time>2017-06-03T09:43:29Z</time>
      </trkpt>
      <trkpt lat="46.107284529134631" lon="8.423252440989018">
        <ele>1895.8599999999999</ele>
        <time>2017-06-03T09:43:38Z</time>
      </trkpt>
      <trkpt lat="46.107302131131291" lon="8.423267360776663">
        <ele>1896.3399999999999</ele>
        <time>2017-06-03T09:43:49Z</time>
      </trkpt>
      <trkpt lat="46.107285870239139" lon="8.423265013843775">
        <ele>1896.8199999999999</ele>
        <time>2017-06-03T09:44:01Z</time>
      </trkpt>
      <trkpt lat="46.107272962108254" lon="8.423306252807379">
        <ele>1898.26</ele>
        <time>2017-06-03T09:44:09Z</time>
      </trkpt>
      <trkpt lat="46.107275141403079" lon="8.423318741843104">
        <ele>1899.22</ele>
        <time>2017-06-03T09:44:18Z</time>
      </trkpt>
      <trkpt lat="46.107268687337637" lon="8.423326201736927">
        <ele>1900.1800000000001</ele>
        <time>2017-06-03T09:44:28Z</time>
      </trkpt>
      <trkpt lat="46.107244798913598" lon="8.423317903652787">
        <ele>1900.6600000000001</ele>
        <time>2017-06-03T09:44:41Z</time>
      </trkpt>
      <trkpt lat="46.107264328747988" lon="8.4233034029603">
        <ele>1900.6600000000001</ele>
        <time>2017-06-03T09:44:54Z</time>
      </trkpt>
      <trkpt lat="46.107236500829458" lon="8.423266354948282">
        <ele>1902.1099999999999</ele>
        <time>2017-06-03T09:45:05Z</time>
      </trkpt>
      <trkpt lat="46.107215965166688" lon="8.423261661082506">
        <ele>1902.5899999999999</ele>
        <time>2017-06-03T09:45:18Z</time>
      </trkpt>
      <trkpt lat="46.107197357341647" lon="8.423246741294861">
        <ele>1903.55</ele>
        <time>2017-06-03T09:45:28Z</time>
      </trkpt>
      <trkpt lat="46.107205739244819" lon="8.423281107097864">
        <ele>1904.51</ele>
        <time>2017-06-03T09:45:38Z</time>
      </trkpt>
      <trkpt lat="46.107172127813101" lon="8.423293512314558">
        <ele>1905.95</ele>
        <time>2017-06-03T09:45:46Z</time>
      </trkpt>
      <trkpt lat="46.107137342914939" lon="8.423301475122571">
        <ele>1907.3900000000001</ele>
        <time>2017-06-03T09:45:54Z</time>
      </trkpt>
      <trkpt lat="46.107132649049163" lon="8.423312455415726">
        <ele>1907.3900000000001</ele>
        <time>2017-06-03T09:45:56Z</time>
      </trkpt>
      <trkpt lat="46.107129212468863" lon="8.423352520912886">
        <ele>1908.8299999999999</ele>
        <time>2017-06-03T09:46:05Z</time>
      </trkpt>
      <trkpt lat="46.107090823352337" lon="8.423364339396358">
        <ele>1910.28</ele>
        <time>2017-06-03T09:46:13Z</time>
      </trkpt>
      <trkpt lat="46.107077496126294" lon="8.423314047977328">
        <ele>1910.76</ele>
        <time>2017-06-03T09:46:21Z</time>
      </trkpt>
      <trkpt lat="46.107054278254509" lon="8.423272557556629">
        <ele>1910.76</ele>
        <time>2017-06-03T09:46:31Z</time>
      </trkpt>
      <trkpt lat="46.10708705149591" lon="8.423270294442773">
        <ele>1910.76</ele>
        <time>2017-06-03T09:46:43Z</time>
      </trkpt>
      <trkpt lat="46.107067773118615" lon="8.423269456252456">
        <ele>1910.76</ele>
        <time>2017-06-03T09:46:56Z</time>
      </trkpt>
      <trkpt lat="46.107041873037815" lon="8.42325302772224">
        <ele>1912.2</ele>
        <time>2017-06-03T09:47:07Z</time>
      </trkpt>
      <trkpt lat="46.107024690136313" lon="8.423207513988018">
        <ele>1912.6800000000001</ele>
        <time>2017-06-03T09:47:22Z</time>
      </trkpt>
      <trkpt lat="46.107004405930638" lon="8.42318463139236">
        <ele>1912.2</ele>
        <time>2017-06-03T09:47:34Z</time>
      </trkpt>
      <trkpt lat="46.107022929936647" lon="8.423196198418737">
        <ele>1913.1600000000001</ele>
        <time>2017-06-03T09:47:43Z</time>
      </trkpt>
      <trkpt lat="46.106999460607767" lon="8.423183374106884">
        <ele>1914.1199999999999</ele>
        <time>2017-06-03T09:47:49Z</time>
      </trkpt>
      <trkpt lat="46.106983032077551" lon="8.423200221732259">
        <ele>1915.0799999999999</ele>
        <time>2017-06-03T09:48:00Z</time>
      </trkpt>
      <trkpt lat="46.10695562325418" lon="8.423215560615063">
        <ele>1916.04</ele>
        <time>2017-06-03T09:48:09Z</time>
      </trkpt>
      <trkpt lat="46.106931231915951" lon="8.423200724646449">
        <ele>1917.97</ele>
        <time>2017-06-03T09:48:19Z</time>
      </trkpt>
      <trkpt lat="46.106929136440158" lon="8.423218075186014">
        <ele>1919.4100000000001</ele>
        <time>2017-06-03T09:48:30Z</time>
      </trkpt>
      <trkpt lat="46.106943637132645" lon="8.423225535079837">
        <ele>1920.3699999999999</ele>
        <time>2017-06-03T09:48:41Z</time>
      </trkpt>
      <trkpt lat="46.106938775628805" lon="8.423253279179335">
        <ele>1921.8099999999999</ele>
        <time>2017-06-03T09:48:52Z</time>
      </trkpt>
      <trkpt lat="46.106930645182729" lon="8.423297451809049">
        <ele>1921.8099999999999</ele>
        <time>2017-06-03T09:49:02Z</time>
      </trkpt>
      <trkpt lat="46.106914803385735" lon="8.423309270292521">
        <ele>1923.74</ele>
        <time>2017-06-03T09:49:14Z</time>
      </trkpt>
      <trkpt lat="46.106888651847839" lon="8.423283705487847">
        <ele>1923.74</ele>
        <time>2017-06-03T09:49:29Z</time>
      </trkpt>
      <trkpt lat="46.106887981295586" lon="8.423270378261805">
        <ele>1923.74</ele>
        <time>2017-06-03T09:49:49Z</time>
      </trkpt>
      <trkpt lat="46.106871720403433" lon="8.423288147896528">
        <ele>1923.74</ele>
        <time>2017-06-03T09:50:13Z</time>
      </trkpt>
      <trkpt lat="46.106860991567373" lon="8.423284124583006">
        <ele>1925.1800000000001</ele>
        <time>2017-06-03T09:50:22Z</time>
      </trkpt>
      <trkpt lat="46.106810197234154" lon="8.423302564769983">
        <ele>1926.6199999999999</ele>
        <time>2017-06-03T09:50:30Z</time>
      </trkpt>
      <trkpt lat="46.106770299375057" lon="8.423269959166646">
        <ele>1929.02</ele>
        <time>2017-06-03T09:50:39Z</time>
      </trkpt>
      <trkpt lat="46.106743142008781" lon="8.423288986086845">
        <ele>1930.46</ele>
        <time>2017-06-03T09:50:47Z</time>
      </trkpt>
      <trkpt lat="46.106717912480235" lon="8.423264427110553">
        <ele>1931.4300000000001</ele>
        <time>2017-06-03T09:50:56Z</time>
      </trkpt>
      <trkpt lat="46.10670642927289" lon="8.423280520364642">
        <ele>1931.9100000000001</ele>
        <time>2017-06-03T09:51:08Z</time>
      </trkpt>
      <trkpt lat="46.106715314090252" lon="8.423269120976329">
        <ele>1931.4300000000001</ele>
        <time>2017-06-03T09:51:23Z</time>
      </trkpt>
      <trkpt lat="46.106707854196429" lon="8.42326476238668">
        <ele>1932.3900000000001</ele>
        <time>2017-06-03T09:51:48Z</time>
      </trkpt>
      <trkpt lat="46.106676002964377" lon="8.423249674960971">
        <ele>1932.3900000000001</ele>
        <time>2017-06-03T09:52:02Z</time>
      </trkpt>
      <trkpt lat="46.106651276350021" lon="8.423253949731588">
        <ele>1934.3099999999999</ele>
        <time>2017-06-03T09:52:13Z</time>
      </trkpt>
      <trkpt lat="46.106634847819805" lon="8.423229893669486">
        <ele>1934.3099999999999</ele>
        <time>2017-06-03T09:52:22Z</time>
      </trkpt>
      <trkpt lat="46.106630489230156" lon="8.423234922811389">
        <ele>1935.27</ele>
        <time>2017-06-03T09:52:32Z</time>
      </trkpt>
      <trkpt lat="46.106601571664214" lon="8.42323986813426">
        <ele>1936.71</ele>
        <time>2017-06-03T09:52:41Z</time>
      </trkpt>
      <trkpt lat="46.106577347964048" lon="8.423192091286182">
        <ele>1937.6700000000001</ele>
        <time>2017-06-03T09:52:49Z</time>
      </trkpt>
      <trkpt lat="46.106562931090593" lon="8.423217823728919">
        <ele>1938.6400000000001</ele>
        <time>2017-06-03T09:52:59Z</time>
      </trkpt>
      <trkpt lat="46.106554046273232" lon="8.423197371885181">
        <ele>1939.5999999999999</ele>
        <time>2017-06-03T09:53:10Z</time>
      </trkpt>
      <trkpt lat="46.106537785381079" lon="8.423134591430426">
        <ele>1942</ele>
        <time>2017-06-03T09:53:20Z</time>
      </trkpt>
      <trkpt lat="46.106527727097273" lon="8.423106260597706">
        <ele>1942.96</ele>
        <time>2017-06-03T09:53:32Z</time>
      </trkpt>
      <trkpt lat="46.106529571115971" lon="8.423122186213732">
        <ele>1943.9200000000001</ele>
        <time>2017-06-03T09:53:42Z</time>
      </trkpt>
      <trkpt lat="46.106521440669894" lon="8.423121431842446">
        <ele>1945.3599999999999</ele>
        <time>2017-06-03T09:53:52Z</time>
      </trkpt>
      <trkpt lat="46.106483470648527" lon="8.423078935593367">
        <ele>1947.29</ele>
        <time>2017-06-03T09:54:04Z</time>
      </trkpt>
      <trkpt lat="46.106486655771732" lon="8.423068039119244">
        <ele>1948.25</ele>
        <time>2017-06-03T09:54:18Z</time>
      </trkpt>
      <trkpt lat="46.106507442891598" lon="8.423087988048792">
        <ele>1948.25</ele>
        <time>2017-06-03T09:54:33Z</time>
      </trkpt>
      <trkpt lat="46.106472071260214" lon="8.423111373558641">
        <ele>1950.6500000000001</ele>
        <time>2017-06-03T09:54:44Z</time>
      </trkpt>
      <trkpt lat="46.106467042118311" lon="8.423134675249457">
        <ele>1951.1300000000001</ele>
        <time>2017-06-03T09:54:55Z</time>
      </trkpt>
      <trkpt lat="46.10645136795938" lon="8.423142721876502">
        <ele>1953.0599999999999</ele>
        <time>2017-06-03T09:55:03Z</time>
      </trkpt>
      <trkpt lat="46.106448853388429" lon="8.423146242275834">
        <ele>1953.0599999999999</ele>
        <time>2017-06-03T09:55:17Z</time>
      </trkpt>
      <trkpt lat="46.106423875316978" lon="8.423156552016735">
        <ele>1954.5</ele>
        <time>2017-06-03T09:55:25Z</time>
      </trkpt>
      <trkpt lat="46.106407949700952" lon="8.423110703006387">
        <ele>1954.98</ele>
        <time>2017-06-03T09:55:39Z</time>
      </trkpt>
      <trkpt lat="46.106384815648198" lon="8.423095280304551">
        <ele>1955.9400000000001</ele>
        <time>2017-06-03T09:55:50Z</time>
      </trkpt>
      <trkpt lat="46.106396466493607" lon="8.423134591430426">
        <ele>1956.4200000000001</ele>
        <time>2017-06-03T09:56:01Z</time>
      </trkpt>
      <trkpt lat="46.106386659666896" lon="8.423100560903549">
        <ele>1957.8599999999999</ele>
        <time>2017-06-03T09:56:11Z</time>
      </trkpt>
      <trkpt lat="46.106383474543691" lon="8.423062842339277">
        <ele>1958.3399999999999</ele>
        <time>2017-06-03T09:56:23Z</time>
      </trkpt>
      <trkpt lat="46.106376014649868" lon="8.423045743256807">
        <ele>1958.8199999999999</ele>
        <time>2017-06-03T09:56:39Z</time>
      </trkpt>
      <trkpt lat="46.106368554756045" lon="8.423023615032435">
        <ele>1960.27</ele>
        <time>2017-06-03T09:56:48Z</time>
      </trkpt>
      <trkpt lat="46.106372075155377" lon="8.423046749085188">
        <ele>1960.75</ele>
        <time>2017-06-03T09:56:58Z</time>
      </trkpt>
      <trkpt lat="46.106345420703292" lon="8.423014646396041">
        <ele>1962.1900000000001</ele>
        <time>2017-06-03T09:57:08Z</time>
      </trkpt>
      <trkpt lat="46.106354892253876" lon="8.423027889803052">
        <ele>1962.1900000000001</ele>
        <time>2017-06-03T09:57:18Z</time>
      </trkpt>
      <trkpt lat="46.106345085427165" lon="8.423025375232101">
        <ele>1962.1900000000001</ele>
        <time>2017-06-03T09:57:32Z</time>
      </trkpt>
      <trkpt lat="46.106289764866233" lon="8.42303954064846">
        <ele>1963.1500000000001</ele>
        <time>2017-06-03T09:57:43Z</time>
      </trkpt>
      <trkpt lat="46.106274677440524" lon="8.423044737428427">
        <ele>1965.0699999999999</ele>
        <time>2017-06-03T09:57:51Z</time>
      </trkpt>
      <trkpt lat="46.106254644691944" lon="8.423018837347627">
        <ele>1965.55</ele>
        <time>2017-06-03T09:58:09Z</time>
      </trkpt>
      <trkpt lat="46.10625833272934" lon="8.423054460436106">
        <ele>1967.96</ele>
        <time>2017-06-03T09:58:20Z</time>
      </trkpt>
      <trkpt lat="46.106266211718321" lon="8.423077594488859">
        <ele>1969.4000000000001</ele>
        <time>2017-06-03T09:58:29Z</time>
      </trkpt>
      <trkpt lat="46.106262942776084" lon="8.42310743406415">
        <ele>1970.3599999999999</ele>
        <time>2017-06-03T09:58:37Z</time>
      </trkpt>
      <trkpt lat="46.106245340779424" lon="8.423137357458472">
        <ele>1971.3199999999999</ele>
        <time>2017-06-03T09:58:48Z</time>
      </trkpt>
      <trkpt lat="46.106222039088607" lon="8.423164850100875">
        <ele>1972.76</ele>
        <time>2017-06-03T09:58:58Z</time>
      </trkpt>
      <trkpt lat="46.106202257797122" lon="8.423177674412727">
        <ele>1973.72</ele>
        <time>2017-06-03T09:59:07Z</time>
      </trkpt>
      <trkpt lat="46.106189601123333" lon="8.423199718818069">
        <ele>1974.6900000000001</ele>
        <time>2017-06-03T09:59:17Z</time>
      </trkpt>
      <trkpt lat="46.10617526806891" lon="8.423188822343946">
        <ele>1974.6900000000001</ele>
        <time>2017-06-03T09:59:35Z</time>
      </trkpt>
      <trkpt lat="46.106161018833518" lon="8.423190750181675">
        <ele>1975.1700000000001</ele>
        <time>2017-06-03T09:59:49Z</time>
      </trkpt>
      <trkpt lat="46.106160599738359" lon="8.423159820958972">
        <ele>1975.6500000000001</ele>
        <time>2017-06-03T10:00:05Z</time>
      </trkpt>
      <trkpt lat="46.10616940073669" lon="8.423153199255467">
        <ele>1975.6500000000001</ele>
        <time>2017-06-03T10:00:20Z</time>
      </trkpt>
      <trkpt lat="46.106176944449544" lon="8.423155462369323">
        <ele>1975.6500000000001</ele>
        <time>2017-06-03T10:00:40Z</time>
      </trkpt>
      <trkpt lat="46.106174094602466" lon="8.423138279467821">
        <ele>1976.1300000000001</ele>
        <time>2017-06-03T10:00:56Z</time>
      </trkpt>
      <trkpt lat="46.106169316917658" lon="8.423103494569659">
        <ele>1978.05</ele>
        <time>2017-06-03T10:01:07Z</time>
      </trkpt>
      <trkpt lat="46.106168059632182" lon="8.423128053545952">
        <ele>1979.01</ele>
        <time>2017-06-03T10:01:16Z</time>
      </trkpt>
      <trkpt lat="46.106172082945704" lon="8.423114977777004">
        <ele>1979.97</ele>
        <time>2017-06-03T10:01:25Z</time>
      </trkpt>
      <trkpt lat="46.106191445142031" lon="8.423095028847456">
        <ele>1979.49</ele>
        <time>2017-06-03T10:01:45Z</time>
      </trkpt>
      <trkpt lat="46.106153056025505" lon="8.423057897016406">
        <ele>1981.9000000000001</ele>
        <time>2017-06-03T10:01:53Z</time>
      </trkpt>
      <trkpt lat="46.106141908094287" lon="8.423111960291863">
        <ele>1983.8199999999999</ele>
        <time>2017-06-03T10:02:04Z</time>
      </trkpt>
      <trkpt lat="46.106110224500299" lon="8.423112463206053">
        <ele>1985.74</ele>
        <time>2017-06-03T10:02:12Z</time>
      </trkpt>
      <trkpt lat="46.106060100719333" lon="8.423095615580678">
        <ele>1986.7</ele>
        <time>2017-06-03T10:02:23Z</time>
      </trkpt>
      <trkpt lat="46.106025986373425" lon="8.423063429072499">
        <ele>1988.6199999999999</ele>
        <time>2017-06-03T10:02:35Z</time>
      </trkpt>
      <trkpt lat="46.106010060757399" lon="8.423071308061481">
        <ele>1989.5899999999999</ele>
        <time>2017-06-03T10:02:43Z</time>
      </trkpt>
      <trkpt lat="46.106005115434527" lon="8.423051191493869">
        <ele>1991.51</ele>
        <time>2017-06-03T10:02:54Z</time>
      </trkpt>
      <trkpt lat="46.105990028008819" lon="8.423048341646791">
        <ele>1993.4300000000001</ele>
        <time>2017-06-03T10:03:05Z</time>
      </trkpt>
      <trkpt lat="46.10596714541316" lon="8.423042222857475">
        <ele>1993.9100000000001</ele>
        <time>2017-06-03T10:03:15Z</time>
      </trkpt>
      <trkpt lat="46.105920961126685" lon="8.422999139875174">
        <ele>1996.3199999999999</ele>
        <time>2017-06-03T10:03:26Z</time>
      </trkpt>
      <trkpt lat="46.105888606980443" lon="8.423023782670498">
        <ele>1998.72</ele>
        <time>2017-06-03T10:03:36Z</time>
      </trkpt>
      <trkpt lat="46.105872262269258" lon="8.423010036349297">
        <ele>1999.6800000000001</ele>
        <time>2017-06-03T10:03:45Z</time>
      </trkpt>
      <trkpt lat="46.10585181042552" lon="8.422980783507228">
        <ele>2001.1199999999999</ele>
        <time>2017-06-03T10:03:54Z</time>
      </trkpt>
      <trkpt lat="46.1058234795928" lon="8.422988913953304">
        <ele>2003.04</ele>
        <time>2017-06-03T10:04:03Z</time>
      </trkpt>
      <trkpt lat="46.105832029134035" lon="8.423019340261817">
        <ele>2003.04</ele>
        <time>2017-06-03T10:04:14Z</time>
      </trkpt>
      <trkpt lat="46.10583127476275" lon="8.423030404374003">
        <ele>2003.04</ele>
        <time>2017-06-03T10:04:34Z</time>
      </trkpt>
      <trkpt lat="46.105821384117007" lon="8.422998804599047">
        <ele>2004.01</ele>
        <time>2017-06-03T10:04:45Z</time>
      </trkpt>
      <trkpt lat="46.105802105739713" lon="8.423021351918578">
        <ele>2006.4100000000001</ele>
        <time>2017-06-03T10:04:54Z</time>
      </trkpt>
      <trkpt lat="46.105800261721015" lon="8.423038953915238">
        <ele>2008.3299999999999</ele>
        <time>2017-06-03T10:05:03Z</time>
      </trkpt>
      <trkpt lat="46.105795567855239" lon="8.423044485971332">
        <ele>2008.8099999999999</ele>
        <time>2017-06-03T10:05:17Z</time>
      </trkpt>
      <trkpt lat="46.105797914788127" lon="8.423042893409729">
        <ele>2007.8499999999999</ele>
        <time>2017-06-03T10:05:28Z</time>
      </trkpt>
      <trkpt lat="46.105788862332702" lon="8.423065189272165">
        <ele>2009.29</ele>
        <time>2017-06-03T10:05:36Z</time>
      </trkpt>
      <trkpt lat="46.105806799605489" lon="8.423077678307891">
        <ele>2009.77</ele>
        <time>2017-06-03T10:05:50Z</time>
      </trkpt>
      <trkpt lat="46.1058234795928" lon="8.423078348860145">
        <ele>2009.29</ele>
        <time>2017-06-03T10:06:00Z</time>
      </trkpt>
      <trkpt lat="46.105792718008161" lon="8.423158982768655">
        <ele>2010.73</ele>
        <time>2017-06-03T10:06:10Z</time>
      </trkpt>
      <trkpt lat="46.105766063556075" lon="8.423163425177336">
        <ele>2011.7</ele>
        <time>2017-06-03T10:06:21Z</time>
      </trkpt>
      <trkpt lat="46.105725076049566" lon="8.423137692734599">
        <ele>2012.6600000000001</ele>
        <time>2017-06-03T10:06:29Z</time>
      </trkpt>
      <trkpt lat="46.105689285323024" lon="8.423116151243448">
        <ele>2014.0999999999999</ele>
        <time>2017-06-03T10:06:39Z</time>
      </trkpt>
      <trkpt lat="46.105667073279619" lon="8.423049179837108">
        <ele>2016.02</ele>
        <time>2017-06-03T10:06:49Z</time>
      </trkpt>
      <trkpt lat="46.105633042752743" lon="8.42299067415297">
        <ele>2018.9100000000001</ele>
        <time>2017-06-03T10:07:03Z</time>
      </trkpt>
      <trkpt lat="46.105605214834213" lon="8.422968629747629">
        <ele>2020.3499999999999</ele>
        <time>2017-06-03T10:07:13Z</time>
      </trkpt>
      <trkpt lat="46.105615692213178" lon="8.422983130440116">
        <ele>2020.3499999999999</ele>
        <time>2017-06-03T10:07:31Z</time>
      </trkpt>
      <trkpt lat="46.105623571202159" lon="8.422969719395042">
        <ele>2020.8299999999999</ele>
        <time>2017-06-03T10:07:50Z</time>
      </trkpt>
      <trkpt lat="46.105623571202159" lon="8.422932252287865">
        <ele>2022.75</ele>
        <time>2017-06-03T10:08:08Z</time>
      </trkpt>
      <trkpt lat="46.105614434927702" lon="8.422893611714244">
        <ele>2023.71</ele>
        <time>2017-06-03T10:08:18Z</time>
      </trkpt>
      <trkpt lat="46.105587026104331" lon="8.422893527895212">
        <ele>2026.1199999999999</ele>
        <time>2017-06-03T10:08:28Z</time>
      </trkpt>
      <trkpt lat="46.105571519583464" lon="8.422882128506899">
        <ele>2026.5999999999999</ele>
        <time>2017-06-03T10:08:39Z</time>
      </trkpt>
      <trkpt lat="46.10555961728096" lon="8.422858575358987">
        <ele>2027.5599999999999</ele>
        <time>2017-06-03T10:08:50Z</time>
      </trkpt>
      <trkpt lat="46.105542182922363" lon="8.422841057181358">
        <ele>2029</ele>
        <time>2017-06-03T10:09:00Z</time>
      </trkpt>
      <trkpt lat="46.105534387752414" lon="8.422796381637454">
        <ele>2030.9200000000001</ele>
        <time>2017-06-03T10:09:11Z</time>
      </trkpt>
      <trkpt lat="46.105544362217188" lon="8.422765620052815">
        <ele>2032.3599999999999</ele>
        <time>2017-06-03T10:09:24Z</time>
      </trkpt>
      <trkpt lat="46.105553079396486" lon="8.422703258693218">
        <ele>2033.8099999999999</ele>
        <time>2017-06-03T10:09:35Z</time>
      </trkpt>
      <trkpt lat="46.105535393580794" lon="8.422673000022769">
        <ele>2035.25</ele>
        <time>2017-06-03T10:09:44Z</time>
      </trkpt>
      <trkpt lat="46.105519635602832" lon="8.422637712210417">
        <ele>2037.1700000000001</ele>
        <time>2017-06-03T10:09:56Z</time>
      </trkpt>
      <trkpt lat="46.105521731078625" lon="8.422564370557666">
        <ele>2038.6099999999999</ele>
        <time>2017-06-03T10:10:05Z</time>
      </trkpt>
      <trkpt lat="46.105524664744735" lon="8.422580882906914">
        <ele>2037.6500000000001</ele>
        <time>2017-06-03T10:10:15Z</time>
      </trkpt>
      <trkpt lat="46.105525586754084" lon="8.422578200697899">
        <ele>2037.6500000000001</ele>
        <time>2017-06-03T10:10:33Z</time>
      </trkpt>
      <trkpt lat="46.105541596189141" lon="8.422596305608749">
        <ele>2037.6500000000001</ele>
        <time>2017-06-03T10:10:58Z</time>
      </trkpt>
      <trkpt lat="46.105538662523031" lon="8.422597059980035">
        <ele>2038.1300000000001</ele>
        <time>2017-06-03T10:11:24Z</time>
      </trkpt>
      <trkpt lat="46.105529190972447" lon="8.42258264310658">
        <ele>2038.1300000000001</ele>
        <time>2017-06-03T10:11:47Z</time>
      </trkpt>
      <trkpt lat="46.105529777705669" lon="8.422579457983375">
        <ele>2038.6099999999999</ele>
        <time>2017-06-03T10:12:15Z</time>
      </trkpt>
      <trkpt lat="46.105536064133048" lon="8.422580631449819">
        <ele>2038.6099999999999</ele>
        <time>2017-06-03T10:12:46Z</time>
      </trkpt>
      <trkpt lat="46.105533381924033" lon="8.422560263425112">
        <ele>2040.05</ele>
        <time>2017-06-03T10:13:08Z</time>
      </trkpt>
      <trkpt lat="46.105525754392147" lon="8.422572081908584">
        <ele>2039.5699999999999</ele>
        <time>2017-06-03T10:13:28Z</time>
      </trkpt>
      <trkpt lat="46.105512678623199" lon="8.422572501003742">
        <ele>2039.5699999999999</ele>
        <time>2017-06-03T10:14:03Z</time>
      </trkpt>
      <trkpt lat="46.105513600632548" lon="8.422571998089552">
        <ele>2039.5699999999999</ele>
        <time>2017-06-03T10:14:37Z</time>
      </trkpt>
      <trkpt lat="46.105512427166104" lon="8.422568896785379">
        <ele>2039.5699999999999</ele>
        <time>2017-06-03T10:15:09Z</time>
      </trkpt>
      <trkpt lat="46.105514438822865" lon="8.422572501003742">
        <ele>2039.5699999999999</ele>
        <time>2017-06-03T10:15:45Z</time>
      </trkpt>
      <trkpt lat="46.105520473793149" lon="8.422576524317265">
        <ele>2040.05</ele>
        <time>2017-06-03T10:16:10Z</time>
      </trkpt>
      <trkpt lat="46.10550832003355" lon="8.422576021403074">
        <ele>2040.05</ele>
        <time>2017-06-03T10:16:45Z</time>
      </trkpt>
      <trkpt lat="46.10552147962153" lon="8.422563448548317">
        <ele>2040.05</ele>
        <time>2017-06-03T10:17:18Z</time>
      </trkpt>
      <trkpt lat="46.105524245649576" lon="8.422565208747983">
        <ele>2040.05</ele>
        <time>2017-06-03T10:17:43Z</time>
      </trkpt>
      <trkpt lat="46.105511672794819" lon="8.422566717490554">
        <ele>2040.05</ele>
        <time>2017-06-03T10:18:14Z</time>
      </trkpt>
      <trkpt lat="46.105513432994485" lon="8.422569818794727">
        <ele>2040.54</ele>
        <time>2017-06-03T10:18:45Z</time>
      </trkpt>
      <trkpt lat="46.105518210679293" lon="8.422567723318934">
        <ele>2040.54</ele>
        <time>2017-06-03T10:19:14Z</time>
      </trkpt>
      <trkpt lat="46.105522904545069" lon="8.422594461590052">
        <ele>2041.02</ele>
        <time>2017-06-03T10:19:21Z</time>
      </trkpt>
      <trkpt lat="46.105530532076955" lon="8.422581218183041">
        <ele>2040.54</ele>
        <time>2017-06-03T10:19:37Z</time>
      </trkpt>
      <trkpt lat="46.105515947565436" lon="8.42261197976768">
        <ele>2041.5</ele>
        <time>2017-06-03T10:19:52Z</time>
      </trkpt>
      <trkpt lat="46.105516366660595" lon="8.422613656148315">
        <ele>2041.5</ele>
        <time>2017-06-03T10:20:07Z</time>
      </trkpt>
      <trkpt lat="46.105509661138058" lon="8.422595383599401">
        <ele>2041.5</ele>
        <time>2017-06-03T10:20:24Z</time>
      </trkpt>
      <trkpt lat="46.105484096333385" lon="8.422604436054826">
        <ele>2041.5</ele>
        <time>2017-06-03T10:20:30Z</time>
      </trkpt>
      <trkpt lat="46.105389129370451" lon="8.422597646713257">
        <ele>2041.02</ele>
        <time>2017-06-03T10:20:41Z</time>
      </trkpt>
      <trkpt lat="46.105374041944742" lon="8.422587001696229">
        <ele>2041.02</ele>
        <time>2017-06-03T10:20:43Z</time>
      </trkpt>
      <trkpt lat="46.105320481583476" lon="8.42253620736301">
        <ele>2041.98</ele>
        <time>2017-06-03T10:20:52Z</time>
      </trkpt>
      <trkpt lat="46.105235572904348" lon="8.422496058046818">
        <ele>2043.9000000000001</ele>
        <time>2017-06-03T10:21:06Z</time>
      </trkpt>
      <trkpt lat="46.105183940380812" lon="8.422478623688221">
        <ele>2043.9000000000001</ele>
        <time>2017-06-03T10:21:17Z</time>
      </trkpt>
      <trkpt lat="46.105148065835238" lon="8.422445682808757">
        <ele>2045.3399999999999</ele>
        <time>2017-06-03T10:21:27Z</time>
      </trkpt>
      <trkpt lat="46.105114538222551" lon="8.422416429966688">
        <ele>2045.8199999999999</ele>
        <time>2017-06-03T10:21:37Z</time>
      </trkpt>
      <trkpt lat="46.105059469118714" lon="8.42238868586719">
        <ele>2046.78</ele>
        <time>2017-06-03T10:21:47Z</time>
      </trkpt>
      <trkpt lat="46.105051254853606" lon="8.422388099133968">
        <ele>2046.3</ele>
        <time>2017-06-03T10:21:48Z</time>
      </trkpt>
      <trkpt lat="46.105001633986831" lon="8.422333868220449">
        <ele>2047.75</ele>
        <time>2017-06-03T10:21:59Z</time>
      </trkpt>
      <trkpt lat="46.1049859598279" lon="8.422330096364021">
        <ele>2049.6700000000001</ele>
        <time>2017-06-03T10:22:10Z</time>
      </trkpt>
      <trkpt lat="46.104967938736081" lon="8.422322049736977">
        <ele>2050.1500000000001</ele>
        <time>2017-06-03T10:22:23Z</time>
      </trkpt>
      <trkpt lat="46.104966932907701" lon="8.422307884320617">
        <ele>2050.6300000000001</ele>
        <time>2017-06-03T10:22:33Z</time>
      </trkpt>
      <trkpt lat="46.104961736127734" lon="8.422327497974038">
        <ele>2050.1500000000001</ele>
        <time>2017-06-03T10:22:39Z</time>
      </trkpt>
      <trkpt lat="46.1049341596663" lon="8.422294054180384">
        <ele>2050.6300000000001</ele>
        <time>2017-06-03T10:22:48Z</time>
      </trkpt>
      <trkpt lat="46.10493709333241" lon="8.42227284796536">
        <ele>2051.5900000000001</ele>
        <time>2017-06-03T10:22:57Z</time>
      </trkpt>
      <trkpt lat="46.10492586158216" lon="8.4222811460495">
        <ele>2052.5500000000002</ele>
        <time>2017-06-03T10:23:04Z</time>
      </trkpt>
      <trkpt lat="46.10491119325161" lon="8.422289108857513">
        <ele>2053.0300000000002</ele>
        <time>2017-06-03T10:23:12Z</time>
      </trkpt>
      <trkpt lat="46.104895435273647" lon="8.422245942056179">
        <ele>2053.9899999999998</ele>
        <time>2017-06-03T10:23:23Z</time>
      </trkpt>
      <trkpt lat="46.104868277907372" lon="8.422264382243156">
        <ele>2055.4400000000001</ele>
        <time>2017-06-03T10:23:34Z</time>
      </trkpt>
      <trkpt lat="46.104821171611547" lon="8.422271087765694">
        <ele>2056.4000000000001</ele>
        <time>2017-06-03T10:23:42Z</time>
      </trkpt>
      <trkpt lat="46.104812202975154" lon="8.422267064452171">
        <ele>2057.3600000000001</ele>
        <time>2017-06-03T10:23:48Z</time>
      </trkpt>
      <trkpt lat="46.104794852435589" lon="8.422212582081556">
        <ele>2058.3200000000002</ele>
        <time>2017-06-03T10:23:58Z</time>
      </trkpt>
      <trkpt lat="46.104797786101699" lon="8.422195482999086">
        <ele>2059.7600000000002</ele>
        <time>2017-06-03T10:24:09Z</time>
      </trkpt>
      <trkpt lat="46.104780519381166" lon="8.422238565981388">
        <ele>2060.2399999999998</ele>
        <time>2017-06-03T10:24:17Z</time>
      </trkpt>
      <trkpt lat="46.104767359793186" lon="8.422199171036482">
        <ele>2061.1999999999998</ele>
        <time>2017-06-03T10:24:26Z</time>
      </trkpt>
      <trkpt lat="46.104746740311384" lon="8.422198835760355">
        <ele>2062.6500000000001</ele>
        <time>2017-06-03T10:24:34Z</time>
      </trkpt>
      <trkpt lat="46.104739783331752" lon="8.422141000628471">
        <ele>2064.0900000000001</ele>
        <time>2017-06-03T10:24:42Z</time>
      </trkpt>
      <trkpt lat="46.104744058102369" lon="8.422108897939324">
        <ele>2064.5700000000002</ele>
        <time>2017-06-03T10:24:51Z</time>
      </trkpt>
      <trkpt lat="46.104751015082002" lon="8.422104874625802">
        <ele>2065.0500000000002</ele>
        <time>2017-06-03T10:25:05Z</time>
      </trkpt>
      <trkpt lat="46.104735089465976" lon="8.42211501672864">
        <ele>2066.9699999999998</ele>
        <time>2017-06-03T10:25:12Z</time>
      </trkpt>
      <trkpt lat="46.104706590995193" lon="8.422141000628471">
        <ele>2066.4899999999998</ele>
        <time>2017-06-03T10:25:20Z</time>
      </trkpt>
      <trkpt lat="46.104685636237264" lon="8.422104204073548">
        <ele>2068.8899999999999</ele>
        <time>2017-06-03T10:25:29Z</time>
      </trkpt>
      <trkpt lat="46.104657556861639" lon="8.42212624847889">
        <ele>2069.8600000000001</ele>
        <time>2017-06-03T10:25:38Z</time>
      </trkpt>
      <trkpt lat="46.104631489142776" lon="8.422126164659858">
        <ele>2069.3800000000001</ele>
        <time>2017-06-03T10:25:50Z</time>
      </trkpt>
      <trkpt lat="46.10460483469069" lon="8.422109903767705">
        <ele>2069.3800000000001</ele>
        <time>2017-06-03T10:25:57Z</time>
      </trkpt>
      <trkpt lat="46.104586813598871" lon="8.422116860747337">
        <ele>2069.8600000000001</ele>
        <time>2017-06-03T10:26:06Z</time>
      </trkpt>
      <trkpt lat="46.104566613212228" lon="8.422102108597755">
        <ele>2069.8600000000001</ele>
        <time>2017-06-03T10:26:16Z</time>
      </trkpt>
      <trkpt lat="46.104548675939441" lon="8.4221067186445">
        <ele>2070.8200000000002</ele>
        <time>2017-06-03T10:26:25Z</time>
      </trkpt>
      <trkpt lat="46.104527553543448" lon="8.422067742794752">
        <ele>2071.3000000000002</ele>
        <time>2017-06-03T10:26:35Z</time>
      </trkpt>
      <trkpt lat="46.104518584907055" lon="8.422060534358025">
        <ele>2070.8200000000002</ele>
        <time>2017-06-03T10:26:39Z</time>
      </trkpt>
      <trkpt lat="46.104496205225587" lon="8.422064306214452">
        <ele>2071.3000000000002</ele>
        <time>2017-06-03T10:26:48Z</time>
      </trkpt>
      <trkpt lat="46.104470053687692" lon="8.422045279294252">
        <ele>2071.7800000000002</ele>
        <time>2017-06-03T10:26:57Z</time>
      </trkpt>
      <trkpt lat="46.104454630985856" lon="8.422019714489579">
        <ele>2073.2199999999998</ele>
        <time>2017-06-03T10:27:10Z</time>
      </trkpt>
      <trkpt lat="46.104442058131099" lon="8.422001861035824">
        <ele>2073.6999999999998</ele>
        <time>2017-06-03T10:27:20Z</time>
      </trkpt>
      <trkpt lat="46.10444750636816" lon="8.421982498839498">
        <ele>2075.1399999999999</ele>
        <time>2017-06-03T10:27:31Z</time>
      </trkpt>
      <trkpt lat="46.10444356687367" lon="8.42198115773499">
        <ele>2075.6199999999999</ele>
        <time>2017-06-03T10:27:42Z</time>
      </trkpt>
      <trkpt lat="46.104441387578845" lon="8.421986354514957">
        <ele>2076.5900000000001</ele>
        <time>2017-06-03T10:27:52Z</time>
      </trkpt>
      <trkpt lat="46.10441624186933" lon="8.421991635113955">
        <ele>2077.5500000000002</ele>
        <time>2017-06-03T10:28:02Z</time>
      </trkpt>
      <trkpt lat="46.104405764490366" lon="8.422010410577059">
        <ele>2078.9899999999998</ele>
        <time>2017-06-03T10:28:11Z</time>
      </trkpt>
      <trkpt lat="46.104382546618581" lon="8.42201242223382">
        <ele>2079.9499999999998</ele>
        <time>2017-06-03T10:28:22Z</time>
      </trkpt>
      <trkpt lat="46.104396292939782" lon="8.422009404748678">
        <ele>2079.4699999999998</ele>
        <time>2017-06-03T10:28:34Z</time>
      </trkpt>
      <trkpt lat="46.104358909651637" lon="8.421995993703604">
        <ele>2080.9099999999999</ele>
        <time>2017-06-03T10:28:46Z</time>
      </trkpt>
      <trkpt lat="46.104327645152807" lon="8.422015104442835">
        <ele>2082.8299999999999</ele>
        <time>2017-06-03T10:28:54Z</time>
      </trkpt>
      <trkpt lat="46.104328231886029" lon="8.421967998147011">
        <ele>2083.3099999999999</ele>
        <time>2017-06-03T10:29:03Z</time>
      </trkpt>
      <trkpt lat="46.104318257421255" lon="8.421964980661869">
        <ele>2083.3099999999999</ele>
        <time>2017-06-03T10:29:15Z</time>
      </trkpt>
      <trkpt lat="46.104311551898718" lon="8.421968501061201">
        <ele>2083.79</ele>
        <time>2017-06-03T10:29:28Z</time>
      </trkpt>
      <trkpt lat="46.104272492229939" lon="8.421956012025476">
        <ele>2083.79</ele>
        <time>2017-06-03T10:29:40Z</time>
      </trkpt>
      <trkpt lat="46.104267379269004" lon="8.421976044774056">
        <ele>2084.7600000000002</ele>
        <time>2017-06-03T10:29:48Z</time>
      </trkpt>
      <trkpt lat="46.104265870526433" lon="8.421968081966043">
        <ele>2085.2399999999998</ele>
        <time>2017-06-03T10:29:58Z</time>
      </trkpt>
      <trkpt lat="46.104248771443963" lon="8.421969171613455">
        <ele>2085.2399999999998</ele>
        <time>2017-06-03T10:30:10Z</time>
      </trkpt>
      <trkpt lat="46.104237958788872" lon="8.421971434727311">
        <ele>2086.6799999999998</ele>
        <time>2017-06-03T10:30:20Z</time>
      </trkpt>
      <trkpt lat="46.104221865534782" lon="8.421981744468212">
        <ele>2087.1599999999999</ele>
        <time>2017-06-03T10:30:29Z</time>
      </trkpt>
      <trkpt lat="46.104196384549141" lon="8.421988449990749">
        <ele>2087.1599999999999</ele>
        <time>2017-06-03T10:30:40Z</time>
      </trkpt>
      <trkpt lat="46.104189343750477" lon="8.421999514102936">
        <ele>2086.6799999999998</ele>
        <time>2017-06-03T10:30:50Z</time>
      </trkpt>
      <trkpt lat="46.104168305173516" lon="8.42200462706387">
        <ele>2088.1199999999999</ele>
        <time>2017-06-03T10:30:58Z</time>
      </trkpt>
      <trkpt lat="46.10415430739522" lon="8.422009320929647">
        <ele>2088.5999999999999</ele>
        <time>2017-06-03T10:31:08Z</time>
      </trkpt>
      <trkpt lat="46.104139387607574" lon="8.421990880742669">
        <ele>2088.5999999999999</ele>
        <time>2017-06-03T10:31:22Z</time>
      </trkpt>
      <trkpt lat="46.10412354581058" lon="8.421975458040834">
        <ele>2089.5599999999999</ele>
        <time>2017-06-03T10:31:27Z</time>
      </trkpt>
      <trkpt lat="46.104137040674686" lon="8.421955341473222">
        <ele>2090.52</ele>
        <time>2017-06-03T10:31:38Z</time>
      </trkpt>
      <trkpt lat="46.104108961299062" lon="8.421982917934656">
        <ele>2089.5599999999999</ele>
        <time>2017-06-03T10:31:42Z</time>
      </trkpt>
      <trkpt lat="46.104055568575859" lon="8.421943858265877">
        <ele>2091</ele>
        <time>2017-06-03T10:31:50Z</time>
      </trkpt>
      <trkpt lat="46.104070404544473" lon="8.421933213248849">
        <ele>2091</ele>
        <time>2017-06-03T10:32:01Z</time>
      </trkpt>
      <trkpt lat="46.104053137823939" lon="8.421935308724642">
        <ele>2091</ele>
        <time>2017-06-03T10:32:20Z</time>
      </trkpt>
      <trkpt lat="46.104056071490049" lon="8.421971099451184">
        <ele>2091</ele>
        <time>2017-06-03T10:32:38Z</time>
      </trkpt>
      <trkpt lat="46.104022124782205" lon="8.421979900449514">
        <ele>2091</ele>
        <time>2017-06-03T10:32:49Z</time>
      </trkpt>
      <trkpt lat="46.103990944102407" lon="8.42196992598474">
        <ele>2092.4499999999998</ele>
        <time>2017-06-03T10:33:00Z</time>
      </trkpt>
      <trkpt lat="46.103984825313091" lon="8.421965399757028">
        <ele>2092.9299999999998</ele>
        <time>2017-06-03T10:33:02Z</time>
      </trkpt>
      <trkpt lat="46.103940149769187" lon="8.421970764175057">
        <ele>2094.3699999999999</ele>
        <time>2017-06-03T10:33:12Z</time>
      </trkpt>
      <trkpt lat="46.103914082050323" lon="8.421968081966043">
        <ele>2095.3299999999999</ele>
        <time>2017-06-03T10:33:22Z</time>
      </trkpt>
      <trkpt lat="46.103900503367186" lon="8.421996496617794">
        <ele>2096.77</ele>
        <time>2017-06-03T10:33:31Z</time>
      </trkpt>
      <trkpt lat="46.103893965482712" lon="8.421962130814791">
        <ele>2097.25</ele>
        <time>2017-06-03T10:33:45Z</time>
      </trkpt>
      <trkpt lat="46.103896144777536" lon="8.421950144693255">
        <ele>2098.21</ele>
        <time>2017-06-03T10:33:57Z</time>
      </trkpt>
      <trkpt lat="46.103902598842978" lon="8.421923322603107">
        <ele>2099.6599999999999</ele>
        <time>2017-06-03T10:34:06Z</time>
      </trkpt>
      <trkpt lat="46.103872591629624" lon="8.421949474141002">
        <ele>2101.0999999999999</ele>
        <time>2017-06-03T10:34:16Z</time>
      </trkpt>
      <trkpt lat="46.103843674063683" lon="8.421927848830819">
        <ele>2102.54</ele>
        <time>2017-06-03T10:34:26Z</time>
      </trkpt>
      <trkpt lat="46.103818360716105" lon="8.421924328431487">
        <ele>2103.5</ele>
        <time>2017-06-03T10:34:35Z</time>
      </trkpt>
      <trkpt lat="46.103789526969194" lon="8.421952072530985">
        <ele>2103.98</ele>
        <time>2017-06-03T10:34:45Z</time>
      </trkpt>
      <trkpt lat="46.103750299662352" lon="8.421923406422138">
        <ele>2104.9400000000001</ele>
        <time>2017-06-03T10:34:56Z</time>
      </trkpt>
      <trkpt lat="46.103751389309764" lon="8.421891303732991">
        <ele>2106.3899999999999</ele>
        <time>2017-06-03T10:35:04Z</time>
      </trkpt>
      <trkpt lat="46.103725824505091" lon="8.421895578503609">
        <ele>2107.3499999999999</ele>
        <time>2017-06-03T10:35:13Z</time>
      </trkpt>
      <trkpt lat="46.103715766221285" lon="8.421919718384743">
        <ele>2107.8299999999999</ele>
        <time>2017-06-03T10:35:20Z</time>
      </trkpt>
      <trkpt lat="46.103674359619617" lon="8.421928100287914">
        <ele>2108.79</ele>
        <time>2017-06-03T10:35:28Z</time>
      </trkpt>
      <trkpt lat="46.103643933311105" lon="8.421934973448515">
        <ele>2110.23</ele>
        <time>2017-06-03T10:35:37Z</time>
      </trkpt>
      <trkpt lat="46.103625409305096" lon="8.42193522490561">
        <ele>2111.1900000000001</ele>
        <time>2017-06-03T10:35:46Z</time>
      </trkpt>
      <trkpt lat="46.103612501174212" lon="8.421955509111285">
        <ele>2112.6300000000001</ele>
        <time>2017-06-03T10:35:58Z</time>
      </trkpt>
      <trkpt lat="46.103575620800257" lon="8.421933129429817">
        <ele>2113.5999999999999</ele>
        <time>2017-06-03T10:36:09Z</time>
      </trkpt>
      <trkpt lat="46.103565227240324" lon="8.421944528818131">
        <ele>2114.0799999999999</ele>
        <time>2017-06-03T10:36:20Z</time>
      </trkpt>
      <trkpt lat="46.103532118722796" lon="8.421939667314291">
        <ele>2115.52</ele>
        <time>2017-06-03T10:36:29Z</time>
      </trkpt>
      <trkpt lat="46.103542344644666" lon="8.421881329268217">
        <ele>2116.96</ele>
        <time>2017-06-03T10:36:38Z</time>
      </trkpt>
      <trkpt lat="46.103523317724466" lon="8.421919718384743">
        <ele>2117.9200000000001</ele>
        <time>2017-06-03T10:36:47Z</time>
      </trkpt>
      <trkpt lat="46.103490041568875" lon="8.421938577666879">
        <ele>2119.3600000000001</ele>
        <time>2017-06-03T10:36:56Z</time>
      </trkpt>
      <trkpt lat="46.103488197550178" lon="8.42190689407289">
        <ele>2120.3200000000002</ele>
        <time>2017-06-03T10:37:05Z</time>
      </trkpt>
      <trkpt lat="46.103470847010612" lon="8.42191519215703">
        <ele>2120.3200000000002</ele>
        <time>2017-06-03T10:37:14Z</time>
      </trkpt>
      <trkpt lat="46.103451903909445" lon="8.421915359795094">
        <ele>2121.29</ele>
        <time>2017-06-03T10:37:22Z</time>
      </trkpt>
      <trkpt lat="46.103436816483736" lon="8.421905636787415">
        <ele>2121.77</ele>
        <time>2017-06-03T10:37:32Z</time>
      </trkpt>
      <trkpt lat="46.103439582511783" lon="8.421908318996429">
        <ele>2123.6900000000001</ele>
        <time>2017-06-03T10:37:42Z</time>
      </trkpt>
      <trkpt lat="46.103453915566206" lon="8.421933129429817">
        <ele>2123.6900000000001</ele>
        <time>2017-06-03T10:37:52Z</time>
      </trkpt>
      <trkpt lat="46.103452825918794" lon="8.421914940699935">
        <ele>2124.1700000000001</ele>
        <time>2017-06-03T10:38:01Z</time>
      </trkpt>
      <trkpt lat="46.103434218093753" lon="8.421928100287914">
        <ele>2124.1700000000001</ele>
        <time>2017-06-03T10:38:11Z</time>
      </trkpt>
      <trkpt lat="46.103409742936492" lon="8.421917036175728">
        <ele>2124.1700000000001</ele>
        <time>2017-06-03T10:38:22Z</time>
      </trkpt>
      <trkpt lat="46.103402283042669" lon="8.42194595374167">
        <ele>2126.0900000000001</ele>
        <time>2017-06-03T10:38:32Z</time>
      </trkpt>
      <trkpt lat="46.103398511186242" lon="8.421958107501268">
        <ele>2126.0900000000001</ele>
        <time>2017-06-03T10:38:42Z</time>
      </trkpt>
      <trkpt lat="46.103390716016293" lon="8.42197529040277">
        <ele>2126.5700000000002</ele>
        <time>2017-06-03T10:38:53Z</time>
      </trkpt>
      <trkpt lat="46.103408485651016" lon="8.421966070309281">
        <ele>2127.0500000000002</ele>
        <time>2017-06-03T10:39:05Z</time>
      </trkpt>
      <trkpt lat="46.103381076827645" lon="8.421975625678897">
        <ele>2127.0500000000002</ele>
        <time>2017-06-03T10:39:14Z</time>
      </trkpt>
      <trkpt lat="46.103365067392588" lon="8.421963891014457">
        <ele>2126.5700000000002</ele>
        <time>2017-06-03T10:39:31Z</time>
      </trkpt>
      <trkpt lat="46.103361379355192" lon="8.421970764175057">
        <ele>2126.0900000000001</ele>
        <time>2017-06-03T10:39:45Z</time>
      </trkpt>
      <trkpt lat="46.103357607498765" lon="8.421960538253188">
        <ele>2126.0900000000001</ele>
        <time>2017-06-03T10:40:01Z</time>
      </trkpt>
      <trkpt lat="46.103352662175894" lon="8.421981828287244">
        <ele>2126.0900000000001</ele>
        <time>2017-06-03T10:40:19Z</time>
      </trkpt>
      <trkpt lat="46.103366995230317" lon="8.421984594315291">
        <ele>2126.5700000000002</ele>
        <time>2017-06-03T10:40:35Z</time>
      </trkpt>
      <trkpt lat="46.103372443467379" lon="8.421973697841167">
        <ele>2125.6100000000001</ele>
        <time>2017-06-03T10:40:47Z</time>
      </trkpt>
      <trkpt lat="46.103373533114791" lon="8.42195282690227">
        <ele>2125.1300000000001</ele>
        <time>2017-06-03T10:40:58Z</time>
      </trkpt>
      <trkpt lat="46.103392392396927" lon="8.421906558796763">
        <ele>2123.6900000000001</ele>
        <time>2017-06-03T10:41:09Z</time>
      </trkpt>
      <trkpt lat="46.103399349376559" lon="8.421917539089918">
        <ele>2124.1700000000001</ele>
        <time>2017-06-03T10:41:20Z</time>
      </trkpt>
      <trkpt lat="46.103425249457359" lon="8.421918796375394">
        <ele>2124.1700000000001</ele>
        <time>2017-06-03T10:41:37Z</time>
      </trkpt>
      <trkpt lat="46.10338132828474" lon="8.421909827739">
        <ele>2122.73</ele>
        <time>2017-06-03T10:41:50Z</time>
      </trkpt>
      <trkpt lat="46.103381412103772" lon="8.421893985942006">
        <ele>2122.73</ele>
        <time>2017-06-03T10:42:04Z</time>
      </trkpt>
      <trkpt lat="46.103358529508114" lon="8.42189708724618">
        <ele>2122.73</ele>
        <time>2017-06-03T10:42:11Z</time>
      </trkpt>
      <trkpt lat="46.103370096534491" lon="8.421889208257198">
        <ele>2122.25</ele>
        <time>2017-06-03T10:42:25Z</time>
      </trkpt>
      <trkpt lat="46.10333195887506" lon="8.421884682029486">
        <ele>2123.21</ele>
        <time>2017-06-03T10:42:36Z</time>
      </trkpt>
      <trkpt lat="46.103336233645678" lon="8.421858362853527">
        <ele>2122.73</ele>
        <time>2017-06-03T10:42:46Z</time>
      </trkpt>
      <trkpt lat="46.103328689932823" lon="8.421858698129654">
        <ele>2122.25</ele>
        <time>2017-06-03T10:43:00Z</time>
      </trkpt>
      <trkpt lat="46.103333551436663" lon="8.421842185780406">
        <ele>2122.73</ele>
        <time>2017-06-03T10:43:09Z</time>
      </trkpt>
      <trkpt lat="46.103305974975228" lon="8.421823913231492">
        <ele>2123.21</ele>
        <time>2017-06-03T10:43:16Z</time>
      </trkpt>
      <trkpt lat="46.103272447362542" lon="8.421822488307953">
        <ele>2123.21</ele>
        <time>2017-06-03T10:43:27Z</time>
      </trkpt>
      <trkpt lat="46.103284265846014" lon="8.421797845512629">
        <ele>2123.6900000000001</ele>
        <time>2017-06-03T10:43:40Z</time>
      </trkpt>
      <trkpt lat="46.10324889421463" lon="8.421788876876235">
        <ele>2123.6900000000001</ele>
        <time>2017-06-03T10:43:48Z</time>
      </trkpt>
      <trkpt lat="46.10323472879827" lon="8.421757444739342">
        <ele>2124.1700000000001</ele>
        <time>2017-06-03T10:43:59Z</time>
      </trkpt>
      <trkpt lat="46.103214947506785" lon="8.421745374798775">
        <ele>2123.21</ele>
        <time>2017-06-03T10:44:11Z</time>
      </trkpt>
      <trkpt lat="46.103179743513465" lon="8.421762976795435">
        <ele>2122.73</ele>
        <time>2017-06-03T10:44:26Z</time>
      </trkpt>
      <trkpt lat="46.103184437379241" lon="8.42176029458642">
        <ele>2122.73</ele>
        <time>2017-06-03T10:44:39Z</time>
      </trkpt>
      <trkpt lat="46.103175301104784" lon="8.421761468052864">
        <ele>2123.21</ele>
        <time>2017-06-03T10:44:51Z</time>
      </trkpt>
      <trkpt lat="46.103162225335836" lon="8.421765742823482">
        <ele>2123.21</ele>
        <time>2017-06-03T10:45:00Z</time>
      </trkpt>
      <trkpt lat="46.103158285841346" lon="8.421750152483583">
        <ele>2123.21</ele>
        <time>2017-06-03T10:45:10Z</time>
      </trkpt>
      <trkpt lat="46.103143952786922" lon="8.421751745045185">
        <ele>2124.1700000000001</ele>
        <time>2017-06-03T10:45:20Z</time>
      </trkpt>
      <trkpt lat="46.103152669966221" lon="8.421759707853198">
        <ele>2124.6500000000001</ele>
        <time>2017-06-03T10:45:30Z</time>
      </trkpt>
      <trkpt lat="46.103144707158208" lon="8.421794073656201">
        <ele>2125.6100000000001</ele>
        <time>2017-06-03T10:45:37Z</time>
      </trkpt>
      <trkpt lat="46.103134984150529" lon="8.421803712844849">
        <ele>2126.5700000000002</ele>
        <time>2017-06-03T10:45:46Z</time>
      </trkpt>
      <trkpt lat="46.103127943351865" lon="8.421807987615466">
        <ele>2127.0500000000002</ele>
        <time>2017-06-03T10:46:00Z</time>
      </trkpt>
      <trkpt lat="46.10313062556088" lon="8.421788960695267">
        <ele>2127.5300000000002</ele>
        <time>2017-06-03T10:46:11Z</time>
      </trkpt>
      <trkpt lat="46.103137582540512" lon="8.421782171353698">
        <ele>2128.02</ele>
        <time>2017-06-03T10:46:25Z</time>
      </trkpt>
      <trkpt lat="46.103121489286423" lon="8.42181108891964">
        <ele>2129.46</ele>
        <time>2017-06-03T10:46:40Z</time>
      </trkpt>
      <trkpt lat="46.103129032999277" lon="8.421834306791425">
        <ele>2128.98</ele>
        <time>2017-06-03T10:46:50Z</time>
      </trkpt>
      <trkpt lat="46.103118639439344" lon="8.421832881867886">
        <ele>2130.9000000000001</ele>
        <time>2017-06-03T10:46:58Z</time>
      </trkpt>
      <trkpt lat="46.103119812905788" lon="8.421803042292595">
        <ele>2130.9000000000001</ele>
        <time>2017-06-03T10:47:10Z</time>
      </trkpt>
      <trkpt lat="46.10309399664402" lon="8.421844029799104">
        <ele>2132.3400000000001</ele>
        <time>2017-06-03T10:47:25Z</time>
      </trkpt>
      <trkpt lat="46.103085363283753" lon="8.421841599047184">
        <ele>2133.3000000000002</ele>
        <time>2017-06-03T10:47:36Z</time>
      </trkpt>
      <trkpt lat="46.103084608912468" lon="8.421866158023477">
        <ele>2134.2600000000002</ele>
        <time>2017-06-03T10:47:49Z</time>
      </trkpt>
      <trkpt lat="46.103053260594606" lon="8.421888202428818">
        <ele>2135.71</ele>
        <time>2017-06-03T10:48:01Z</time>
      </trkpt>
      <trkpt lat="46.103057535365224" lon="8.421861296519637">
        <ele>2136.6700000000001</ele>
        <time>2017-06-03T10:48:13Z</time>
      </trkpt>
      <trkpt lat="46.103070862591267" lon="8.421838330104947">
        <ele>2137.1500000000001</ele>
        <time>2017-06-03T10:48:31Z</time>
      </trkpt>
      <trkpt lat="46.10305393114686" lon="8.421882586553693">
        <ele>2138.1100000000001</ele>
        <time>2017-06-03T10:48:44Z</time>
      </trkpt>
      <trkpt lat="46.103024929761887" lon="8.42190588824451">
        <ele>2139.5500000000002</ele>
        <time>2017-06-03T10:48:56Z</time>
      </trkpt>
      <trkpt lat="46.103043118491769" lon="8.421885771676898">
        <ele>2140.0300000000002</ele>
        <time>2017-06-03T10:49:07Z</time>
      </trkpt>
      <trkpt lat="46.103043789044023" lon="8.421915946528316">
        <ele>2140.9899999999998</ele>
        <time>2017-06-03T10:49:23Z</time>
      </trkpt>
      <trkpt lat="46.103016128763556" lon="8.421928267925978">
        <ele>2142.4400000000001</ele>
        <time>2017-06-03T10:49:33Z</time>
      </trkpt>
      <trkpt lat="46.103016464039683" lon="8.421934805810452">
        <ele>2142.9200000000001</ele>
        <time>2017-06-03T10:49:46Z</time>
      </trkpt>
      <trkpt lat="46.103017972782254" lon="8.421935644000769">
        <ele>2142.9200000000001</ele>
        <time>2017-06-03T10:50:01Z</time>
      </trkpt>
      <trkpt lat="46.103020654991269" lon="8.421938745304942">
        <ele>2144.3600000000001</ele>
        <time>2017-06-03T10:50:14Z</time>
      </trkpt>
      <trkpt lat="46.103019481524825" lon="8.421933213248849">
        <ele>2145.3200000000002</ele>
        <time>2017-06-03T10:50:28Z</time>
      </trkpt>
      <trkpt lat="46.102990061044693" lon="8.421931872144342">
        <ele>2145.8000000000002</ele>
        <time>2017-06-03T10:50:39Z</time>
      </trkpt>
      <trkpt lat="46.102980589494109" lon="8.421901362016797">
        <ele>2147.2399999999998</ele>
        <time>2017-06-03T10:50:51Z</time>
      </trkpt>
      <trkpt lat="46.102961814031005" lon="8.421920305117965">
        <ele>2147.7199999999998</ele>
        <time>2017-06-03T10:51:02Z</time>
      </trkpt>
      <trkpt lat="46.102952929213643" lon="8.421924998983741">
        <ele>2148.6799999999998</ele>
        <time>2017-06-03T10:51:11Z</time>
      </trkpt>
      <trkpt lat="46.102943876758218" lon="8.421945283189416">
        <ele>2149.1599999999999</ele>
        <time>2017-06-03T10:51:19Z</time>
      </trkpt>
      <trkpt lat="46.102931974455714" lon="8.421941259875894">
        <ele>2149.1599999999999</ele>
        <time>2017-06-03T10:51:28Z</time>
      </trkpt>
      <trkpt lat="46.102899368852377" lon="8.421954587101936">
        <ele>2150.1300000000001</ele>
        <time>2017-06-03T10:51:42Z</time>
      </trkpt>
      <trkpt lat="46.102867182344198" lon="8.421937068924308">
        <ele>2152.0500000000002</ele>
        <time>2017-06-03T10:51:51Z</time>
      </trkpt>
      <trkpt lat="46.102857794612646" lon="8.421956682577729">
        <ele>2153.9699999999998</ele>
        <time>2017-06-03T10:52:02Z</time>
      </trkpt>
      <trkpt lat="46.102859973907471" lon="8.421947211027145">
        <ele>2154.4499999999998</ele>
        <time>2017-06-03T10:52:11Z</time>
      </trkpt>
      <trkpt lat="46.102858800441027" lon="8.421951401978731">
        <ele>2155.8899999999999</ele>
        <time>2017-06-03T10:52:19Z</time>
      </trkpt>
      <trkpt lat="46.102856621146202" lon="8.421952743083239">
        <ele>2156.3699999999999</ele>
        <time>2017-06-03T10:52:24Z</time>
      </trkpt>
      <trkpt lat="46.102845557034016" lon="8.421958945691586">
        <ele>2157.3400000000001</ele>
        <time>2017-06-03T10:52:33Z</time>
      </trkpt>
      <trkpt lat="46.102817142382264" lon="8.421951485797763">
        <ele>2157.3400000000001</ele>
        <time>2017-06-03T10:52:48Z</time>
      </trkpt>
      <trkpt lat="46.102775651961565" lon="8.421941343694925">
        <ele>2158.7800000000002</ele>
        <time>2017-06-03T10:52:58Z</time>
      </trkpt>
      <trkpt lat="46.102777244523168" lon="8.421947043389082">
        <ele>2159.2600000000002</ele>
        <time>2017-06-03T10:53:09Z</time>
      </trkpt>
      <trkpt lat="46.102787470445037" lon="8.421982917934656">
        <ele>2160.6999999999998</ele>
        <time>2017-06-03T10:53:22Z</time>
      </trkpt>
      <trkpt lat="46.102727288380265" lon="8.421952240169048">
        <ele>2162.6199999999999</ele>
        <time>2017-06-03T10:53:32Z</time>
      </trkpt>
      <trkpt lat="46.102716391906142" lon="8.421952575445175">
        <ele>2162.6199999999999</ele>
        <time>2017-06-03T10:53:43Z</time>
      </trkpt>
      <trkpt lat="46.102704824879766" lon="8.421963304281235">
        <ele>2164.0599999999999</ele>
        <time>2017-06-03T10:53:55Z</time>
      </trkpt>
      <trkpt lat="46.102675572037697" lon="8.42196942307055">
        <ele>2165.5100000000002</ele>
        <time>2017-06-03T10:54:06Z</time>
      </trkpt>
      <trkpt lat="46.1026806011796" lon="8.421997502446175">
        <ele>2166.9499999999998</ele>
        <time>2017-06-03T10:54:15Z</time>
      </trkpt>
      <trkpt lat="46.102653695270419" lon="8.421992138028145">
        <ele>2166.9499999999998</ele>
        <time>2017-06-03T10:54:25Z</time>
      </trkpt>
      <trkpt lat="46.102639362215996" lon="8.422007644549012">
        <ele>2168.8699999999999</ele>
        <time>2017-06-03T10:54:33Z</time>
      </trkpt>
      <trkpt lat="46.102617653086782" lon="8.422027761116624">
        <ele>2170.79</ele>
        <time>2017-06-03T10:54:42Z</time>
      </trkpt>
      <trkpt lat="46.102602230384946" lon="8.422012254595757">
        <ele>2171.27</ele>
        <time>2017-06-03T10:54:52Z</time>
      </trkpt>
      <trkpt lat="46.102600218728185" lon="8.422006135806441">
        <ele>2172.2399999999998</ele>
        <time>2017-06-03T10:55:04Z</time>
      </trkpt>
      <trkpt lat="46.102585550397635" lon="8.422017116099596">
        <ele>2172.7199999999998</ele>
        <time>2017-06-03T10:55:15Z</time>
      </trkpt>
      <trkpt lat="46.102590830996633" lon="8.422030359506607">
        <ele>2174.1599999999999</ele>
        <time>2017-06-03T10:55:24Z</time>
      </trkpt>
      <trkpt lat="46.102595357224345" lon="8.422063300386071">
        <ele>2176.5599999999999</ele>
        <time>2017-06-03T10:55:33Z</time>
      </trkpt>
      <trkpt lat="46.102602817118168" lon="8.422065814957023">
        <ele>2177.04</ele>
        <time>2017-06-03T10:55:41Z</time>
      </trkpt>
      <trkpt lat="46.102612121030688" lon="8.422079058364034">
        <ele>2177.04</ele>
        <time>2017-06-03T10:55:51Z</time>
      </trkpt>
      <trkpt lat="46.10258630476892" lon="8.422108227387071">
        <ele>2178.48</ele>
        <time>2017-06-03T10:55:59Z</time>
      </trkpt>
      <trkpt lat="46.102568116039038" lon="8.422129936516285">
        <ele>2179.4499999999998</ele>
        <time>2017-06-03T10:56:19Z</time>
      </trkpt>
      <trkpt lat="46.102614216506481" lon="8.422129517421126">
        <ele>2180.4099999999999</ele>
        <time>2017-06-03T10:56:28Z</time>
      </trkpt>
      <trkpt lat="46.102633243426681" lon="8.422123901546001">
        <ele>2180.4099999999999</ele>
        <time>2017-06-03T10:56:33Z</time>
      </trkpt>
      <trkpt lat="46.102621089667082" lon="8.422126332297921">
        <ele>2180.4099999999999</ele>
        <time>2017-06-03T10:56:41Z</time>
      </trkpt>
      <trkpt lat="46.102604577317834" lon="8.422142006456852">
        <ele>2180.4099999999999</ele>
        <time>2017-06-03T10:56:54Z</time>
      </trkpt>
      <trkpt lat="46.102609103545547" lon="8.42216145247221">
        <ele>2180.8899999999999</ele>
        <time>2017-06-03T10:57:09Z</time>
      </trkpt>
      <trkpt lat="46.102596949785948" lon="8.422174360603094">
        <ele>2181.8499999999999</ele>
        <time>2017-06-03T10:57:22Z</time>
      </trkpt>
      <trkpt lat="46.102586723864079" lon="8.422193555161357">
        <ele>2182.3299999999999</ele>
        <time>2017-06-03T10:57:32Z</time>
      </trkpt>
      <trkpt lat="46.10256040468812" lon="8.422174863517284">
        <ele>2184.73</ele>
        <time>2017-06-03T10:57:43Z</time>
      </trkpt>
      <trkpt lat="46.102529307827353" lon="8.422168996185064">
        <ele>2185.21</ele>
        <time>2017-06-03T10:57:53Z</time>
      </trkpt>
      <trkpt lat="46.102518076077104" lon="8.42217855155468">
        <ele>2186.6599999999999</ele>
        <time>2017-06-03T10:58:04Z</time>
      </trkpt>
      <trkpt lat="46.102500054985285" lon="8.422185340896249">
        <ele>2188.0999999999999</ele>
        <time>2017-06-03T10:58:16Z</time>
      </trkpt>
      <trkpt lat="46.102478848770261" lon="8.422151058912277">
        <ele>2189.0599999999999</ele>
        <time>2017-06-03T10:58:27Z</time>
      </trkpt>
      <trkpt lat="46.10249251127243" lon="8.422185676172376">
        <ele>2190.5</ele>
        <time>2017-06-03T10:58:39Z</time>
      </trkpt>
      <trkpt lat="46.102470466867089" lon="8.422167235985398">
        <ele>2191.46</ele>
        <time>2017-06-03T10:58:49Z</time>
      </trkpt>
      <trkpt lat="46.102453786879778" lon="8.422183580696583">
        <ele>2192.4200000000001</ele>
        <time>2017-06-03T10:59:03Z</time>
      </trkpt>
      <trkpt lat="46.102450266480446" lon="8.422191375866532">
        <ele>2193.3899999999999</ele>
        <time>2017-06-03T10:59:13Z</time>
      </trkpt>
      <trkpt lat="46.102423025295138" lon="8.422181233763695">
        <ele>2194.8299999999999</ele>
        <time>2017-06-03T10:59:21Z</time>
      </trkpt>
      <trkpt lat="46.102420426905155" lon="8.422174612060189">
        <ele>2195.3099999999999</ele>
        <time>2017-06-03T10:59:24Z</time>
      </trkpt>
      <trkpt lat="46.102403914555907" lon="8.422156842425466">
        <ele>2196.27</ele>
        <time>2017-06-03T10:59:32Z</time>
      </trkpt>
      <trkpt lat="46.102410452440381" lon="8.422179389744997">
        <ele>2196.75</ele>
        <time>2017-06-03T10:59:41Z</time>
      </trkpt>
      <trkpt lat="46.102388575673103" lon="8.422188945114613">
        <ele>2197.71</ele>
        <time>2017-06-03T10:59:51Z</time>
      </trkpt>
      <trkpt lat="46.102381367236376" lon="8.422185424715281">
        <ele>2199.1500000000001</ele>
        <time>2017-06-03T11:00:02Z</time>
      </trkpt>
      <trkpt lat="46.102368626743555" lon="8.42221082188189">
        <ele>2200.5900000000001</ele>
        <time>2017-06-03T11:00:12Z</time>
      </trkpt>
      <trkpt lat="46.102364184334874" lon="8.422219790518284">
        <ele>2201.5599999999999</ele>
        <time>2017-06-03T11:00:21Z</time>
      </trkpt>
      <trkpt lat="46.102341469377279" lon="8.422222388908267">
        <ele>2202.04</ele>
        <time>2017-06-03T11:00:32Z</time>
      </trkpt>
      <trkpt lat="46.102336272597313" lon="8.42223035171628">
        <ele>2202.52</ele>
        <time>2017-06-03T11:00:40Z</time>
      </trkpt>
      <trkpt lat="46.102304002270103" lon="8.42223378829658">
        <ele>2203.96</ele>
        <time>2017-06-03T11:00:50Z</time>
      </trkpt>
      <trkpt lat="46.10229117795825" lon="8.422211492434144">
        <ele>2203.96</ele>
        <time>2017-06-03T11:01:00Z</time>
      </trkpt>
      <trkpt lat="46.102285562083125" lon="8.422182155773044">
        <ele>2203.48</ele>
        <time>2017-06-03T11:01:10Z</time>
      </trkpt>
      <trkpt lat="46.102274330332875" lon="8.422174779698253">
        <ele>2204.4400000000001</ele>
        <time>2017-06-03T11:01:27Z</time>
      </trkpt>
      <trkpt lat="46.102282125502825" lon="8.422221383079886">
        <ele>2204.4400000000001</ele>
        <time>2017-06-03T11:01:46Z</time>
      </trkpt>
      <trkpt lat="46.102268546819687" lon="8.422208894044161">
        <ele>2204.9200000000001</ele>
        <time>2017-06-03T11:01:55Z</time>
      </trkpt>
      <trkpt lat="46.102257398888469" lon="8.422212414443493">
        <ele>2205.8800000000001</ele>
        <time>2017-06-03T11:02:06Z</time>
      </trkpt>
      <trkpt lat="46.102240802720189" lon="8.422211240977049">
        <ele>2207.3200000000002</ele>
        <time>2017-06-03T11:02:15Z</time>
      </trkpt>
      <trkpt lat="46.102235522121191" lon="8.422223143279553">
        <ele>2208.29</ele>
        <time>2017-06-03T11:02:24Z</time>
      </trkpt>
      <trkpt lat="46.102227140218019" lon="8.42222104780376">
        <ele>2209.73</ele>
        <time>2017-06-03T11:02:35Z</time>
      </trkpt>
      <trkpt lat="46.102230157703161" lon="8.422208391129971">
        <ele>2210.21</ele>
        <time>2017-06-03T11:02:47Z</time>
      </trkpt>
      <trkpt lat="46.102227559313178" lon="8.422197829931974">
        <ele>2210.6900000000001</ele>
        <time>2017-06-03T11:02:59Z</time>
      </trkpt>
      <trkpt lat="46.102212807163596" lon="8.422182826325297">
        <ele>2212.1300000000001</ele>
        <time>2017-06-03T11:03:13Z</time>
      </trkpt>
      <trkpt lat="46.102183051407337" lon="8.422201266512275">
        <ele>2214.5300000000002</ele>
        <time>2017-06-03T11:03:28Z</time>
      </trkpt>
      <trkpt lat="46.10216410830617" lon="8.422165056690574">
        <ele>2215.5</ele>
        <time>2017-06-03T11:03:40Z</time>
      </trkpt>
      <trkpt lat="46.102143991738558" lon="8.422188693657517">
        <ele>2216.46</ele>
        <time>2017-06-03T11:03:49Z</time>
      </trkpt>
      <trkpt lat="46.102140806615353" lon="8.422200428321958">
        <ele>2217.4200000000001</ele>
        <time>2017-06-03T11:04:01Z</time>
      </trkpt>
      <trkpt lat="46.102156899869442" lon="8.422233704477549">
        <ele>2218.3800000000001</ele>
        <time>2017-06-03T11:04:10Z</time>
      </trkpt>
      <trkpt lat="46.102150697261095" lon="8.42226161621511">
        <ele>2219.3400000000001</ele>
        <time>2017-06-03T11:04:22Z</time>
      </trkpt>
      <trkpt lat="46.102129239588976" lon="8.422288438305259">
        <ele>2218.3800000000001</ele>
        <time>2017-06-03T11:04:30Z</time>
      </trkpt>
      <trkpt lat="46.102112056687474" lon="8.422300508245826">
        <ele>2217.9000000000001</ele>
        <time>2017-06-03T11:04:40Z</time>
      </trkpt>
      <trkpt lat="46.102094287052751" lon="8.422336298972368">
        <ele>2216.9400000000001</ele>
        <time>2017-06-03T11:04:50Z</time>
      </trkpt>
      <trkpt lat="46.102059502154589" lon="8.422351721674204">
        <ele>2216.9400000000001</ele>
        <time>2017-06-03T11:04:59Z</time>
      </trkpt>
      <trkpt lat="46.102040307596326" lon="8.422361444681883">
        <ele>2217.9000000000001</ele>
        <time>2017-06-03T11:05:10Z</time>
      </trkpt>
      <trkpt lat="46.102016922086477" lon="8.422383069992065">
        <ele>2219.3400000000001</ele>
        <time>2017-06-03T11:05:22Z</time>
      </trkpt>
      <trkpt lat="46.102001667022705" lon="8.422403940930963">
        <ele>2219.3400000000001</ele>
        <time>2017-06-03T11:05:27Z</time>
      </trkpt>
      <trkpt lat="46.101982388645411" lon="8.422435289248824">
        <ele>2220.3000000000002</ele>
        <time>2017-06-03T11:05:37Z</time>
      </trkpt>
      <trkpt lat="46.101963613182306" lon="8.422455489635468">
        <ele>2221.2600000000002</ele>
        <time>2017-06-03T11:05:46Z</time>
      </trkpt>
      <trkpt lat="46.101951878517866" lon="8.422467475757003">
        <ele>2222.2199999999998</ele>
        <time>2017-06-03T11:05:55Z</time>
      </trkpt>
      <trkpt lat="46.101933270692825" lon="8.422492537647486">
        <ele>2223.1900000000001</ele>
        <time>2017-06-03T11:06:03Z</time>
      </trkpt>
      <trkpt lat="46.101934025064111" lon="8.422491448000073">
        <ele>2223.6700000000001</ele>
        <time>2017-06-03T11:06:14Z</time>
      </trkpt>
      <trkpt lat="46.101906783878803" lon="8.422476444393396">
        <ele>2225.1100000000001</ele>
        <time>2017-06-03T11:06:25Z</time>
      </trkpt>
      <trkpt lat="46.101888846606016" lon="8.42249614186585">
        <ele>2227.0300000000002</ele>
        <time>2017-06-03T11:06:35Z</time>
      </trkpt>
      <trkpt lat="46.101871998980641" lon="8.422511983662844">
        <ele>2227.0300000000002</ele>
        <time>2017-06-03T11:06:45Z</time>
      </trkpt>
      <trkpt lat="46.101851128041744" lon="8.422522628679872">
        <ele>2228.4699999999998</ele>
        <time>2017-06-03T11:06:57Z</time>
      </trkpt>
      <trkpt lat="46.101847859099507" lon="8.422553893178701">
        <ele>2229.4299999999998</ele>
        <time>2017-06-03T11:07:06Z</time>
      </trkpt>
      <trkpt lat="46.101851044222713" lon="8.422566633671522">
        <ele>2229.4299999999998</ele>
        <time>2017-06-03T11:07:15Z</time>
      </trkpt>
      <trkpt lat="46.101841572672129" lon="8.422572249546647">
        <ele>2229.4299999999998</ele>
        <time>2017-06-03T11:07:27Z</time>
      </trkpt>
      <trkpt lat="46.101818857714534" lon="8.422630671411753">
        <ele>2231.3600000000001</ele>
        <time>2017-06-03T11:07:37Z</time>
      </trkpt>
      <trkpt lat="46.101781222969294" lon="8.422653554007411">
        <ele>2231.8400000000001</ele>
        <time>2017-06-03T11:07:48Z</time>
      </trkpt>
      <trkpt lat="46.101764962077141" lon="8.422682555392385">
        <ele>2232.8000000000002</ele>
        <time>2017-06-03T11:08:00Z</time>
      </trkpt>
      <trkpt lat="46.101764878258109" lon="8.422710634768009">
        <ele>2233.7600000000002</ele>
        <time>2017-06-03T11:08:11Z</time>
      </trkpt>
      <trkpt lat="46.101752473041415" lon="8.422738714143634">
        <ele>2234.2399999999998</ele>
        <time>2017-06-03T11:08:20Z</time>
      </trkpt>
      <trkpt lat="46.101744510233402" lon="8.422747934237123">
        <ele>2235.6799999999998</ele>
        <time>2017-06-03T11:08:31Z</time>
      </trkpt>
      <trkpt lat="46.101735876873136" lon="8.422746928408742">
        <ele>2235.1999999999998</ele>
        <time>2017-06-03T11:08:41Z</time>
      </trkpt>
      <trkpt lat="46.101736295968294" lon="8.422718429937959">
        <ele>2236.1599999999999</ele>
        <time>2017-06-03T11:09:00Z</time>
      </trkpt>
      <trkpt lat="46.101716766133904" lon="8.422699067741633">
        <ele>2236.6399999999999</ele>
        <time>2017-06-03T11:09:08Z</time>
      </trkpt>
      <trkpt lat="46.101681813597679" lon="8.422620445489883">
        <ele>2238.0900000000001</ele>
        <time>2017-06-03T11:09:18Z</time>
      </trkpt>
      <trkpt lat="46.10165691934526" lon="8.422561520710588">
        <ele>2239.5300000000002</ele>
        <time>2017-06-03T11:09:27Z</time>
      </trkpt>
      <trkpt lat="46.101656332612038" lon="8.422556994482875">
        <ele>2240.9699999999998</ele>
        <time>2017-06-03T11:09:45Z</time>
      </trkpt>
      <trkpt lat="46.101652476936579" lon="8.422518605366349">
        <ele>2241.9299999999998</ele>
        <time>2017-06-03T11:09:52Z</time>
      </trkpt>
      <trkpt lat="46.101644765585661" lon="8.422475270926952">
        <ele>2244.3299999999999</ele>
        <time>2017-06-03T11:10:02Z</time>
      </trkpt>
      <trkpt lat="46.101645268499851" lon="8.422437300905585">
        <ele>2246.2600000000002</ele>
        <time>2017-06-03T11:10:12Z</time>
      </trkpt>
      <trkpt lat="46.101613249629736" lon="8.422432439401746">
        <ele>2247.6999999999998</ele>
        <time>2017-06-03T11:10:21Z</time>
      </trkpt>
      <trkpt lat="46.101621715351939" lon="8.422390446066856">
        <ele>2249.1399999999999</ele>
        <time>2017-06-03T11:10:29Z</time>
      </trkpt>
      <trkpt lat="46.101627917960286" lon="8.422342501580715">
        <ele>2250.5799999999999</ele>
        <time>2017-06-03T11:10:40Z</time>
      </trkpt>
      <trkpt lat="46.101617692038417" lon="8.422320205718279">
        <ele>2251.54</ele>
        <time>2017-06-03T11:10:48Z</time>
      </trkpt>
      <trkpt lat="46.101595144718885" lon="8.422321379184723">
        <ele>2252.9899999999998</ele>
        <time>2017-06-03T11:10:58Z</time>
      </trkpt>
      <trkpt lat="46.101545440033078" lon="8.422338729724288">
        <ele>2254.4299999999998</ele>
        <time>2017-06-03T11:11:08Z</time>
      </trkpt>
      <trkpt lat="46.101510571315885" lon="8.422338394448161">
        <ele>2255.8699999999999</ele>
        <time>2017-06-03T11:11:17Z</time>
      </trkpt>
      <trkpt lat="46.101473607122898" lon="8.422315428033471">
        <ele>2257.79</ele>
        <time>2017-06-03T11:11:29Z</time>
      </trkpt>
      <trkpt lat="46.101486096158624" lon="8.422308471053839">
        <ele>2258.27</ele>
        <time>2017-06-03T11:11:37Z</time>
      </trkpt>
      <trkpt lat="46.101512080058455" lon="8.422318445518613">
        <ele>2258.27</ele>
        <time>2017-06-03T11:11:48Z</time>
      </trkpt>
      <trkpt lat="46.101515349000692" lon="8.422326827421784">
        <ele>2258.27</ele>
        <time>2017-06-03T11:12:05Z</time>
      </trkpt>
      <trkpt lat="46.101521551609039" lon="8.422311991453171">
        <ele>2258.75</ele>
        <time>2017-06-03T11:12:18Z</time>
      </trkpt>
      <trkpt lat="46.101509565487504" lon="8.422271339222789">
        <ele>2260.1999999999998</ele>
        <time>2017-06-03T11:12:29Z</time>
      </trkpt>
      <trkpt lat="46.101517528295517" lon="8.422253234311938">
        <ele>2260.1999999999998</ele>
        <time>2017-06-03T11:12:38Z</time>
      </trkpt>
      <trkpt lat="46.101526329293847" lon="8.422218700870872">
        <ele>2262.1199999999999</ele>
        <time>2017-06-03T11:12:47Z</time>
      </trkpt>
      <trkpt lat="46.101549966260791" lon="8.422221466898918">
        <ele>2263.0799999999999</ele>
        <time>2017-06-03T11:12:55Z</time>
      </trkpt>
      <trkpt lat="46.101557677611709" lon="8.422208307310939">
        <ele>2263.5599999999999</ele>
        <time>2017-06-03T11:13:00Z</time>
      </trkpt>
      <trkpt lat="46.101542171090841" lon="8.4221844188869">
        <ele>2264.52</ele>
        <time>2017-06-03T11:13:08Z</time>
      </trkpt>
      <trkpt lat="46.10153772868216" lon="8.42217369005084">
        <ele>2265</ele>
        <time>2017-06-03T11:13:15Z</time>
      </trkpt>
      <trkpt lat="46.101535633206367" lon="8.422167152166367">
        <ele>2266.4499999999998</ele>
        <time>2017-06-03T11:13:22Z</time>
      </trkpt>
      <trkpt lat="46.101517612114549" lon="8.42215022072196">
        <ele>2267.4099999999999</ele>
        <time>2017-06-03T11:13:33Z</time>
      </trkpt>
      <trkpt lat="46.101504033431411" lon="8.422145275399089">
        <ele>2267.8899999999999</ele>
        <time>2017-06-03T11:13:42Z</time>
      </trkpt>
      <trkpt lat="46.101506380364299" lon="8.422163464128971">
        <ele>2267.8899999999999</ele>
        <time>2017-06-03T11:13:53Z</time>
      </trkpt>
      <trkpt lat="46.101498585194349" lon="8.422115771099925">
        <ele>2268.8499999999999</ele>
        <time>2017-06-03T11:14:04Z</time>
      </trkpt>
      <trkpt lat="46.10155189409852" lon="8.422099929302931">
        <ele>2270.29</ele>
        <time>2017-06-03T11:14:17Z</time>
      </trkpt>
      <trkpt lat="46.101557509973645" lon="8.422083668410778">
        <ele>2271.73</ele>
        <time>2017-06-03T11:14:27Z</time>
      </trkpt>
      <trkpt lat="46.101552732288837" lon="8.422073358669877">
        <ele>2273.6599999999999</ele>
        <time>2017-06-03T11:14:37Z</time>
      </trkpt>
      <trkpt lat="46.101518115028739" lon="8.42205248773098">
        <ele>2274.1399999999999</ele>
        <time>2017-06-03T11:14:45Z</time>
      </trkpt>
      <trkpt lat="46.101519037038088" lon="8.42202415689826">
        <ele>2275.0999999999999</ele>
        <time>2017-06-03T11:14:53Z</time>
      </trkpt>
      <trkpt lat="46.10153772868216" lon="8.422005046159029">
        <ele>2276.0599999999999</ele>
        <time>2017-06-03T11:15:05Z</time>
      </trkpt>
      <trkpt lat="46.101531274616718" lon="8.421987108886242">
        <ele>2277.98</ele>
        <time>2017-06-03T11:15:16Z</time>
      </trkpt>
      <trkpt lat="46.101549295708537" lon="8.421939164400101">
        <ele>2279.9000000000001</ele>
        <time>2017-06-03T11:15:27Z</time>
      </trkpt>
      <trkpt lat="46.101549211889505" lon="8.421935392543674">
        <ele>2281.3499999999999</ele>
        <time>2017-06-03T11:15:37Z</time>
      </trkpt>
      <trkpt lat="46.101561365649104" lon="8.421893566846848">
        <ele>2282.3099999999999</ele>
        <time>2017-06-03T11:15:46Z</time>
      </trkpt>
      <trkpt lat="46.1015235632658" lon="8.421940002590418">
        <ele>2282.3099999999999</ele>
        <time>2017-06-03T11:15:55Z</time>
      </trkpt>
      <trkpt lat="46.101495400071144" lon="8.421920388936997">
        <ele>2283.75</ele>
        <time>2017-06-03T11:16:02Z</time>
      </trkpt>
      <trkpt lat="46.101501435041428" lon="8.421871941536665">
        <ele>2285.6700000000001</ele>
        <time>2017-06-03T11:16:12Z</time>
      </trkpt>
      <trkpt lat="46.101491209119558" lon="8.421889711171389">
        <ele>2285.6700000000001</ele>
        <time>2017-06-03T11:16:21Z</time>
      </trkpt>
      <trkpt lat="46.101471511647105" lon="8.421909660100937">
        <ele>2286.6300000000001</ele>
        <time>2017-06-03T11:16:30Z</time>
      </trkpt>
      <trkpt lat="46.101490538567305" lon="8.421880155801773">
        <ele>2287.1100000000001</ele>
        <time>2017-06-03T11:16:42Z</time>
      </trkpt>
      <trkpt lat="46.101464722305536" lon="8.421871438622475">
        <ele>2287.5900000000001</ele>
        <time>2017-06-03T11:16:58Z</time>
      </trkpt>
      <trkpt lat="46.101474948227406" lon="8.421846125274897">
        <ele>2288.0799999999999</ele>
        <time>2017-06-03T11:17:08Z</time>
      </trkpt>
      <trkpt lat="46.101453742012382" lon="8.421858614310622">
        <ele>2287.5900000000001</ele>
        <time>2017-06-03T11:17:19Z</time>
      </trkpt>
      <trkpt lat="46.101428009569645" lon="8.421917874366045">
        <ele>2288.5599999999999</ele>
        <time>2017-06-03T11:17:28Z</time>
      </trkpt>
      <trkpt lat="46.101388111710548" lon="8.421905469149351">
        <ele>2288.5599999999999</ele>
        <time>2017-06-03T11:17:36Z</time>
      </trkpt>
      <trkpt lat="46.101388027891517" lon="8.421899685636163">
        <ele>2288.0799999999999</ele>
        <time>2017-06-03T11:17:46Z</time>
      </trkpt>
      <trkpt lat="46.101381322368979" lon="8.42187219299376">
        <ele>2287.5900000000001</ele>
        <time>2017-06-03T11:18:08Z</time>
      </trkpt>
      <trkpt lat="46.101379478350282" lon="8.421863056719303">
        <ele>2287.5900000000001</ele>
        <time>2017-06-03T11:18:30Z</time>
      </trkpt>
      <trkpt lat="46.101380316540599" lon="8.421868588775396">
        <ele>2287.5900000000001</ele>
        <time>2017-06-03T11:18:51Z</time>
      </trkpt>
      <trkpt lat="46.10138283111155" lon="8.421892644837499">
        <ele>2287.5900000000001</ele>
        <time>2017-06-03T11:19:10Z</time>
      </trkpt>
      <trkpt lat="46.101392805576324" lon="8.421891555190086">
        <ele>2288.5599999999999</ele>
        <time>2017-06-03T11:19:32Z</time>
      </trkpt>
      <trkpt lat="46.1013906262815" lon="8.421884598210454">
        <ele>2288.5599999999999</ele>
        <time>2017-06-03T11:19:48Z</time>
      </trkpt>
      <trkpt lat="46.1013906262815" lon="8.421904798597097">
        <ele>2288.5599999999999</ele>
        <time>2017-06-03T11:20:11Z</time>
      </trkpt>
      <trkpt lat="46.101395571604371" lon="8.421905050054193">
        <ele>2288.5599999999999</ele>
        <time>2017-06-03T11:20:40Z</time>
      </trkpt>
      <trkpt lat="46.101392051205039" lon="8.421901613473892">
        <ele>2288.5599999999999</ele>
        <time>2017-06-03T11:21:07Z</time>
      </trkpt>
      <trkpt lat="46.10139456577599" lon="8.421898763626814">
        <ele>2288.5599999999999</ele>
        <time>2017-06-03T11:21:31Z</time>
      </trkpt>
      <trkpt lat="46.101398169994354" lon="8.421905217692256">
        <ele>2289.04</ele>
        <time>2017-06-03T11:21:58Z</time>
      </trkpt>
      <trkpt lat="46.101395906880498" lon="8.421905301511288">
        <ele>2289.04</ele>
        <time>2017-06-03T11:22:20Z</time>
      </trkpt>
      <trkpt lat="46.101389201357961" lon="8.421902619302273">
        <ele>2289.04</ele>
        <time>2017-06-03T11:22:55Z</time>
      </trkpt>
      <trkpt lat="46.101391799747944" lon="8.421903541311622">
        <ele>2290.48</ele>
        <time>2017-06-03T11:23:18Z</time>
      </trkpt>
      <trkpt lat="46.101393224671483" lon="8.421900942921639">
        <ele>2289.04</ele>
        <time>2017-06-03T11:23:44Z</time>
      </trkpt>
      <trkpt lat="46.101390961557627" lon="8.4219063911587">
        <ele>2289.04</ele>
        <time>2017-06-03T11:24:11Z</time>
      </trkpt>
      <trkpt lat="46.101394398137927" lon="8.421902786940336">
        <ele>2289.52</ele>
        <time>2017-06-03T11:24:35Z</time>
      </trkpt>
      <trkpt lat="46.101397080346942" lon="8.421907899901271">
        <ele>2289.52</ele>
        <time>2017-06-03T11:25:00Z</time>
      </trkpt>
      <trkpt lat="46.101396242156625" lon="8.421909660100937">
        <ele>2289.52</ele>
        <time>2017-06-03T11:25:32Z</time>
      </trkpt>
      <trkpt lat="46.101392889395356" lon="8.421911671757698">
        <ele>2289.52</ele>
        <time>2017-06-03T11:25:56Z</time>
      </trkpt>
      <trkpt lat="46.101393224671483" lon="8.421907061710954">
        <ele>2290</ele>
        <time>2017-06-03T11:26:20Z</time>
      </trkpt>
      <trkpt lat="46.101386519148946" lon="8.42190052382648">
        <ele>2290</ele>
        <time>2017-06-03T11:26:50Z</time>
      </trkpt>
      <trkpt lat="46.101388446986675" lon="8.421904547140002">
        <ele>2290</ele>
        <time>2017-06-03T11:27:14Z</time>
      </trkpt>
      <trkpt lat="46.101388614624739" lon="8.421907648444176">
        <ele>2290</ele>
        <time>2017-06-03T11:27:41Z</time>
      </trkpt>
      <trkpt lat="46.101394984871149" lon="8.421900859102607">
        <ele>2289.52</ele>
        <time>2017-06-03T11:28:11Z</time>
      </trkpt>
      <trkpt lat="46.101389368996024" lon="8.421907480806112">
        <ele>2290</ele>
        <time>2017-06-03T11:28:39Z</time>
      </trkpt>
      <trkpt lat="46.10138819552958" lon="8.42190588824451">
        <ele>2290</ele>
        <time>2017-06-03T11:29:11Z</time>
      </trkpt>
      <trkpt lat="46.101388279348612" lon="8.42190882191062">
        <ele>2290</ele>
        <time>2017-06-03T11:29:44Z</time>
      </trkpt>
      <trkpt lat="46.10138769261539" lon="8.421900691464543">
        <ele>2290</ele>
        <time>2017-06-03T11:30:09Z</time>
      </trkpt>
      <trkpt lat="46.101387776434422" lon="8.421908067539334">
        <ele>2290</ele>
        <time>2017-06-03T11:30:38Z</time>
      </trkpt>
      <trkpt lat="46.101387524977326" lon="8.421899434179068">
        <ele>2290</ele>
        <time>2017-06-03T11:31:12Z</time>
      </trkpt>
      <trkpt lat="46.101383166387677" lon="8.421898428350687">
        <ele>2289.52</ele>
        <time>2017-06-03T11:31:36Z</time>
      </trkpt>
      <trkpt lat="46.101385178044438" lon="8.42190345749259">
        <ele>2289.52</ele>
        <time>2017-06-03T11:32:04Z</time>
      </trkpt>
      <trkpt lat="46.101385345682502" lon="8.421903373673558">
        <ele>2289.52</ele>
        <time>2017-06-03T11:32:32Z</time>
      </trkpt>
      <trkpt lat="46.101384507492185" lon="8.421904295682907">
        <ele>2290</ele>
        <time>2017-06-03T11:33:02Z</time>
      </trkpt>
      <trkpt lat="46.101400516927242" lon="8.421902284026146">
        <ele>2289.52</ele>
        <time>2017-06-03T11:33:20Z</time>
      </trkpt>
      <trkpt lat="46.101406887173653" lon="8.421905469149351">
        <ele>2289.52</ele>
        <time>2017-06-03T11:33:45Z</time>
      </trkpt>
      <trkpt lat="46.101396242156625" lon="8.421893315389752">
        <ele>2290</ele>
        <time>2017-06-03T11:34:10Z</time>
      </trkpt>
      <trkpt lat="46.101389788091183" lon="8.421900188550353">
        <ele>2290</ele>
        <time>2017-06-03T11:34:39Z</time>
      </trkpt>
      <trkpt lat="46.101392805576324" lon="8.421916533261538">
        <ele>2289.04</ele>
        <time>2017-06-03T11:34:59Z</time>
      </trkpt>
      <trkpt lat="46.101397750899196" lon="8.421890800818801">
        <ele>2289.52</ele>
        <time>2017-06-03T11:35:23Z</time>
      </trkpt>
      <trkpt lat="46.101403785869479" lon="8.421889375895262">
        <ele>2290</ele>
        <time>2017-06-03T11:35:42Z</time>
      </trkpt>
      <trkpt lat="46.101392637938261" lon="8.421907899901271">
        <ele>2289.52</ele>
        <time>2017-06-03T11:35:58Z</time>
      </trkpt>
      <trkpt lat="46.101390710100532" lon="8.421906977891922">
        <ele>2289.04</ele>
        <time>2017-06-03T11:36:15Z</time>
      </trkpt>
      <trkpt lat="46.101385848596692" lon="8.421911168843508">
        <ele>2289.52</ele>
        <time>2017-06-03T11:36:39Z</time>
      </trkpt>
      <trkpt lat="46.101386519148946" lon="8.421906223520637">
        <ele>2289.04</ele>
        <time>2017-06-03T11:37:09Z</time>
      </trkpt>
      <trkpt lat="46.101384339854121" lon="8.421905720606446">
        <ele>2289.04</ele>
        <time>2017-06-03T11:37:38Z</time>
      </trkpt>
      <trkpt lat="46.101383250206709" lon="8.421906726434827">
        <ele>2289.52</ele>
        <time>2017-06-03T11:38:17Z</time>
      </trkpt>
      <trkpt lat="46.101391548290849" lon="8.421908151358366">
        <ele>2289.04</ele>
        <time>2017-06-03T11:38:49Z</time>
      </trkpt>
      <trkpt lat="46.101384507492185" lon="8.421898512169719">
        <ele>2289.52</ele>
        <time>2017-06-03T11:39:18Z</time>
      </trkpt>
      <trkpt lat="46.101387273520231" lon="8.421902535483241">
        <ele>2289.52</ele>
        <time>2017-06-03T11:39:49Z</time>
      </trkpt>
      <trkpt lat="46.101400349289179" lon="8.421912593767047">
        <ele>2289.52</ele>
        <time>2017-06-03T11:40:17Z</time>
      </trkpt>
      <trkpt lat="46.101389285176992" lon="8.421916700899601">
        <ele>2290</ele>
        <time>2017-06-03T11:40:53Z</time>
      </trkpt>
      <trkpt lat="46.101383585482836" lon="8.421908738091588">
        <ele>2290</ele>
        <time>2017-06-03T11:41:10Z</time>
      </trkpt>
      <trkpt lat="46.101371683180332" lon="8.421905804425478">
        <ele>2290</ele>
        <time>2017-06-03T11:41:42Z</time>
      </trkpt>
      <trkpt lat="46.101368917152286" lon="8.421904547140002">
        <ele>2290</ele>
        <time>2017-06-03T11:42:14Z</time>
      </trkpt>
      <trkpt lat="46.101377969607711" lon="8.421905385330319">
        <ele>2290</ele>
        <time>2017-06-03T11:42:41Z</time>
      </trkpt>
      <trkpt lat="46.101379562169313" lon="8.421913683414459">
        <ele>2290.48</ele>
        <time>2017-06-03T11:43:13Z</time>
      </trkpt>
      <trkpt lat="46.101378556340933" lon="8.421911420300603">
        <ele>2290.48</ele>
        <time>2017-06-03T11:43:41Z</time>
      </trkpt>
      <trkpt lat="46.101376041769981" lon="8.421916030347347">
        <ele>2290.48</ele>
        <time>2017-06-03T11:44:11Z</time>
      </trkpt>
      <trkpt lat="46.101379478350282" lon="8.421907732263207">
        <ele>2290.48</ele>
        <time>2017-06-03T11:44:38Z</time>
      </trkpt>
      <trkpt lat="46.10138576477766" lon="8.421878647059202">
        <ele>2290.48</ele>
        <time>2017-06-03T11:44:56Z</time>
      </trkpt>
      <trkpt lat="46.101382412016392" lon="8.421899182721973">
        <ele>2290.48</ele>
        <time>2017-06-03T11:45:08Z</time>
      </trkpt>
      <trkpt lat="46.101383669301867" lon="8.421902870759368">
        <ele>2290.48</ele>
        <time>2017-06-03T11:45:38Z</time>
      </trkpt>
      <trkpt lat="46.101388111710548" lon="8.421895327046514">
        <ele>2290.96</ele>
        <time>2017-06-03T11:46:10Z</time>
      </trkpt>
      <trkpt lat="46.101379478350282" lon="8.42189121991396">
        <ele>2290.96</ele>
        <time>2017-06-03T11:46:19Z</time>
      </trkpt>
      <trkpt lat="46.101382244378328" lon="8.421891806647182">
        <ele>2290.96</ele>
        <time>2017-06-03T11:46:45Z</time>
      </trkpt>
      <trkpt lat="46.101380484178662" lon="8.421893315389752">
        <ele>2290.96</ele>
        <time>2017-06-03T11:47:07Z</time>
      </trkpt>
      <trkpt lat="46.101379478350282" lon="8.42188828624785">
        <ele>2290.96</ele>
        <time>2017-06-03T11:47:36Z</time>
      </trkpt>
      <trkpt lat="46.101376544684172" lon="8.421888872981072">
        <ele>2290.96</ele>
        <time>2017-06-03T11:48:01Z</time>
      </trkpt>
      <trkpt lat="46.101381154730916" lon="8.421893985942006">
        <ele>2290.96</ele>
        <time>2017-06-03T11:48:33Z</time>
      </trkpt>
      <trkpt lat="46.101383585482836" lon="8.421899517998099">
        <ele>2291.4400000000001</ele>
        <time>2017-06-03T11:48:41Z</time>
      </trkpt>
      <trkpt lat="46.101397415623069" lon="8.421896751970053">
        <ele>2291.4400000000001</ele>
        <time>2017-06-03T11:48:51Z</time>
      </trkpt>
      <trkpt lat="46.101403785869479" lon="8.421899266541004">
        <ele>2291.9200000000001</ele>
        <time>2017-06-03T11:49:02Z</time>
      </trkpt>
      <trkpt lat="46.101405629888177" lon="8.421903373673558">
        <ele>2291.9200000000001</ele>
        <time>2017-06-03T11:49:14Z</time>
      </trkpt>
      <trkpt lat="46.101398421451449" lon="8.421885268762708">
        <ele>2291.4400000000001</ele>
        <time>2017-06-03T11:49:25Z</time>
      </trkpt>
      <trkpt lat="46.101407306268811" lon="8.421893399208784">
        <ele>2290.48</ele>
        <time>2017-06-03T11:49:34Z</time>
      </trkpt>
      <trkpt lat="46.101414179429412" lon="8.421895829960704">
        <ele>2290.48</ele>
        <time>2017-06-03T11:49:54Z</time>
      </trkpt>
      <trkpt lat="46.101410491392016" lon="8.421891806647182">
        <ele>2291.4400000000001</ele>
        <time>2017-06-03T11:50:05Z</time>
      </trkpt>
      <trkpt lat="46.101397080346942" lon="8.421906558796763">
        <ele>2291.9200000000001</ele>
        <time>2017-06-03T11:50:16Z</time>
      </trkpt>
      <trkpt lat="46.10141359269619" lon="8.421898931264877">
        <ele>2291.9200000000001</ele>
        <time>2017-06-03T11:50:27Z</time>
      </trkpt>
      <trkpt lat="46.101414179429412" lon="8.42193279415369">
        <ele>2291.4400000000001</ele>
        <time>2017-06-03T11:50:36Z</time>
      </trkpt>
      <trkpt lat="46.101368246600032" lon="8.421931117773056">
        <ele>2291.4400000000001</ele>
        <time>2017-06-03T11:50:47Z</time>
      </trkpt>
    </trkseg>
  </trk>

</gpx>